Wetterdaten: Dienstag, 04.10.2022
Datum Zeit Temp. 2m Temp +5 cm Feuchte A. Luftdruck Regen Wind Richtung Richtung Sonnenschein UV Solar Taupunkt Windchill Windben
04.10.2022 00:00 3,4 C 2,8 C 93 % 1027,0 hPa 0,0 l/m 0,0 km/h (0 Bft) N 0 0 min 0,0 UV-I 0 W/m 2,4 C 3,4 C 0,0 km/h (0 Bft)
04.10.2022 00:01 3,4 C 2,8 C 93 % 1027,0 hPa 0,0 l/m 0,0 km/h (0 Bft) N 0 0 min 0,0 UV-I 0 W/m 2,4 C 3,4 C 0,0 km/h (0 Bft)
04.10.2022 00:02 3,4 C 2,8 C 93 % 1027,0 hPa 0,0 l/m 0,0 km/h (0 Bft) N 0 0 min 0,0 UV-I 0 W/m 2,4 C 3,4 C 0,0 km/h (0 Bft)
04.10.2022 00:03 3,5 C 2,8 C 93 % 1027,0 hPa 0,0 l/m 1,6 km/h (1 Bft) O-NO 67 0 min 0,0 UV-I 0 W/m 2,5 C 3,5 C 1,6 km/h (1 Bft)
04.10.2022 00:04 3,5 C 2,8 C 93 % 1027,1 hPa 0,0 l/m 1,6 km/h (1 Bft) O-NO 67 0 min 0,0 UV-I 0 W/m 2,5 C 3,5 C 3,2 km/h (1 Bft)
04.10.2022 00:05 3,6 C 2,8 C 93 % 1026,9 hPa 0,0 l/m 1,6 km/h (1 Bft) O-NO 67 0 min 0,0 UV-I 0 W/m 2,6 C 3,6 C 3,2 km/h (1 Bft)
04.10.2022 00:06 3,6 C 2,8 C 93 % 1027,1 hPa 0,0 l/m 1,6 km/h (1 Bft) O-NO 67 0 min 0,0 UV-I 0 W/m 2,6 C 3,6 C 3,2 km/h (1 Bft)
04.10.2022 00:07 3,6 C 2,8 C 93 % 1027,0 hPa 0,0 l/m 1,6 km/h (1 Bft) O-NO 67 0 min 0,0 UV-I 0 W/m 2,6 C 3,6 C 3,2 km/h (1 Bft)
04.10.2022 00:08 3,6 C 2,8 C 93 % 1027,1 hPa 0,0 l/m 0,0 km/h (0 Bft) O-NO 67 0 min 0,0 UV-I 0 W/m 2,6 C 3,6 C 1,6 km/h (1 Bft)
04.10.2022 00:09 3,5 C 2,8 C 93 % 1027,1 hPa 0,0 l/m 1,6 km/h (1 Bft) O-NO 67 0 min 0,0 UV-I 0 W/m 2,5 C 3,5 C 3,2 km/h (1 Bft)
04.10.2022 00:10 3,5 C 2,8 C 93 % 1027,1 hPa 0,0 l/m 0,0 km/h (0 Bft) O-NO 67 0 min 0,0 UV-I 0 W/m 2,5 C 3,5 C 1,6 km/h (1 Bft)
04.10.2022 00:11 3,5 C 2,8 C 93 % 1027,0 hPa 0,0 l/m 0,0 km/h (0 Bft) N 0 0 min 0,0 UV-I 0 W/m 2,5 C 3,5 C 0,0 km/h (0 Bft)
04.10.2022 00:12 3,5 C 2,8 C 93 % 1027,0 hPa 0,0 l/m 0,0 km/h (0 Bft) N 0 0 min 0,0 UV-I 0 W/m 2,5 C 3,5 C 0,0 km/h (0 Bft)
04.10.2022 00:13 3,5 C 2,8 C 93 % 1027,0 hPa 0,0 l/m 0,0 km/h (0 Bft) N 0 0 min 0,0 UV-I 0 W/m 2,5 C 3,5 C 0,0 km/h (0 Bft)
04.10.2022 00:14 3,4 C 2,8 C 93 % 1026,9 hPa 0,0 l/m 0,0 km/h (0 Bft) N 0 0 min 0,0 UV-I 0 W/m 2,4 C 3,4 C 0,0 km/h (0 Bft)
04.10.2022 00:15 3,4 C 2,8 C 93 % 1027,1 hPa 0,0 l/m 0,0 km/h (0 Bft) N 0 0 min 0,0 UV-I 0 W/m 2,4 C 3,4 C 0,0 km/h (0 Bft)
04.10.2022 00:16 3,4 C 2,8 C 93 % 1027,0 hPa 0,0 l/m 0,0 km/h (0 Bft) N 0 0 min 0,0 UV-I 0 W/m 2,4 C 3,4 C 0,0 km/h (0 Bft)
04.10.2022 00:17 3,4 C 2,2 C 93 % 1027,0 hPa 0,0 l/m 0,0 km/h (0 Bft) N 0 0 min 0,0 UV-I 0 W/m 2,4 C 3,4 C 0,0 km/h (0 Bft)
04.10.2022 00:18 3,5 C 2,2 C 93 % 1026,9 hPa 0,0 l/m 0,0 km/h (0 Bft) N 0 0 min 0,0 UV-I 0 W/m 2,5 C 3,5 C 0,0 km/h (0 Bft)
04.10.2022 00:19 3,5 C 2,8 C 93 % 1027,0 hPa 0,0 l/m 0,0 km/h (0 Bft) N 0 0 min 0,0 UV-I 0 W/m 2,5 C 3,5 C 0,0 km/h (0 Bft)
04.10.2022 00:20 3,6 C 2,2 C 94 % 1027,0 hPa 0,0 l/m 0,0 km/h (0 Bft) N 0 0 min 0,0 UV-I 0 W/m 2,7 C 3,6 C 0,0 km/h (0 Bft)
04.10.2022 00:21 3,6 C 2,2 C 94 % 1027,0 hPa 0,0 l/m 0,0 km/h (0 Bft) N 0 0 min 0,0 UV-I 0 W/m 2,7 C 3,6 C 0,0 km/h (0 Bft)
04.10.2022 00:22 3,6 C 2,2 C 93 % 1027,0 hPa 0,0 l/m 0,0 km/h (0 Bft) N 0 0 min 0,0 UV-I 0 W/m 2,6 C 3,6 C 0,0 km/h (0 Bft)
04.10.2022 00:23 3,6 C 2,2 C 93 % 1027,0 hPa 0,0 l/m 0,0 km/h (0 Bft) N 0 0 min 0,0 UV-I 0 W/m 2,6 C 3,6 C 0,0 km/h (0 Bft)
04.10.2022 00:24 3,7 C 2,2 C 94 % 1027,0 hPa 0,0 l/m 0,0 km/h (0 Bft) N 0 0 min 0,0 UV-I 0 W/m 2,8 C 3,7 C 0,0 km/h (0 Bft)
04.10.2022 00:25 3,7 C 2,2 C 93 % 1027,0 hPa 0,0 l/m 0,0 km/h (0 Bft) N 0 0 min 0,0 UV-I 0 W/m 2,7 C 3,7 C 0,0 km/h (0 Bft)
04.10.2022 00:26 3,7 C 2,2 C 94 % 1026,9 hPa 0,0 l/m 0,0 km/h (0 Bft) N 0 0 min 0,0 UV-I 0 W/m 2,8 C 3,7 C 0,0 km/h (0 Bft)
04.10.2022 00:27 3,7 C 2,2 C 93 % 1027,0 hPa 0,0 l/m 0,0 km/h (0 Bft) O-NO 67 0 min 0,0 UV-I 0 W/m 2,7 C 3,7 C 1,6 km/h (1 Bft)
04.10.2022 00:28 3,7 C 2,2 C 93 % 1026,9 hPa 0,0 l/m 1,6 km/h (1 Bft) O-NO 67 0 min 0,0 UV-I 0 W/m 2,7 C 3,7 C 1,6 km/h (1 Bft)
04.10.2022 00:29 3,7 C 2,2 C 93 % 1027,0 hPa 0,0 l/m 1,6 km/h (1 Bft) O-NO 67 0 min 0,0 UV-I 0 W/m 2,7 C 3,7 C 1,6 km/h (1 Bft)
04.10.2022 00:30 3,7 C 2,2 C 93 % 1026,9 hPa 0,0 l/m 1,6 km/h (1 Bft) O-NO 67 0 min 0,0 UV-I 0 W/m 2,7 C 3,7 C 3,2 km/h (1 Bft)
04.10.2022 00:31 3,7 C 2,2 C 93 % 1027,0 hPa 0,0 l/m 1,6 km/h (1 Bft) O-NO 67 0 min 0,0 UV-I 0 W/m 2,7 C 3,7 C 3,2 km/h (1 Bft)
04.10.2022 00:32 3,7 C 2,2 C 93 % 1026,9 hPa 0,0 l/m 1,6 km/h (1 Bft) O-NO 67 0 min 0,0 UV-I 0 W/m 2,7 C 3,7 C 1,6 km/h (1 Bft)
04.10.2022 00:33 3,6 C 2,2 C 93 % 1027,0 hPa 0,0 l/m 0,0 km/h (0 Bft) N 0 0 min 0,0 UV-I 0 W/m 2,6 C 3,6 C 0,0 km/h (0 Bft)
04.10.2022 00:34 3,6 C 2,2 C 93 % 1027,0 hPa 0,0 l/m 0,0 km/h (0 Bft) N 0 0 min 0,0 UV-I 0 W/m 2,6 C 3,6 C 0,0 km/h (0 Bft)
04.10.2022 00:35 3,5 C 2,2 C 93 % 1027,0 hPa 0,0 l/m 0,0 km/h (0 Bft) N 0 0 min 0,0 UV-I 0 W/m 2,5 C 3,5 C 0,0 km/h (0 Bft)
04.10.2022 00:36 3,4 C 2,2 C 93 % 1026,9 hPa 0,0 l/m 0,0 km/h (0 Bft) N 0 0 min 0,0 UV-I 0 W/m 2,4 C 3,4 C 0,0 km/h (0 Bft)
04.10.2022 00:37 3,3 C 2,2 C 93 % 1027,0 hPa 0,0 l/m 0,0 km/h (0 Bft) N 0 0 min 0,0 UV-I 0 W/m 2,3 C 3,3 C 0,0 km/h (0 Bft)
04.10.2022 00:38 3,2 C 2,2 C 93 % 1026,9 hPa 0,0 l/m 0,0 km/h (0 Bft) N 0 0 min 0,0 UV-I 0 W/m 2,2 C 3,2 C 0,0 km/h (0 Bft)
04.10.2022 00:39 3,2 C 2,2 C 93 % 1026,9 hPa 0,0 l/m 0,0 km/h (0 Bft) N 0 0 min 0,0 UV-I 0 W/m 2,2 C 3,2 C 0,0 km/h (0 Bft)
04.10.2022 00:40 3,1 C 2,2 C 93 % 1027,0 hPa 0,0 l/m 0,0 km/h (0 Bft) N 0 0 min 0,0 UV-I 0 W/m 2,1 C 3,1 C 0,0 km/h (0 Bft)
04.10.2022 00:41 3,1 C 2,2 C 93 % 1026,9 hPa 0,0 l/m 0,0 km/h (0 Bft) N 0 0 min 0,0 UV-I 0 W/m 2,1 C 3,1 C 0,0 km/h (0 Bft)
04.10.2022 00:42 3,1 C 2,2 C 93 % 1027,0 hPa 0,0 l/m 0,0 km/h (0 Bft) N 0 0 min 0,0 UV-I 0 W/m 2,1 C 3,1 C 0,0 km/h (0 Bft)
04.10.2022 00:43 3,0 C 2,2 C 93 % 1027,0 hPa 0,0 l/m 0,0 km/h (0 Bft) N 0 0 min 0,0 UV-I 0 W/m 2,0 C 3,0 C 0,0 km/h (0 Bft)
04.10.2022 00:44 3,1 C 2,2 C 93 % 1027,1 hPa 0,0 l/m 0,0 km/h (0 Bft) N 0 0 min 0,0 UV-I 0 W/m 2,1 C 3,1 C 0,0 km/h (0 Bft)
04.10.2022 00:45 2,9 C 2,2 C 93 % 1027,2 hPa 0,0 l/m 0,0 km/h (0 Bft) N 0 0 min 0,0 UV-I 0 W/m 1,9 C 2,9 C 0,0 km/h (0 Bft)
04.10.2022 00:46 3,0 C 1,7 C 93 % 1027,1 hPa 0,0 l/m 0,0 km/h (0 Bft) N 0 0 min 0,0 UV-I 0 W/m 2,0 C 3,0 C 0,0 km/h (0 Bft)
04.10.2022 00:47 3,0 C 1,7 C 93 % 1027,2 hPa 0,0 l/m 0,0 km/h (0 Bft) N 0 0 min 0,0 UV-I 0 W/m 2,0 C 3,0 C 0,0 km/h (0 Bft)
04.10.2022 00:48 2,9 C 1,7 C 93 % 1027,1 hPa 0,0 l/m 0,0 km/h (0 Bft) N 0 0 min 0,0 UV-I 0 W/m 1,9 C 2,9 C 0,0 km/h (0 Bft)
04.10.2022 00:49 2,9 C 1,7 C 93 % 1027,2 hPa 0,0 l/m 0,0 km/h (0 Bft) N 0 0 min 0,0 UV-I 0 W/m 1,9 C 2,9 C 0,0 km/h (0 Bft)
04.10.2022 00:50 2,9 C 1,7 C 93 % 1027,2 hPa 0,0 l/m 0,0 km/h (0 Bft) N 0 0 min 0,0 UV-I 0 W/m 1,9 C 2,9 C 0,0 km/h (0 Bft)
04.10.2022 00:51 2,9 C 1,7 C 93 % 1027,2 hPa 0,0 l/m 0,0 km/h (0 Bft) N 0 0 min 0,0 UV-I 0 W/m 1,9 C 2,9 C 0,0 km/h (0 Bft)
04.10.2022 00:52 2,9 C 1,7 C 93 % 1027,1 hPa 0,0 l/m 0,0 km/h (0 Bft) N 0 0 min 0,0 UV-I 0 W/m 1,9 C 2,9 C 0,0 km/h (0 Bft)
04.10.2022 00:53 2,9 C 1,7 C 93 % 1027,0 hPa 0,0 l/m 0,0 km/h (0 Bft) N 0 0 min 0,0 UV-I 0 W/m 1,9 C 2,9 C 0,0 km/h (0 Bft)
04.10.2022 00:54 2,9 C 1,7 C 93 % 1027,1 hPa 0,0 l/m 0,0 km/h (0 Bft) N 0 0 min 0,0 UV-I 0 W/m 1,9 C 2,9 C 0,0 km/h (0 Bft)
04.10.2022 00:55 2,9 C 1,7 C 93 % 1027,1 hPa 0,0 l/m 0,0 km/h (0 Bft) N 0 0 min 0,0 UV-I 0 W/m 1,9 C 2,9 C 0,0 km/h (0 Bft)
04.10.2022 00:56 2,9 C 1,7 C 93 % 1027,0 hPa 0,0 l/m 0,0 km/h (0 Bft) N 0 0 min 0,0 UV-I 0 W/m 1,9 C 2,9 C 0,0 km/h (0 Bft)
04.10.2022 00:57 2,9 C 1,7 C 93 % 1027,1 hPa 0,0 l/m 0,0 km/h (0 Bft) N 0 0 min 0,0 UV-I 0 W/m 1,9 C 2,9 C 0,0 km/h (0 Bft)
04.10.2022 00:58 2,9 C 1,7 C 94 % 1027,0 hPa 0,0 l/m 0,0 km/h (0 Bft) N 0 0 min 0,0 UV-I 0 W/m 2,0 C 2,9 C 0,0 km/h (0 Bft)
04.10.2022 00:59 2,9 C 1,7 C 93 % 1027,0 hPa 0,0 l/m 0,0 km/h (0 Bft) N 0 0 min 0,0 UV-I 0 W/m 1,9 C 2,9 C 0,0 km/h (0 Bft)
04.10.2022 01:00 2,9 C 1,7 C 93 % 1027,0 hPa 0,0 l/m 0,0 km/h (0 Bft) N 0 0 min 0,0 UV-I 0 W/m 1,9 C 2,9 C 0,0 km/h (0 Bft)
04.10.2022 01:01 2,9 C 1,7 C 94 % 1027,0 hPa 0,0 l/m 0,0 km/h (0 Bft) N 0 0 min 0,0 UV-I 0 W/m 2,0 C 2,9 C 0,0 km/h (0 Bft)
04.10.2022 01:02 2,9 C 1,7 C 94 % 1026,9 hPa 0,0 l/m 0,0 km/h (0 Bft) N 0 0 min 0,0 UV-I 0 W/m 2,0 C 2,9 C 0,0 km/h (0 Bft)
04.10.2022 01:03 3,0 C 1,7 C 94 % 1027,0 hPa 0,0 l/m 0,0 km/h (0 Bft) N 0 0 min 0,0 UV-I 0 W/m 2,1 C 3,0 C 0,0 km/h (0 Bft)
04.10.2022 01:04 2,9 C 1,7 C 93 % 1026,9 hPa 0,0 l/m 0,0 km/h (0 Bft) N 0 0 min 0,0 UV-I 0 W/m 1,9 C 2,9 C 0,0 km/h (0 Bft)
04.10.2022 01:05 2,8 C 1,7 C 93 % 1026,9 hPa 0,0 l/m 0,0 km/h (0 Bft) N 0 0 min 0,0 UV-I 0 W/m 1,8 C 2,8 C 0,0 km/h (0 Bft)
04.10.2022 01:06 2,8 C 1,7 C 93 % 1026,9 hPa 0,0 l/m 0,0 km/h (0 Bft) N 0 0 min 0,0 UV-I 0 W/m 1,8 C 2,8 C 0,0 km/h (0 Bft)
04.10.2022 01:07 2,9 C 1,7 C 94 % 1027,0 hPa 0,0 l/m 0,0 km/h (0 Bft) N 0 0 min 0,0 UV-I 0 W/m 2,0 C 2,9 C 0,0 km/h (0 Bft)
04.10.2022 01:08 2,9 C 1,7 C 94 % 1027,0 hPa 0,0 l/m 0,0 km/h (0 Bft) N 0 0 min 0,0 UV-I 0 W/m 2,0 C 2,9 C 0,0 km/h (0 Bft)
04.10.2022 01:09 2,9 C 1,7 C 94 % 1027,0 hPa 0,0 l/m 0,0 km/h (0 Bft) N 0 0 min 0,0 UV-I 0 W/m 2,0 C 2,9 C 0,0 km/h (0 Bft)
04.10.2022 01:10 2,9 C 1,7 C 94 % 1027,0 hPa 0,0 l/m 0,0 km/h (0 Bft) N 0 0 min 0,0 UV-I 0 W/m 2,0 C 2,9 C 0,0 km/h (0 Bft)
04.10.2022 01:11 2,9 C 1,7 C 94 % 1026,9 hPa 0,0 l/m 0,0 km/h (0 Bft) N 0 0 min 0,0 UV-I 0 W/m 2,0 C 2,9 C 0,0 km/h (0 Bft)
04.10.2022 01:12 2,9 C 1,7 C 93 % 1026,9 hPa 0,0 l/m 0,0 km/h (0 Bft) N 0 0 min 0,0 UV-I 0 W/m 1,9 C 2,9 C 0,0 km/h (0 Bft)
04.10.2022 01:13 2,9 C 1,7 C 94 % 1026,9 hPa 0,0 l/m 0,0 km/h (0 Bft) N 0 0 min 0,0 UV-I 0 W/m 2,0 C 2,9 C 0,0 km/h (0 Bft)
04.10.2022 01:14 2,9 C 1,7 C 94 % 1027,0 hPa 0,0 l/m 0,0 km/h (0 Bft) N 0 0 min 0,0 UV-I 0 W/m 2,0 C 2,9 C 0,0 km/h (0 Bft)
04.10.2022 01:15 2,9 C 1,7 C 94 % 1027,0 hPa 0,0 l/m 0,0 km/h (0 Bft) N 0 0 min 0,0 UV-I 0 W/m 2,0 C 2,9 C 0,0 km/h (0 Bft)
04.10.2022 01:16 2,9 C 1,7 C 94 % 1026,9 hPa 0,0 l/m 0,0 km/h (0 Bft) N 0 0 min 0,0 UV-I 0 W/m 2,0 C 2,9 C 0,0 km/h (0 Bft)
04.10.2022 01:17 2,9 C 1,7 C 94 % 1026,8 hPa 0,0 l/m 0,0 km/h (0 Bft) N 0 0 min 0,0 UV-I 0 W/m 2,0 C 2,9 C 0,0 km/h (0 Bft)
04.10.2022 01:18 2,8 C 1,7 C 94 % 1026,9 hPa 0,0 l/m 0,0 km/h (0 Bft) N 0 0 min 0,0 UV-I 0 W/m 1,9 C 2,8 C 0,0 km/h (0 Bft)
04.10.2022 01:19 2,7 C 1,7 C 93 % 1026,8 hPa 0,0 l/m 0,0 km/h (0 Bft) N 0 0 min 0,0 UV-I 0 W/m 1,7 C 2,7 C 0,0 km/h (0 Bft)
04.10.2022 01:20 2,7 C 1,7 C 93 % 1026,8 hPa 0,0 l/m 0,0 km/h (0 Bft) N 0 0 min 0,0 UV-I 0 W/m 1,7 C 2,7 C 0,0 km/h (0 Bft)
04.10.2022 01:21 2,7 C 1,7 C 93 % 1026,8 hPa 0,0 l/m 0,0 km/h (0 Bft) N 0 0 min 0,0 UV-I 0 W/m 1,7 C 2,7 C 0,0 km/h (0 Bft)
04.10.2022 01:22 2,7 C 1,7 C 93 % 1026,8 hPa 0,0 l/m 0,0 km/h (0 Bft) N 0 0 min 0,0 UV-I 0 W/m 1,7 C 2,7 C 0,0 km/h (0 Bft)
04.10.2022 01:23 2,6 C 1,7 C 93 % 1026,7 hPa 0,0 l/m 0,0 km/h (0 Bft) N 0 0 min 0,0 UV-I 0 W/m 1,6 C 2,6 C 0,0 km/h (0 Bft)
04.10.2022 01:24 2,6 C 1,7 C 93 % 1026,7 hPa 0,0 l/m 0,0 km/h (0 Bft) N 0 0 min 0,0 UV-I 0 W/m 1,6 C 2,6 C 0,0 km/h (0 Bft)
04.10.2022 01:25 2,6 C 1,7 C 93 % 1026,7 hPa 0,0 l/m 0,0 km/h (0 Bft) N 0 0 min 0,0 UV-I 0 W/m 1,6 C 2,6 C 0,0 km/h (0 Bft)
04.10.2022 01:26 2,6 C 1,7 C 93 % 1026,7 hPa 0,0 l/m 0,0 km/h (0 Bft) N 0 0 min 0,0 UV-I 0 W/m 1,6 C 2,6 C 0,0 km/h (0 Bft)
04.10.2022 01:27 2,5 C 1,7 C 93 % 1026,8 hPa 0,0 l/m 0,0 km/h (0 Bft) O-NO 67 0 min 0,0 UV-I 0 W/m 1,5 C 2,5 C 3,2 km/h (1 Bft)
04.10.2022 01:28 2,5 C 1,7 C 93 % 1026,7 hPa 0,0 l/m 3,2 km/h (1 Bft) O-NO 67 0 min 0,0 UV-I 0 W/m 1,5 C 2,5 C 3,2 km/h (1 Bft)
04.10.2022 01:29 2,5 C 1,7 C 93 % 1026,7 hPa 0,0 l/m 3,2 km/h (1 Bft) O-NO 67 0 min 0,0 UV-I 0 W/m 1,5 C 2,5 C 3,2 km/h (1 Bft)
04.10.2022 01:30 2,5 C 1,7 C 94 % 1026,8 hPa 0,0 l/m 3,2 km/h (1 Bft) O-NO 67 0 min 0,0 UV-I 0 W/m 1,6 C 2,5 C 3,2 km/h (1 Bft)
04.10.2022 01:31 2,5 C 1,7 C 94 % 1026,7 hPa 0,0 l/m 3,2 km/h (1 Bft) O-NO 67 0 min 0,0 UV-I 0 W/m 1,6 C 2,5 C 3,2 km/h (1 Bft)
04.10.2022 01:32 2,5 C 1,7 C 93 % 1026,8 hPa 0,0 l/m 1,6 km/h (1 Bft) O-NO 67 0 min 0,0 UV-I 0 W/m 1,5 C 2,5 C 3,2 km/h (1 Bft)
04.10.2022 01:33 2,5 C 1,7 C 93 % 1026,7 hPa 0,0 l/m 1,6 km/h (1 Bft) O-NO 67 0 min 0,0 UV-I 0 W/m 1,5 C 2,5 C 1,6 km/h (1 Bft)
04.10.2022 01:34 2,6 C 1,7 C 93 % 1026,6 hPa 0,0 l/m 0,0 km/h (0 Bft) O-NO 67 0 min 0,0 UV-I 0 W/m 1,6 C 2,6 C 1,6 km/h (1 Bft)
04.10.2022 01:35 2,6 C 2,2 C 93 % 1026,7 hPa 0,0 l/m 0,0 km/h (0 Bft) N 0 0 min 0,0 UV-I 0 W/m 1,6 C 2,6 C 0,0 km/h (0 Bft)
04.10.2022 01:36 2,5 C 2,2 C 93 % 1026,6 hPa 0,0 l/m 0,0 km/h (0 Bft) N 0 0 min 0,0 UV-I 0 W/m 1,5 C 2,5 C 0,0 km/h (0 Bft)
04.10.2022 01:37 2,4 C 2,2 C 93 % 1026,6 hPa 0,0 l/m 0,0 km/h (0 Bft) N 0 0 min 0,0 UV-I 0 W/m 1,4 C 2,4 C 0,0 km/h (0 Bft)
04.10.2022 01:38 2,4 C 2,2 C 93 % 1026,5 hPa 0,0 l/m 0,0 km/h (0 Bft) N 0 0 min 0,0 UV-I 0 W/m 1,4 C 2,4 C 0,0 km/h (0 Bft)
04.10.2022 01:39 2,4 C 2,2 C 93 % 1026,6 hPa 0,0 l/m 0,0 km/h (0 Bft) N 0 0 min 0,0 UV-I 0 W/m 1,4 C 2,4 C 0,0 km/h (0 Bft)
04.10.2022 01:40 2,4 C 2,2 C 93 % 1026,7 hPa 0,0 l/m 0,0 km/h (0 Bft) N 0 0 min 0,0 UV-I 0 W/m 1,4 C 2,4 C 0,0 km/h (0 Bft)
04.10.2022 01:41 2,5 C 1,7 C 93 % 1026,5 hPa 0,0 l/m 0,0 km/h (0 Bft) N 0 0 min 0,0 UV-I 0 W/m 1,5 C 2,5 C 0,0 km/h (0 Bft)
04.10.2022 01:42 2,6 C 1,7 C 94 % 1026,6 hPa 0,0 l/m 0,0 km/h (0 Bft) N 0 0 min 0,0 UV-I 0 W/m 1,7 C 2,6 C 0,0 km/h (0 Bft)
04.10.2022 01:43 2,6 C 1,7 C 94 % 1026,5 hPa 0,0 l/m 0,0 km/h (0 Bft) N 0 0 min 0,0 UV-I 0 W/m 1,7 C 2,6 C 0,0 km/h (0 Bft)
04.10.2022 01:44 2,6 C 1,7 C 94 % 1026,6 hPa 0,0 l/m 0,0 km/h (0 Bft) N 0 0 min 0,0 UV-I 0 W/m 1,7 C 2,6 C 0,0 km/h (0 Bft)
04.10.2022 01:45 2,6 C 1,7 C 94 % 1026,4 hPa 0,0 l/m 0,0 km/h (0 Bft) N 0 0 min 0,0 UV-I 0 W/m 1,7 C 2,6 C 0,0 km/h (0 Bft)
04.10.2022 01:46 2,6 C 1,7 C 94 % 1026,5 hPa 0,0 l/m 0,0 km/h (0 Bft) N 0 0 min 0,0 UV-I 0 W/m 1,7 C 2,6 C 0,0 km/h (0 Bft)
04.10.2022 01:47 2,5 C 1,7 C 94 % 1026,4 hPa 0,0 l/m 0,0 km/h (0 Bft) N 0 0 min 0,0 UV-I 0 W/m 1,6 C 2,5 C 0,0 km/h (0 Bft)
04.10.2022 01:48 2,5 C 1,7 C 93 % 1026,5 hPa 0,0 l/m 0,0 km/h (0 Bft) N 0 0 min 0,0 UV-I 0 W/m 1,5 C 2,5 C 0,0 km/h (0 Bft)
04.10.2022 01:49 2,4 C 1,7 C 93 % 1026,4 hPa 0,0 l/m 0,0 km/h (0 Bft) N 0 0 min 0,0 UV-I 0 W/m 1,4 C 2,4 C 0,0 km/h (0 Bft)
04.10.2022 01:50 2,4 C 1,7 C 93 % 1026,4 hPa 0,0 l/m 0,0 km/h (0 Bft) N 0 0 min 0,0 UV-I 0 W/m 1,4 C 2,4 C 0,0 km/h (0 Bft)
04.10.2022 01:51 2,4 C 1,7 C 93 % 1026,4 hPa 0,0 l/m 0,0 km/h (0 Bft) N 0 0 min 0,0 UV-I 0 W/m 1,4 C 2,4 C 0,0 km/h (0 Bft)
04.10.2022 01:52 2,4 C 1,7 C 93 % 1026,6 hPa 0,0 l/m 0,0 km/h (0 Bft) N 0 0 min 0,0 UV-I 0 W/m 1,4 C 2,4 C 0,0 km/h (0 Bft)
04.10.2022 01:53 2,4 C 1,7 C 93 % 1026,5 hPa 0,0 l/m 0,0 km/h (0 Bft) N 0 0 min 0,0 UV-I 0 W/m 1,4 C 2,4 C 0,0 km/h (0 Bft)
04.10.2022 01:54 2,4 C 1,7 C 94 % 1026,6 hPa 0,0 l/m 0,0 km/h (0 Bft) N 0 0 min 0,0 UV-I 0 W/m 1,5 C 2,4 C 0,0 km/h (0 Bft)
04.10.2022 01:55 2,4 C 1,7 C 94 % 1026,5 hPa 0,0 l/m 0,0 km/h (0 Bft) N 0 0 min 0,0 UV-I 0 W/m 1,5 C 2,4 C 0,0 km/h (0 Bft)
04.10.2022 01:56 2,4 C 1,7 C 94 % 1026,5 hPa 0,0 l/m 0,0 km/h (0 Bft) N 0 0 min 0,0 UV-I 0 W/m 1,5 C 2,4 C 0,0 km/h (0 Bft)
04.10.2022 01:57 2,4 C 1,7 C 94 % 1026,5 hPa 0,0 l/m 0,0 km/h (0 Bft) N 0 0 min 0,0 UV-I 0 W/m 1,5 C 2,4 C 0,0 km/h (0 Bft)
04.10.2022 01:58 2,4 C 1,7 C 94 % 1026,5 hPa 0,0 l/m 0,0 km/h (0 Bft) N 0 0 min 0,0 UV-I 0 W/m 1,5 C 2,4 C 0,0 km/h (0 Bft)
04.10.2022 01:59 2,4 C 1,7 C 94 % 1026,5 hPa 0,0 l/m 0,0 km/h (0 Bft) N 0 0 min 0,0 UV-I 0 W/m 1,5 C 2,4 C 0,0 km/h (0 Bft)
04.10.2022 02:00 2,4 C 1,7 C 94 % 1026,6 hPa 0,0 l/m 0,0 km/h (0 Bft) N 0 0 min 0,0 UV-I 0 W/m 1,5 C 2,4 C 0,0 km/h (0 Bft)
04.10.2022 02:01 2,5 C 1,7 C 94 % 1026,5 hPa 0,0 l/m 0,0 km/h (0 Bft) N 0 0 min 0,0 UV-I 0 W/m 1,6 C 2,5 C 0,0 km/h (0 Bft)
04.10.2022 02:02 2,6 C 1,7 C 94 % 1026,6 hPa 0,0 l/m 0,0 km/h (0 Bft) N 0 0 min 0,0 UV-I 0 W/m 1,7 C 2,6 C 0,0 km/h (0 Bft)
04.10.2022 02:03 2,5 C 1,7 C 94 % 1026,5 hPa 0,0 l/m 0,0 km/h (0 Bft) N 0 0 min 0,0 UV-I 0 W/m 1,6 C 2,5 C 0,0 km/h (0 Bft)
04.10.2022 02:04 2,4 C 1,7 C 94 % 1026,6 hPa 0,0 l/m 0,0 km/h (0 Bft) N 0 0 min 0,0 UV-I 0 W/m 1,5 C 2,4 C 0,0 km/h (0 Bft)
04.10.2022 02:05 2,3 C 1,1 C 94 % 1026,5 hPa 0,0 l/m 0,0 km/h (0 Bft) N 0 0 min 0,0 UV-I 0 W/m 1,4 C 2,3 C 0,0 km/h (0 Bft)
04.10.2022 02:06 2,2 C 1,1 C 94 % 1026,6 hPa 0,0 l/m 0,0 km/h (0 Bft) N 0 0 min 0,0 UV-I 0 W/m 1,3 C 2,2 C 0,0 km/h (0 Bft)
04.10.2022 02:07 2,2 C 1,1 C 94 % 1026,5 hPa 0,0 l/m 0,0 km/h (0 Bft) N 0 0 min 0,0 UV-I 0 W/m 1,3 C 2,2 C 0,0 km/h (0 Bft)
04.10.2022 02:08 2,1 C 1,1 C 93 % 1026,5 hPa 0,0 l/m 0,0 km/h (0 Bft) N 0 0 min 0,0 UV-I 0 W/m 1,1 C 2,1 C 0,0 km/h (0 Bft)
04.10.2022 02:09 2,1 C 1,1 C 93 % 1026,5 hPa 0,0 l/m 0,0 km/h (0 Bft) N 0 0 min 0,0 UV-I 0 W/m 1,1 C 2,1 C 0,0 km/h (0 Bft)
04.10.2022 02:10 1,9 C 1,1 C 93 % 1026,5 hPa 0,0 l/m 0,0 km/h (0 Bft) N 0 0 min 0,0 UV-I 0 W/m 0,9 C 1,9 C 0,0 km/h (0 Bft)
04.10.2022 02:11 1,9 C 1,1 C 93 % 1026,5 hPa 0,0 l/m 0,0 km/h (0 Bft) N 0 0 min 0,0 UV-I 0 W/m 0,9 C 1,9 C 0,0 km/h (0 Bft)
04.10.2022 02:12 1,8 C 1,1 C 93 % 1026,5 hPa 0,0 l/m 0,0 km/h (0 Bft) N 0 0 min 0,0 UV-I 0 W/m 0,8 C 1,8 C 0,0 km/h (0 Bft)
04.10.2022 02:13 1,9 C 1,1 C 93 % 1026,5 hPa 0,0 l/m 0,0 km/h (0 Bft) O-NO 67 0 min 0,0 UV-I 0 W/m 0,9 C 1,9 C 1,6 km/h (1 Bft)
04.10.2022 02:14 1,9 C 1,1 C 94 % 1026,5 hPa 0,0 l/m 1,6 km/h (1 Bft) O-NO 67 0 min 0,0 UV-I 0 W/m 1,0 C 1,9 C 1,6 km/h (1 Bft)
04.10.2022 02:15 2,0 C 1,1 C 94 % 1026,4 hPa 0,0 l/m 0,0 km/h (0 Bft) O-NO 67 0 min 0,0 UV-I 0 W/m 1,1 C 2,0 C 1,6 km/h (1 Bft)
04.10.2022 02:16 2,1 C 1,1 C 94 % 1026,4 hPa 0,0 l/m 0,0 km/h (0 Bft) O-NO 67 0 min 0,0 UV-I 0 W/m 1,2 C 2,1 C 1,6 km/h (1 Bft)
04.10.2022 02:17 2,1 C 1,1 C 94 % 1026,5 hPa 0,0 l/m 0,0 km/h (0 Bft) O-NO 67 0 min 0,0 UV-I 0 W/m 1,2 C 2,1 C 1,6 km/h (1 Bft)
04.10.2022 02:18 2,0 C 1,1 C 94 % 1026,5 hPa 0,0 l/m 1,6 km/h (1 Bft) O-NO 67 0 min 0,0 UV-I 0 W/m 1,1 C 2,0 C 1,6 km/h (1 Bft)
04.10.2022 02:19 2,0 C 1,1 C 94 % 1026,5 hPa 0,0 l/m 0,0 km/h (0 Bft) O-NO 67 0 min 0,0 UV-I 0 W/m 1,1 C 2,0 C 1,6 km/h (1 Bft)
04.10.2022 02:20 2,1 C 1,1 C 94 % 1026,4 hPa 0,0 l/m 0,0 km/h (0 Bft) N 0 0 min 0,0 UV-I 0 W/m 1,2 C 2,1 C 0,0 km/h (0 Bft)
04.10.2022 02:21 2,0 C 1,1 C 94 % 1026,5 hPa 0,0 l/m 0,0 km/h (0 Bft) N 0 0 min 0,0 UV-I 0 W/m 1,1 C 2,0 C 0,0 km/h (0 Bft)
04.10.2022 02:22 2,0 C 1,7 C 94 % 1026,4 hPa 0,0 l/m 0,0 km/h (0 Bft) N 0 0 min 0,0 UV-I 0 W/m 1,1 C 2,0 C 0,0 km/h (0 Bft)
04.10.2022 02:23 2,0 C 1,7 C 94 % 1026,5 hPa 0,0 l/m 0,0 km/h (0 Bft) N 0 0 min 0,0 UV-I 0 W/m 1,1 C 2,0 C 0,0 km/h (0 Bft)
04.10.2022 02:24 1,9 C 1,7 C 94 % 1026,5 hPa 0,0 l/m 0,0 km/h (0 Bft) N 0 0 min 0,0 UV-I 0 W/m 1,0 C 1,9 C 0,0 km/h (0 Bft)
04.10.2022 02:25 1,9 C 1,7 C 94 % 1026,4 hPa 0,0 l/m 0,0 km/h (0 Bft) N 0 0 min 0,0 UV-I 0 W/m 1,0 C 1,9 C 0,0 km/h (0 Bft)
04.10.2022 02:26 2,0 C 1,7 C 94 % 1026,4 hPa 0,0 l/m 0,0 km/h (0 Bft) N 0 0 min 0,0 UV-I 0 W/m 1,1 C 2,0 C 0,0 km/h (0 Bft)
04.10.2022 02:27 2,1 C 1,7 C 94 % 1026,4 hPa 0,0 l/m 0,0 km/h (0 Bft) N 0 0 min 0,0 UV-I 0 W/m 1,2 C 2,1 C 0,0 km/h (0 Bft)
04.10.2022 02:28 2,1 C 1,7 C 94 % 1026,4 hPa 0,0 l/m 0,0 km/h (0 Bft) N 0 0 min 0,0 UV-I 0 W/m 1,2 C 2,1 C 0,0 km/h (0 Bft)
04.10.2022 02:29 2,2 C 1,7 C 94 % 1026,3 hPa 0,0 l/m 0,0 km/h (0 Bft) N 0 0 min 0,0 UV-I 0 W/m 1,3 C 2,2 C 0,0 km/h (0 Bft)
04.10.2022 02:30 2,3 C 1,7 C 94 % 1026,3 hPa 0,0 l/m 0,0 km/h (0 Bft) N 0 0 min 0,0 UV-I 0 W/m 1,4 C 2,3 C 0,0 km/h (0 Bft)
04.10.2022 02:31 2,4 C 1,7 C 94 % 1026,3 hPa 0,0 l/m 0,0 km/h (0 Bft) N 0 0 min 0,0 UV-I 0 W/m 1,5 C 2,4 C 0,0 km/h (0 Bft)
04.10.2022 02:32 2,6 C 1,7 C 94 % 1026,3 hPa 0,0 l/m 0,0 km/h (0 Bft) N 0 0 min 0,0 UV-I 0 W/m 1,7 C 2,6 C 0,0 km/h (0 Bft)
04.10.2022 02:33 2,6 C 1,7 C 94 % 1026,3 hPa 0,0 l/m 0,0 km/h (0 Bft) N 0 0 min 0,0 UV-I 0 W/m 1,7 C 2,6 C 0,0 km/h (0 Bft)
04.10.2022 02:34 2,7 C 1,7 C 94 % 1026,2 hPa 0,0 l/m 0,0 km/h (0 Bft) N 0 0 min 0,0 UV-I 0 W/m 1,8 C 2,7 C 0,0 km/h (0 Bft)
04.10.2022 02:35 2,6 C 1,7 C 94 % 1026,3 hPa 0,0 l/m 0,0 km/h (0 Bft) N 0 0 min 0,0 UV-I 0 W/m 1,7 C 2,6 C 0,0 km/h (0 Bft)
04.10.2022 02:36 2,6 C 1,7 C 94 % 1026,2 hPa 0,0 l/m 0,0 km/h (0 Bft) N 0 0 min 0,0 UV-I 0 W/m 1,7 C 2,6 C 0,0 km/h (0 Bft)
04.10.2022 02:37 2,5 C 1,7 C 94 % 1026,2 hPa 0,0 l/m 0,0 km/h (0 Bft) N 0 0 min 0,0 UV-I 0 W/m 1,6 C 2,5 C 0,0 km/h (0 Bft)
04.10.2022 02:38 2,4 C 1,7 C 94 % 1026,2 hPa 0,0 l/m 0,0 km/h (0 Bft) N 0 0 min 0,0 UV-I 0 W/m 1,5 C 2,4 C 0,0 km/h (0 Bft)
04.10.2022 02:39 2,4 C 1,7 C 94 % 1026,2 hPa 0,0 l/m 0,0 km/h (0 Bft) N 0 0 min 0,0 UV-I 0 W/m 1,5 C 2,4 C 0,0 km/h (0 Bft)
04.10.2022 02:40 2,4 C 1,7 C 94 % 1026,1 hPa 0,0 l/m 0,0 km/h (0 Bft) O-NO 67 0 min 0,0 UV-I 0 W/m 1,5 C 2,4 C 1,6 km/h (1 Bft)
04.10.2022 02:41 2,4 C 1,7 C 94 % 1026,0 hPa 0,0 l/m 0,0 km/h (0 Bft) O-NO 67 0 min 0,0 UV-I 0 W/m 1,5 C 2,4 C 1,6 km/h (1 Bft)
04.10.2022 02:42 2,3 C 1,7 C 94 % 1026,0 hPa 0,0 l/m 0,0 km/h (0 Bft) O-NO 67 0 min 0,0 UV-I 0 W/m 1,4 C 2,3 C 1,6 km/h (1 Bft)
04.10.2022 02:43 2,3 C 1,7 C 94 % 1026,0 hPa 0,0 l/m 1,6 km/h (1 Bft) O-NO 67 0 min 0,0 UV-I 0 W/m 1,4 C 2,3 C 1,6 km/h (1 Bft)
04.10.2022 02:44 2,3 C 1,7 C 94 % 1026,0 hPa 0,0 l/m 1,6 km/h (1 Bft) O-NO 67 0 min 0,0 UV-I 0 W/m 1,4 C 2,3 C 1,6 km/h (1 Bft)
04.10.2022 02:45 2,3 C 1,7 C 94 % 1026,1 hPa 0,0 l/m 1,6 km/h (1 Bft) O-NO 67 0 min 0,0 UV-I 0 W/m 1,4 C 2,3 C 1,6 km/h (1 Bft)
04.10.2022 02:46 2,3 C 1,7 C 94 % 1026,0 hPa 0,0 l/m 0,0 km/h (0 Bft) O-NO 67 0 min 0,0 UV-I 0 W/m 1,4 C 2,3 C 1,6 km/h (1 Bft)
04.10.2022 02:47 2,3 C 1,7 C 94 % 1026,0 hPa 0,0 l/m 0,0 km/h (0 Bft) N 0 0 min 0,0 UV-I 0 W/m 1,4 C 2,3 C 0,0 km/h (0 Bft)
04.10.2022 02:48 2,4 C 1,7 C 94 % 1026,0 hPa 0,0 l/m 0,0 km/h (0 Bft) N 0 0 min 0,0 UV-I 0 W/m 1,5 C 2,4 C 0,0 km/h (0 Bft)
04.10.2022 02:49 2,4 C 1,7 C 94 % 1026,0 hPa 0,0 l/m 0,0 km/h (0 Bft) N 0 0 min 0,0 UV-I 0 W/m 1,5 C 2,4 C 0,0 km/h (0 Bft)
04.10.2022 02:50 2,3 C 1,7 C 94 % 1026,0 hPa 0,0 l/m 0,0 km/h (0 Bft) N 0 0 min 0,0 UV-I 0 W/m 1,4 C 2,3 C 0,0 km/h (0 Bft)
04.10.2022 02:51 2,3 C 1,7 C 94 % 1026,0 hPa 0,0 l/m 0,0 km/h (0 Bft) N 0 0 min 0,0 UV-I 0 W/m 1,4 C 2,3 C 0,0 km/h (0 Bft)
04.10.2022 02:52 2,3 C 1,7 C 94 % 1025,9 hPa 0,0 l/m 0,0 km/h (0 Bft) N 0 0 min 0,0 UV-I 0 W/m 1,4 C 2,3 C 0,0 km/h (0 Bft)
04.10.2022 02:53 2,3 C 1,7 C 94 % 1025,9 hPa 0,0 l/m 0,0 km/h (0 Bft) N 0 0 min 0,0 UV-I 0 W/m 1,4 C 2,3 C 0,0 km/h (0 Bft)
04.10.2022 02:54 2,3 C 1,7 C 94 % 1026,0 hPa 0,0 l/m 0,0 km/h (0 Bft) N 0 0 min 0,0 UV-I 0 W/m 1,4 C 2,3 C 0,0 km/h (0 Bft)
04.10.2022 02:55 2,2 C 1,7 C 94 % 1026,0 hPa 0,0 l/m 0,0 km/h (0 Bft) N 0 0 min 0,0 UV-I 0 W/m 1,3 C 2,2 C 0,0 km/h (0 Bft)
04.10.2022 02:56 2,2 C 1,7 C 94 % 1026,0 hPa 0,0 l/m 0,0 km/h (0 Bft) N 0 0 min 0,0 UV-I 0 W/m 1,3 C 2,2 C 0,0 km/h (0 Bft)
04.10.2022 02:57 2,2 C 1,7 C 94 % 1025,9 hPa 0,0 l/m 0,0 km/h (0 Bft) N 0 0 min 0,0 UV-I 0 W/m 1,3 C 2,2 C 0,0 km/h (0 Bft)
04.10.2022 02:58 2,2 C 1,7 C 94 % 1025,9 hPa 0,0 l/m 0,0 km/h (0 Bft) N 0 0 min 0,0 UV-I 0 W/m 1,3 C 2,2 C 0,0 km/h (0 Bft)
04.10.2022 02:59 2,2 C 1,7 C 94 % 1025,9 hPa 0,0 l/m 0,0 km/h (0 Bft) N 0 0 min 0,0 UV-I 0 W/m 1,3 C 2,2 C 0,0 km/h (0 Bft)
04.10.2022 03:00 2,1 C 1,7 C 94 % 1025,9 hPa 0,0 l/m 0,0 km/h (0 Bft) N 0 0 min 0,0 UV-I 0 W/m 1,2 C 2,1 C 0,0 km/h (0 Bft)
04.10.2022 03:01 2,1 C 1,7 C 94 % 1025,8 hPa 0,0 l/m 0,0 km/h (0 Bft) N 0 0 min 0,0 UV-I 0 W/m 1,2 C 2,1 C 0,0 km/h (0 Bft)
04.10.2022 03:02 2,1 C 1,7 C 94 % 1025,8 hPa 0,0 l/m 0,0 km/h (0 Bft) N 0 0 min 0,0 UV-I 0 W/m 1,2 C 2,1 C 0,0 km/h (0 Bft)
04.10.2022 03:03 2,0 C 1,7 C 94 % 1025,7 hPa 0,0 l/m 0,0 km/h (0 Bft) N 0 0 min 0,0 UV-I 0 W/m 1,1 C 2,0 C 0,0 km/h (0 Bft)
04.10.2022 03:04 2,0 C 1,1 C 94 % 1025,8 hPa 0,0 l/m 0,0 km/h (0 Bft) N 0 0 min 0,0 UV-I 0 W/m 1,1 C 2,0 C 0,0 km/h (0 Bft)
04.10.2022 03:05 2,1 C 1,1 C 94 % 1025,9 hPa 0,0 l/m 0,0 km/h (0 Bft) N 0 0 min 0,0 UV-I 0 W/m 1,2 C 2,1 C 0,0 km/h (0 Bft)
04.10.2022 03:06 2,1 C 1,1 C 94 % 1025,8 hPa 0,0 l/m 0,0 km/h (0 Bft) N 0 0 min 0,0 UV-I 0 W/m 1,2 C 2,1 C 0,0 km/h (0 Bft)
04.10.2022 03:07 2,1 C 1,7 C 94 % 1025,9 hPa 0,0 l/m 0,0 km/h (0 Bft) N 0 0 min 0,0 UV-I 0 W/m 1,2 C 2,1 C 0,0 km/h (0 Bft)
04.10.2022 03:08 2,2 C 1,1 C 94 % 1025,9 hPa 0,0 l/m 0,0 km/h (0 Bft) N 0 0 min 0,0 UV-I 0 W/m 1,3 C 2,2 C 0,0 km/h (0 Bft)
04.10.2022 03:09 2,2 C 1,1 C 94 % 1025,9 hPa 0,0 l/m 1,6 km/h (1 Bft) O-NO 67 0 min 0,0 UV-I 0 W/m 1,3 C 2,2 C 3,2 km/h (1 Bft)
04.10.2022 03:10 2,3 C 1,7 C 94 % 1025,9 hPa 0,0 l/m 1,6 km/h (1 Bft) O-NO 67 0 min 0,0 UV-I 0 W/m 1,4 C 2,3 C 1,6 km/h (1 Bft)
04.10.2022 03:11 2,2 C 1,7 C 94 % 1025,8 hPa 0,0 l/m 0,0 km/h (0 Bft) O-NO 67 0 min 0,0 UV-I 0 W/m 1,3 C 2,2 C 1,6 km/h (1 Bft)
04.10.2022 03:12 2,2 C 1,1 C 94 % 1025,9 hPa 0,0 l/m 0,0 km/h (0 Bft) O-NO 67 0 min 0,0 UV-I 0 W/m 1,3 C 2,2 C 1,6 km/h (1 Bft)
04.10.2022 03:13 2,3 C 1,1 C 94 % 1025,9 hPa 0,0 l/m 0,0 km/h (0 Bft) N 0 0 min 0,0 UV-I 0 W/m 1,4 C 2,3 C 0,0 km/h (0 Bft)
04.10.2022 03:14 2,3 C 1,1 C 94 % 1025,9 hPa 0,0 l/m 0,0 km/h (0 Bft) N 0 0 min 0,0 UV-I 0 W/m 1,4 C 2,3 C 0,0 km/h (0 Bft)
04.10.2022 03:15 2,3 C 1,1 C 94 % 1025,9 hPa 0,0 l/m 0,0 km/h (0 Bft) N 0 0 min 0,0 UV-I 0 W/m 1,4 C 2,3 C 0,0 km/h (0 Bft)
04.10.2022 03:16 2,3 C 1,1 C 94 % 1025,8 hPa 0,0 l/m 0,0 km/h (0 Bft) N 0 0 min 0,0 UV-I 0 W/m 1,4 C 2,3 C 0,0 km/h (0 Bft)
04.10.2022 03:17 2,3 C 1,1 C 94 % 1025,8 hPa 0,0 l/m 0,0 km/h (0 Bft) N 0 0 min 0,0 UV-I 0 W/m 1,4 C 2,3 C 0,0 km/h (0 Bft)
04.10.2022 03:18 2,2 C 1,1 C 94 % 1025,8 hPa 0,0 l/m 0,0 km/h (0 Bft) N 0 0 min 0,0 UV-I 0 W/m 1,3 C 2,2 C 0,0 km/h (0 Bft)
04.10.2022 03:19 2,2 C 1,1 C 94 % 1025,8 hPa 0,0 l/m 0,0 km/h (0 Bft) N 0 0 min 0,0 UV-I 0 W/m 1,3 C 2,2 C 0,0 km/h (0 Bft)
04.10.2022 03:20 2,1 C 1,1 C 94 % 1025,8 hPa 0,0 l/m 0,0 km/h (0 Bft) N 0 0 min 0,0 UV-I 0 W/m 1,2 C 2,1 C 0,0 km/h (0 Bft)
04.10.2022 03:21 2,1 C 1,1 C 94 % 1025,8 hPa 0,0 l/m 0,0 km/h (0 Bft) N 0 0 min 0,0 UV-I 0 W/m 1,2 C 2,1 C 0,0 km/h (0 Bft)
04.10.2022 03:22 2,1 C 1,1 C 94 % 1025,7 hPa 0,0 l/m 3,2 km/h (1 Bft) O-NO 67 0 min 0,0 UV-I 0 W/m 1,2 C 2,1 C 3,2 km/h (1 Bft)
04.10.2022 03:23 2,2 C 1,1 C 94 % 1025,8 hPa 0,0 l/m 3,2 km/h (1 Bft) O-NO 67 0 min 0,0 UV-I 0 W/m 1,3 C 2,2 C 3,2 km/h (1 Bft)
04.10.2022 03:24 2,1 C 1,1 C 94 % 1025,8 hPa 0,0 l/m 3,2 km/h (1 Bft) O-NO 67 0 min 0,0 UV-I 0 W/m 1,2 C 2,1 C 4,8 km/h (1 Bft)
04.10.2022 03:25 2,1 C 1,1 C 94 % 1025,8 hPa 0,0 l/m 1,6 km/h (1 Bft) O-NO 67 0 min 0,0 UV-I 0 W/m 1,2 C 2,1 C 4,8 km/h (1 Bft)
04.10.2022 03:26 2,1 C 1,1 C 94 % 1025,8 hPa 0,0 l/m 3,2 km/h (1 Bft) O-NO 67 0 min 0,0 UV-I 0 W/m 1,2 C 2,1 C 4,8 km/h (1 Bft)
04.10.2022 03:27 2,1 C 1,1 C 94 % 1025,8 hPa 0,0 l/m 1,6 km/h (1 Bft) O-NO 67 0 min 0,0 UV-I 0 W/m 1,2 C 2,1 C 3,2 km/h (1 Bft)
04.10.2022 03:28 2,1 C 1,1 C 94 % 1025,8 hPa 0,0 l/m 1,6 km/h (1 Bft) O-NO 67 0 min 0,0 UV-I 0 W/m 1,2 C 2,1 C 3,2 km/h (1 Bft)
04.10.2022 03:29 2,2 C 1,1 C 94 % 1025,7 hPa 0,0 l/m 1,6 km/h (1 Bft) O-NO 67 0 min 0,0 UV-I 0 W/m 1,3 C 2,2 C 3,2 km/h (1 Bft)
04.10.2022 03:30 2,1 C 1,1 C 94 % 1025,7 hPa 0,0 l/m 1,6 km/h (1 Bft) O-NO 67 0 min 0,0 UV-I 0 W/m 1,2 C 2,1 C 1,6 km/h (1 Bft)
04.10.2022 03:31 2,1 C 1,1 C 94 % 1025,8 hPa 0,0 l/m 1,6 km/h (1 Bft) O-NO 67 0 min 0,0 UV-I 0 W/m 1,2 C 2,1 C 3,2 km/h (1 Bft)
04.10.2022 03:32 2,1 C 1,1 C 94 % 1025,7 hPa 0,0 l/m 1,6 km/h (1 Bft) O-NO 67 0 min 0,0 UV-I 0 W/m 1,2 C 2,1 C 3,2 km/h (1 Bft)
04.10.2022 03:33 2,2 C 1,7 C 94 % 1025,7 hPa 0,0 l/m 1,6 km/h (1 Bft) O-NO 67 0 min 0,0 UV-I 0 W/m 1,3 C 2,2 C 3,2 km/h (1 Bft)
04.10.2022 03:34 2,3 C 1,7 C 94 % 1025,7 hPa 0,0 l/m 1,6 km/h (1 Bft) O-NO 67 0 min 0,0 UV-I 0 W/m 1,4 C 2,3 C 3,2 km/h (1 Bft)
04.10.2022 03:35 2,4 C 1,7 C 94 % 1025,7 hPa 0,0 l/m 0,0 km/h (0 Bft) O-NO 67 0 min 0,0 UV-I 0 W/m 1,5 C 2,4 C 1,6 km/h (1 Bft)
04.10.2022 03:36 2,3 C 1,1 C 94 % 1025,7 hPa 0,0 l/m 1,6 km/h (1 Bft) O-NO 67 0 min 0,0 UV-I 0 W/m 1,4 C 2,3 C 3,2 km/h (1 Bft)
04.10.2022 03:37 2,3 C 1,1 C 94 % 1025,6 hPa 0,0 l/m 3,2 km/h (1 Bft) O-NO 67 0 min 0,0 UV-I 0 W/m 1,4 C 2,3 C 3,2 km/h (1 Bft)
04.10.2022 03:38 2,2 C 1,1 C 94 % 1025,6 hPa 0,0 l/m 1,6 km/h (1 Bft) O-NO 67 0 min 0,0 UV-I 0 W/m 1,3 C 2,2 C 3,2 km/h (1 Bft)
04.10.2022 03:39 2,1 C 1,7 C 94 % 1025,6 hPa 0,0 l/m 1,6 km/h (1 Bft) O-NO 67 0 min 0,0 UV-I 0 W/m 1,2 C 2,1 C 3,2 km/h (1 Bft)
04.10.2022 03:40 2,1 C 1,7 C 94 % 1025,7 hPa 0,0 l/m 0,0 km/h (0 Bft) N 0 0 min 0,0 UV-I 0 W/m 1,2 C 2,1 C 0,0 km/h (0 Bft)
04.10.2022 03:41 2,0 C 1,7 C 94 % 1025,6 hPa 0,0 l/m 0,0 km/h (0 Bft) N 0 0 min 0,0 UV-I 0 W/m 1,1 C 2,0 C 0,0 km/h (0 Bft)
04.10.2022 03:42 2,0 C 1,7 C 94 % 1025,5 hPa 0,0 l/m 0,0 km/h (0 Bft) N 0 0 min 0,0 UV-I 0 W/m 1,1 C 2,0 C 0,0 km/h (0 Bft)
04.10.2022 03:43 1,9 C 1,7 C 94 % 1025,5 hPa 0,0 l/m 0,0 km/h (0 Bft) N 0 0 min 0,0 UV-I 0 W/m 1,0 C 1,9 C 0,0 km/h (0 Bft)
04.10.2022 03:44 1,9 C 1,7 C 94 % 1025,6 hPa 0,0 l/m 0,0 km/h (0 Bft) N 0 0 min 0,0 UV-I 0 W/m 1,0 C 1,9 C 0,0 km/h (0 Bft)
04.10.2022 03:45 2,0 C 1,7 C 94 % 1025,5 hPa 0,0 l/m 0,0 km/h (0 Bft) O-NO 67 0 min 0,0 UV-I 0 W/m 1,1 C 2,0 C 1,6 km/h (1 Bft)
04.10.2022 03:46 2,1 C 1,7 C 94 % 1025,5 hPa 0,0 l/m 1,6 km/h (1 Bft) O-NO 67 0 min 0,0 UV-I 0 W/m 1,2 C 2,1 C 1,6 km/h (1 Bft)
04.10.2022 03:47 2,2 C 1,7 C 94 % 1025,6 hPa 0,0 l/m 1,6 km/h (1 Bft) O-NO 67 0 min 0,0 UV-I 0 W/m 1,3 C 2,2 C 3,2 km/h (1 Bft)
04.10.2022 03:48 2,2 C 2,2 C 94 % 1025,5 hPa 0,0 l/m 1,6 km/h (1 Bft) O-NO 67 0 min 0,0 UV-I 0 W/m 1,3 C 2,2 C 1,6 km/h (1 Bft)
04.10.2022 03:49 2,2 C 2,2 C 94 % 1025,5 hPa 0,0 l/m 0,0 km/h (0 Bft) O-NO 67 0 min 0,0 UV-I 0 W/m 1,3 C 2,2 C 1,6 km/h (1 Bft)
04.10.2022 03:50 2,2 C 2,2 C 94 % 1025,4 hPa 0,0 l/m 0,0 km/h (0 Bft) N 0 0 min 0,0 UV-I 0 W/m 1,3 C 2,2 C 0,0 km/h (0 Bft)
04.10.2022 03:51 2,2 C 2,2 C 94 % 1025,5 hPa 0,0 l/m 0,0 km/h (0 Bft) N 0 0 min 0,0 UV-I 0 W/m 1,3 C 2,2 C 0,0 km/h (0 Bft)
04.10.2022 03:52 2,2 C 2,2 C 94 % 1025,4 hPa 0,0 l/m 0,0 km/h (0 Bft) N 0 0 min 0,0 UV-I 0 W/m 1,3 C 2,2 C 0,0 km/h (0 Bft)
04.10.2022 03:53 2,2 C 2,2 C 94 % 1025,4 hPa 0,0 l/m 0,0 km/h (0 Bft) O-NO 67 0 min 0,0 UV-I 0 W/m 1,3 C 2,2 C 1,6 km/h (1 Bft)
04.10.2022 03:54 2,2 C 2,2 C 94 % 1025,5 hPa 0,0 l/m 0,0 km/h (0 Bft) O-NO 67 0 min 0,0 UV-I 0 W/m 1,3 C 2,2 C 1,6 km/h (1 Bft)
04.10.2022 03:55 2,2 C 2,8 C 94 % 1025,4 hPa 0,0 l/m 0,0 km/h (0 Bft) N 0 0 min 0,0 UV-I 0 W/m 1,3 C 2,2 C 0,0 km/h (0 Bft)
04.10.2022 03:56 2,2 C 2,8 C 94 % 1025,3 hPa 0,0 l/m 0,0 km/h (0 Bft) N 0 0 min 0,0 UV-I 0 W/m 1,3 C 2,2 C 0,0 km/h (0 Bft)
04.10.2022 03:57 2,2 C 2,2 C 94 % 1025,4 hPa 0,0 l/m 0,0 km/h (0 Bft) O-NO 67 0 min 0,0 UV-I 0 W/m 1,3 C 2,2 C 1,6 km/h (1 Bft)
04.10.2022 03:58 2,3 C 2,2 C 94 % 1025,4 hPa 0,0 l/m 0,0 km/h (0 Bft) O-NO 67 0 min 0,0 UV-I 0 W/m 1,4 C 2,3 C 1,6 km/h (1 Bft)
04.10.2022 03:59 2,3 C 2,8 C 94 % 1025,4 hPa 0,0 l/m 0,0 km/h (0 Bft) N 0 0 min 0,0 UV-I 0 W/m 1,4 C 2,3 C 0,0 km/h (0 Bft)
04.10.2022 04:00 2,3 C 2,2 C 94 % 1025,4 hPa 0,0 l/m 0,0 km/h (0 Bft) N 0 0 min 0,0 UV-I 0 W/m 1,4 C 2,3 C 0,0 km/h (0 Bft)
04.10.2022 04:01 2,4 C 2,2 C 94 % 1025,4 hPa 0,0 l/m 0,0 km/h (0 Bft) O-NO 67 0 min 0,0 UV-I 0 W/m 1,5 C 2,4 C 1,6 km/h (1 Bft)
04.10.2022 04:02 2,5 C 2,2 C 94 % 1025,5 hPa 0,0 l/m 0,0 km/h (0 Bft) N 0 0 min 0,0 UV-I 0 W/m 1,6 C 2,5 C 0,0 km/h (0 Bft)
04.10.2022 04:03 2,6 C 2,2 C 94 % 1025,4 hPa 0,0 l/m 0,0 km/h (0 Bft) N 0 0 min 0,0 UV-I 0 W/m 1,7 C 2,6 C 0,0 km/h (0 Bft)
04.10.2022 04:04 2,6 C 2,2 C 94 % 1025,4 hPa 0,0 l/m 0,0 km/h (0 Bft) N 0 0 min 0,0 UV-I 0 W/m 1,7 C 2,6 C 0,0 km/h (0 Bft)
04.10.2022 04:05 2,7 C 2,2 C 94 % 1025,5 hPa 0,0 l/m 0,0 km/h (0 Bft) N 0 0 min 0,0 UV-I 0 W/m 1,8 C 2,7 C 0,0 km/h (0 Bft)
04.10.2022 04:06 2,7 C 2,2 C 94 % 1025,3 hPa 0,0 l/m 0,0 km/h (0 Bft) N 0 0 min 0,0 UV-I 0 W/m 1,8 C 2,7 C 0,0 km/h (0 Bft)
04.10.2022 04:07 2,7 C 2,2 C 94 % 1025,3 hPa 0,0 l/m 0,0 km/h (0 Bft) N 0 0 min 0,0 UV-I 0 W/m 1,8 C 2,7 C 0,0 km/h (0 Bft)
04.10.2022 04:08 2,8 C 2,2 C 94 % 1025,4 hPa 0,0 l/m 0,0 km/h (0 Bft) N 0 0 min 0,0 UV-I 0 W/m 1,9 C 2,8 C 0,0 km/h (0 Bft)
04.10.2022 04:09 2,7 C 2,2 C 94 % 1025,3 hPa 0,0 l/m 0,0 km/h (0 Bft) N 0 0 min 0,0 UV-I 0 W/m 1,8 C 2,7 C 0,0 km/h (0 Bft)
04.10.2022 04:10 2,8 C 2,8 C 94 % 1025,4 hPa 0,0 l/m 0,0 km/h (0 Bft) N 0 0 min 0,0 UV-I 0 W/m 1,9 C 2,8 C 0,0 km/h (0 Bft)
04.10.2022 04:11 2,8 C 2,8 C 94 % 1025,3 hPa 0,0 l/m 0,0 km/h (0 Bft) N 0 0 min 0,0 UV-I 0 W/m 1,9 C 2,8 C 0,0 km/h (0 Bft)
04.10.2022 04:12 2,8 C 2,8 C 94 % 1025,4 hPa 0,0 l/m 0,0 km/h (0 Bft) N 0 0 min 0,0 UV-I 0 W/m 1,9 C 2,8 C 0,0 km/h (0 Bft)
04.10.2022 04:13 2,8 C 2,8 C 94 % 1025,4 hPa 0,0 l/m 0,0 km/h (0 Bft) N 0 0 min 0,0 UV-I 0 W/m 1,9 C 2,8 C 0,0 km/h (0 Bft)
04.10.2022 04:14 2,8 C 2,8 C 94 % 1025,3 hPa 0,0 l/m 0,0 km/h (0 Bft) N 0 0 min 0,0 UV-I 0 W/m 1,9 C 2,8 C 0,0 km/h (0 Bft)
04.10.2022 04:15 2,9 C 2,8 C 94 % 1025,3 hPa 0,0 l/m 0,0 km/h (0 Bft) O-NO 67 0 min 0,0 UV-I 0 W/m 2,0 C 2,9 C 1,6 km/h (1 Bft)
04.10.2022 04:16 2,9 C 3,3 C 94 % 1025,3 hPa 0,0 l/m 0,0 km/h (0 Bft) O-NO 67 0 min 0,0 UV-I 0 W/m 2,0 C 2,9 C 1,6 km/h (1 Bft)
04.10.2022 04:17 2,9 C 3,3 C 94 % 1025,4 hPa 0,0 l/m 0,0 km/h (0 Bft) N 0 0 min 0,0 UV-I 0 W/m 2,0 C 2,9 C 0,0 km/h (0 Bft)
04.10.2022 04:18 2,9 C 3,3 C 94 % 1025,4 hPa 0,0 l/m 0,0 km/h (0 Bft) N 0 0 min 0,0 UV-I 0 W/m 2,0 C 2,9 C 0,0 km/h (0 Bft)
04.10.2022 04:19 2,9 C 3,3 C 94 % 1025,3 hPa 0,0 l/m 0,0 km/h (0 Bft) O-NO 67 0 min 0,0 UV-I 0 W/m 2,0 C 2,9 C 1,6 km/h (1 Bft)
04.10.2022 04:20 2,9 C 3,3 C 94 % 1025,4 hPa 0,0 l/m 0,0 km/h (0 Bft) O-NO 67 0 min 0,0 UV-I 0 W/m 2,0 C 2,9 C 1,6 km/h (1 Bft)
04.10.2022 04:21 2,9 C 3,3 C 94 % 1025,4 hPa 0,0 l/m 0,0 km/h (0 Bft) N 0 0 min 0,0 UV-I 0 W/m 2,0 C 2,9 C 0,0 km/h (0 Bft)
04.10.2022 04:22 3,0 C 3,3 C 94 % 1025,4 hPa 0,0 l/m 0,0 km/h (0 Bft) N 0 0 min 0,0 UV-I 0 W/m 2,1 C 3,0 C 0,0 km/h (0 Bft)
04.10.2022 04:23 3,0 C 3,3 C 94 % 1025,3 hPa 0,0 l/m 0,0 km/h (0 Bft) N 0 0 min 0,0 UV-I 0 W/m 2,1 C 3,0 C 0,0 km/h (0 Bft)
04.10.2022 04:24 2,9 C 2,8 C 94 % 1025,3 hPa 0,0 l/m 0,0 km/h (0 Bft) N 0 0 min 0,0 UV-I 0 W/m 2,0 C 2,9 C 0,0 km/h (0 Bft)
04.10.2022 04:25 2,9 C 2,8 C 94 % 1025,3 hPa 0,0 l/m 0,0 km/h (0 Bft) N 0 0 min 0,0 UV-I 0 W/m 2,0 C 2,9 C 0,0 km/h (0 Bft)
04.10.2022 04:26 2,8 C 2,8 C 94 % 1025,3 hPa 0,0 l/m 0,0 km/h (0 Bft) N 0 0 min 0,0 UV-I 0 W/m 1,9 C 2,8 C 0,0 km/h (0 Bft)
04.10.2022 04:27 2,8 C 2,8 C 94 % 1025,3 hPa 0,0 l/m 0,0 km/h (0 Bft) N 0 0 min 0,0 UV-I 0 W/m 1,9 C 2,8 C 0,0 km/h (0 Bft)
04.10.2022 04:28 2,8 C 2,8 C 94 % 1025,3 hPa 0,0 l/m 0,0 km/h (0 Bft) N 0 0 min 0,0 UV-I 0 W/m 1,9 C 2,8 C 0,0 km/h (0 Bft)
04.10.2022 04:29 2,8 C 2,8 C 94 % 1025,4 hPa 0,0 l/m 0,0 km/h (0 Bft) N 0 0 min 0,0 UV-I 0 W/m 1,9 C 2,8 C 0,0 km/h (0 Bft)
04.10.2022 04:30 2,8 C 3,3 C 94 % 1025,3 hPa 0,0 l/m 0,0 km/h (0 Bft) N 0 0 min 0,0 UV-I 0 W/m 1,9 C 2,8 C 0,0 km/h (0 Bft)
04.10.2022 04:31 2,8 C 3,3 C 94 % 1025,3 hPa 0,0 l/m 0,0 km/h (0 Bft) N 0 0 min 0,0 UV-I 0 W/m 1,9 C 2,8 C 0,0 km/h (0 Bft)
04.10.2022 04:32 2,7 C 2,8 C 94 % 1025,3 hPa 0,0 l/m 0,0 km/h (0 Bft) N 0 0 min 0,0 UV-I 0 W/m 1,8 C 2,7 C 0,0 km/h (0 Bft)
04.10.2022 04:33 2,8 C 2,8 C 94 % 1025,3 hPa 0,0 l/m 0,0 km/h (0 Bft) N 0 0 min 0,0 UV-I 0 W/m 1,9 C 2,8 C 0,0 km/h (0 Bft)
04.10.2022 04:34 2,8 C 2,8 C 94 % 1025,3 hPa 0,0 l/m 0,0 km/h (0 Bft) O-NO 67 0 min 0,0 UV-I 0 W/m 1,9 C 2,8 C 1,6 km/h (1 Bft)
04.10.2022 04:35 2,8 C 2,8 C 94 % 1025,3 hPa 0,0 l/m 1,6 km/h (1 Bft) O-NO 67 0 min 0,0 UV-I 0 W/m 1,9 C 2,8 C 3,2 km/h (1 Bft)
04.10.2022 04:36 2,8 C 2,8 C 94 % 1025,3 hPa 0,0 l/m 1,6 km/h (1 Bft) O-NO 67 0 min 0,0 UV-I 0 W/m 1,9 C 2,8 C 1,6 km/h (1 Bft)
04.10.2022 04:37 2,8 C 2,2 C 94 % 1025,3 hPa 0,0 l/m 1,6 km/h (1 Bft) O-NO 67 0 min 0,0 UV-I 0 W/m 1,9 C 2,8 C 1,6 km/h (1 Bft)
04.10.2022 04:38 2,8 C 2,2 C 94 % 1025,4 hPa 0,0 l/m 1,6 km/h (1 Bft) O-NO 67 0 min 0,0 UV-I 0 W/m 1,9 C 2,8 C 1,6 km/h (1 Bft)
04.10.2022 04:39 2,8 C 2,2 C 94 % 1025,4 hPa 0,0 l/m 0,0 km/h (0 Bft) N 0 0 min 0,0 UV-I 0 W/m 1,9 C 2,8 C 0,0 km/h (0 Bft)
04.10.2022 04:40 2,8 C 2,2 C 94 % 1025,3 hPa 0,0 l/m 0,0 km/h (0 Bft) N 0 0 min 0,0 UV-I 0 W/m 1,9 C 2,8 C 0,0 km/h (0 Bft)
04.10.2022 04:41 2,8 C 2,2 C 94 % 1025,3 hPa 0,0 l/m 0,0 km/h (0 Bft) N 0 0 min 0,0 UV-I 0 W/m 1,9 C 2,8 C 0,0 km/h (0 Bft)
04.10.2022 04:42 2,8 C 2,2 C 94 % 1025,3 hPa 0,0 l/m 0,0 km/h (0 Bft) N 0 0 min 0,0 UV-I 0 W/m 1,9 C 2,8 C 0,0 km/h (0 Bft)
04.10.2022 04:43 2,7 C 2,2 C 94 % 1025,3 hPa 0,0 l/m 0,0 km/h (0 Bft) N 0 0 min 0,0 UV-I 0 W/m 1,8 C 2,7 C 0,0 km/h (0 Bft)
04.10.2022 04:44 2,7 C 2,2 C 94 % 1025,3 hPa 0,0 l/m 0,0 km/h (0 Bft) N 0 0 min 0,0 UV-I 0 W/m 1,8 C 2,7 C 0,0 km/h (0 Bft)
04.10.2022 04:45 2,7 C 2,2 C 94 % 1025,3 hPa 0,0 l/m 0,0 km/h (0 Bft) N 0 0 min 0,0 UV-I 0 W/m 1,8 C 2,7 C 0,0 km/h (0 Bft)
04.10.2022 04:46 2,7 C 2,2 C 94 % 1025,3 hPa 0,0 l/m 0,0 km/h (0 Bft) N 0 0 min 0,0 UV-I 0 W/m 1,8 C 2,7 C 0,0 km/h (0 Bft)
04.10.2022 04:47 2,7 C 2,2 C 94 % 1025,4 hPa 0,0 l/m 0,0 km/h (0 Bft) N 0 0 min 0,0 UV-I 0 W/m 1,8 C 2,7 C 0,0 km/h (0 Bft)
04.10.2022 04:48 2,7 C 2,2 C 94 % 1025,3 hPa 0,0 l/m 0,0 km/h (0 Bft) N 0 0 min 0,0 UV-I 0 W/m 1,8 C 2,7 C 0,0 km/h (0 Bft)
04.10.2022 04:49 2,7 C 2,2 C 94 % 1025,4 hPa 0,0 l/m 0,0 km/h (0 Bft) N 0 0 min 0,0 UV-I 0 W/m 1,8 C 2,7 C 0,0 km/h (0 Bft)
04.10.2022 04:50 2,7 C 2,2 C 94 % 1025,3 hPa 0,0 l/m 0,0 km/h (0 Bft) N 0 0 min 0,0 UV-I 0 W/m 1,8 C 2,7 C 0,0 km/h (0 Bft)
04.10.2022 04:51 2,7 C 2,2 C 94 % 1025,3 hPa 0,0 l/m 0,0 km/h (0 Bft) N 0 0 min 0,0 UV-I 0 W/m 1,8 C 2,7 C 0,0 km/h (0 Bft)
04.10.2022 04:52 2,7 C 2,2 C 94 % 1025,3 hPa 0,0 l/m 0,0 km/h (0 Bft) N 0 0 min 0,0 UV-I 0 W/m 1,8 C 2,7 C 0,0 km/h (0 Bft)
04.10.2022 04:53 2,6 C 2,2 C 94 % 1025,3 hPa 0,0 l/m 0,0 km/h (0 Bft) N 0 0 min 0,0 UV-I 0 W/m 1,7 C 2,6 C 0,0 km/h (0 Bft)
04.10.2022 04:54 2,6 C 2,2 C 94 % 1025,3 hPa 0,0 l/m 0,0 km/h (0 Bft) N 0 0 min 0,0 UV-I 0 W/m 1,7 C 2,6 C 0,0 km/h (0 Bft)
04.10.2022 04:55 2,6 C 1,7 C 94 % 1025,3 hPa 0,0 l/m 0,0 km/h (0 Bft) N 0 0 min 0,0 UV-I 0 W/m 1,7 C 2,6 C 0,0 km/h (0 Bft)
04.10.2022 04:56 2,7 C 1,7 C 94 % 1025,3 hPa 0,0 l/m 0,0 km/h (0 Bft) N 0 0 min 0,0 UV-I 0 W/m 1,8 C 2,7 C 0,0 km/h (0 Bft)
04.10.2022 04:57 2,8 C 1,7 C 94 % 1025,3 hPa 0,0 l/m 0,0 km/h (0 Bft) N 0 0 min 0,0 UV-I 0 W/m 1,9 C 2,8 C 0,0 km/h (0 Bft)
04.10.2022 04:58 2,8 C 1,7 C 94 % 1025,3 hPa 0,0 l/m 0,0 km/h (0 Bft) N 0 0 min 0,0 UV-I 0 W/m 1,9 C 2,8 C 0,0 km/h (0 Bft)
04.10.2022 04:59 2,8 C 1,7 C 94 % 1025,3 hPa 0,0 l/m 0,0 km/h (0 Bft) N 0 0 min 0,0 UV-I 0 W/m 1,9 C 2,8 C 0,0 km/h (0 Bft)
04.10.2022 05:00 2,8 C 1,7 C 94 % 1025,3 hPa 0,0 l/m 0,0 km/h (0 Bft) N 0 0 min 0,0 UV-I 0 W/m 1,9 C 2,8 C 0,0 km/h (0 Bft)
04.10.2022 05:01 2,9 C 1,7 C 94 % 1025,4 hPa 0,0 l/m 0,0 km/h (0 Bft) N 0 0 min 0,0 UV-I 0 W/m 2,0 C 2,9 C 0,0 km/h (0 Bft)
04.10.2022 05:02 3,0 C 1,7 C 94 % 1025,3 hPa 0,0 l/m 0,0 km/h (0 Bft) N 0 0 min 0,0 UV-I 0 W/m 2,1 C 3,0 C 0,0 km/h (0 Bft)
04.10.2022 05:03 3,0 C 1,7 C 94 % 1025,3 hPa 0,0 l/m 0,0 km/h (0 Bft) N 0 0 min 0,0 UV-I 0 W/m 2,1 C 3,0 C 0,0 km/h (0 Bft)
04.10.2022 05:04 3,1 C 1,7 C 94 % 1025,3 hPa 0,0 l/m 0,0 km/h (0 Bft) N 0 0 min 0,0 UV-I 0 W/m 2,2 C 3,1 C 0,0 km/h (0 Bft)
04.10.2022 05:05 3,2 C 1,7 C 94 % 1025,3 hPa 0,0 l/m 0,0 km/h (0 Bft) N 0 0 min 0,0 UV-I 0 W/m 2,3 C 3,2 C 0,0 km/h (0 Bft)
04.10.2022 05:06 3,1 C 1,7 C 94 % 1025,3 hPa 0,0 l/m 0,0 km/h (0 Bft) N 0 0 min 0,0 UV-I 0 W/m 2,2 C 3,1 C 0,0 km/h (0 Bft)
04.10.2022 05:07 3,1 C 1,7 C 94 % 1025,4 hPa 0,0 l/m 0,0 km/h (0 Bft) N 0 0 min 0,0 UV-I 0 W/m 2,2 C 3,1 C 0,0 km/h (0 Bft)
04.10.2022 05:08 2,9 C 1,7 C 94 % 1025,3 hPa 0,0 l/m 0,0 km/h (0 Bft) N 0 0 min 0,0 UV-I 0 W/m 2,0 C 2,9 C 0,0 km/h (0 Bft)
04.10.2022 05:09 2,9 C 1,7 C 94 % 1025,4 hPa 0,0 l/m 0,0 km/h (0 Bft) N 0 0 min 0,0 UV-I 0 W/m 2,0 C 2,9 C 0,0 km/h (0 Bft)
04.10.2022 05:10 2,8 C 1,7 C 94 % 1025,3 hPa 0,0 l/m 0,0 km/h (0 Bft) N 0 0 min 0,0 UV-I 0 W/m 1,9 C 2,8 C 0,0 km/h (0 Bft)
04.10.2022 05:11 2,7 C 1,7 C 94 % 1025,2 hPa 0,0 l/m 0,0 km/h (0 Bft) N 0 0 min 0,0 UV-I 0 W/m 1,8 C 2,7 C 0,0 km/h (0 Bft)
04.10.2022 05:12 2,6 C 1,7 C 94 % 1025,2 hPa 0,0 l/m 0,0 km/h (0 Bft) N 0 0 min 0,0 UV-I 0 W/m 1,7 C 2,6 C 0,0 km/h (0 Bft)
04.10.2022 05:13 2,6 C 1,7 C 94 % 1025,2 hPa 0,0 l/m 0,0 km/h (0 Bft) N 0 0 min 0,0 UV-I 0 W/m 1,7 C 2,6 C 0,0 km/h (0 Bft)
04.10.2022 05:14 2,5 C 1,7 C 94 % 1025,2 hPa 0,0 l/m 0,0 km/h (0 Bft) N 0 0 min 0,0 UV-I 0 W/m 1,6 C 2,5 C 0,0 km/h (0 Bft)
04.10.2022 05:15 2,5 C 1,7 C 94 % 1025,1 hPa 0,0 l/m 0,0 km/h (0 Bft) N 0 0 min 0,0 UV-I 0 W/m 1,6 C 2,5 C 0,0 km/h (0 Bft)
04.10.2022 05:16 2,5 C 1,7 C 94 % 1025,1 hPa 0,0 l/m 0,0 km/h (0 Bft) N 0 0 min 0,0 UV-I 0 W/m 1,6 C 2,5 C 0,0 km/h (0 Bft)
04.10.2022 05:17 2,5 C 1,7 C 94 % 1025,1 hPa 0,0 l/m 0,0 km/h (0 Bft) N 0 0 min 0,0 UV-I 0 W/m 1,6 C 2,5 C 0,0 km/h (0 Bft)
04.10.2022 05:18 2,5 C 1,7 C 94 % 1025,1 hPa 0,0 l/m 0,0 km/h (0 Bft) N 0 0 min 0,0 UV-I 0 W/m 1,6 C 2,5 C 0,0 km/h (0 Bft)
04.10.2022 05:19 2,5 C 1,7 C 94 % 1025,2 hPa 0,0 l/m 0,0 km/h (0 Bft) N 0 0 min 0,0 UV-I 0 W/m 1,6 C 2,5 C 0,0 km/h (0 Bft)
04.10.2022 05:20 2,5 C 1,7 C 94 % 1025,1 hPa 0,0 l/m 1,6 km/h (1 Bft) O-NO 67 0 min 0,0 UV-I 0 W/m 1,6 C 2,5 C 1,6 km/h (1 Bft)
04.10.2022 05:21 2,5 C 1,7 C 94 % 1025,1 hPa 0,0 l/m 1,6 km/h (1 Bft) O-NO 67 0 min 0,0 UV-I 0 W/m 1,6 C 2,5 C 1,6 km/h (1 Bft)
04.10.2022 05:22 2,5 C 1,7 C 94 % 1025,2 hPa 0,0 l/m 1,6 km/h (1 Bft) O-NO 67 0 min 0,0 UV-I 0 W/m 1,6 C 2,5 C 1,6 km/h (1 Bft)
04.10.2022 05:23 2,5 C 1,7 C 94 % 1025,1 hPa 0,0 l/m 1,6 km/h (1 Bft) O-NO 67 0 min 0,0 UV-I 0 W/m 1,6 C 2,5 C 3,2 km/h (1 Bft)
04.10.2022 05:24 2,6 C 1,1 C 94 % 1025,1 hPa 0,0 l/m 1,6 km/h (1 Bft) O-NO 67 0 min 0,0 UV-I 0 W/m 1,7 C 2,6 C 3,2 km/h (1 Bft)
04.10.2022 05:25 2,6 C 1,1 C 94 % 1025,2 hPa 0,0 l/m 1,6 km/h (1 Bft) O-NO 67 0 min 0,0 UV-I 0 W/m 1,7 C 2,6 C 1,6 km/h (1 Bft)
04.10.2022 05:26 2,7 C 1,1 C 94 % 1025,2 hPa 0,0 l/m 1,6 km/h (1 Bft) O-NO 67 0 min 0,0 UV-I 0 W/m 1,8 C 2,7 C 1,6 km/h (1 Bft)
04.10.2022 05:27 2,7 C 1,1 C 94 % 1025,2 hPa 0,0 l/m 0,0 km/h (0 Bft) N 0 0 min 0,0 UV-I 0 W/m 1,8 C 2,7 C 0,0 km/h (0 Bft)
04.10.2022 05:28 2,7 C 1,7 C 94 % 1025,2 hPa 0,0 l/m 0,0 km/h (0 Bft) N 0 0 min 0,0 UV-I 0 W/m 1,8 C 2,7 C 0,0 km/h (0 Bft)
04.10.2022 05:29 2,7 C 1,7 C 94 % 1025,2 hPa 0,0 l/m 0,0 km/h (0 Bft) N 0 0 min 0,0 UV-I 0 W/m 1,8 C 2,7 C 0,0 km/h (0 Bft)
04.10.2022 05:30 2,7 C 1,7 C 94 % 1025,2 hPa 0,0 l/m 0,0 km/h (0 Bft) N 0 0 min 0,0 UV-I 0 W/m 1,8 C 2,7 C 0,0 km/h (0 Bft)
04.10.2022 05:31 2,6 C 1,7 C 94 % 1025,3 hPa 0,0 l/m 0,0 km/h (0 Bft) N 0 0 min 0,0 UV-I 0 W/m 1,7 C 2,6 C 0,0 km/h (0 Bft)
04.10.2022 05:32 2,5 C 1,7 C 94 % 1025,2 hPa 0,0 l/m 0,0 km/h (0 Bft) N 0 0 min 0,0 UV-I 0 W/m 1,6 C 2,5 C 0,0 km/h (0 Bft)
04.10.2022 05:33 2,4 C 1,7 C 94 % 1025,2 hPa 0,0 l/m 0,0 km/h (0 Bft) N 0 0 min 0,0 UV-I 0 W/m 1,5 C 2,4 C 0,0 km/h (0 Bft)
04.10.2022 05:34 2,2 C 1,7 C 94 % 1025,1 hPa 0,0 l/m 0,0 km/h (0 Bft) N 0 0 min 0,0 UV-I 0 W/m 1,3 C 2,2 C 0,0 km/h (0 Bft)
04.10.2022 05:35 2,2 C 1,7 C 94 % 1025,1 hPa 0,0 l/m 0,0 km/h (0 Bft) N 0 0 min 0,0 UV-I 0 W/m 1,3 C 2,2 C 0,0 km/h (0 Bft)
04.10.2022 05:36 2,2 C 1,7 C 94 % 1025,1 hPa 0,0 l/m 0,0 km/h (0 Bft) N 0 0 min 0,0 UV-I 0 W/m 1,3 C 2,2 C 0,0 km/h (0 Bft)
04.10.2022 05:37 2,2 C 1,7 C 94 % 1025,1 hPa 0,0 l/m 0,0 km/h (0 Bft) N 0 0 min 0,0 UV-I 0 W/m 1,3 C 2,2 C 0,0 km/h (0 Bft)
04.10.2022 05:38 2,3 C 1,7 C 94 % 1025,1 hPa 0,0 l/m 0,0 km/h (0 Bft) N 0 0 min 0,0 UV-I 0 W/m 1,4 C 2,3 C 0,0 km/h (0 Bft)
04.10.2022 05:39 2,3 C 1,7 C 94 % 1025,1 hPa 0,0 l/m 0,0 km/h (0 Bft) N 0 0 min 0,0 UV-I 0 W/m 1,4 C 2,3 C 0,0 km/h (0 Bft)
04.10.2022 05:40 2,4 C 1,7 C 94 % 1025,0 hPa 0,0 l/m 0,0 km/h (0 Bft) N 0 0 min 0,0 UV-I 0 W/m 1,5 C 2,4 C 0,0 km/h (0 Bft)
04.10.2022 05:41 2,4 C 1,1 C 94 % 1025,0 hPa 0,0 l/m 0,0 km/h (0 Bft) N 0 0 min 0,0 UV-I 0 W/m 1,5 C 2,4 C 0,0 km/h (0 Bft)
04.10.2022 05:42 2,4 C 1,1 C 94 % 1024,9 hPa 0,0 l/m 0,0 km/h (0 Bft) N 0 0 min 0,0 UV-I 0 W/m 1,5 C 2,4 C 0,0 km/h (0 Bft)
04.10.2022 05:43 2,5 C 1,1 C 94 % 1025,0 hPa 0,0 l/m 0,0 km/h (0 Bft) N 0 0 min 0,0 UV-I 0 W/m 1,6 C 2,5 C 0,0 km/h (0 Bft)
04.10.2022 05:44 2,6 C 1,1 C 94 % 1024,9 hPa 0,0 l/m 0,0 km/h (0 Bft) N 0 0 min 0,0 UV-I 0 W/m 1,7 C 2,6 C 0,0 km/h (0 Bft)
04.10.2022 05:45 2,4 C 1,1 C 94 % 1024,9 hPa 0,0 l/m 0,0 km/h (0 Bft) N 0 0 min 0,0 UV-I 0 W/m 1,5 C 2,4 C 0,0 km/h (0 Bft)
04.10.2022 05:46 2,6 C 1,1 C 94 % 1025,0 hPa 0,0 l/m 0,0 km/h (0 Bft) N 0 0 min 0,0 UV-I 0 W/m 1,7 C 2,6 C 0,0 km/h (0 Bft)
04.10.2022 05:47 2,6 C 1,7 C 94 % 1024,9 hPa 0,0 l/m 0,0 km/h (0 Bft) N 0 0 min 0,0 UV-I 0 W/m 1,7 C 2,6 C 0,0 km/h (0 Bft)
04.10.2022 05:48 2,6 C 1,7 C 94 % 1024,9 hPa 0,0 l/m 0,0 km/h (0 Bft) N 0 0 min 0,0 UV-I 0 W/m 1,7 C 2,6 C 0,0 km/h (0 Bft)
04.10.2022 05:49 2,7 C 1,7 C 94 % 1024,9 hPa 0,0 l/m 0,0 km/h (0 Bft) N 0 0 min 0,0 UV-I 0 W/m 1,8 C 2,7 C 0,0 km/h (0 Bft)
04.10.2022 05:50 2,7 C 1,7 C 94 % 1024,9 hPa 0,0 l/m 0,0 km/h (0 Bft) N 0 0 min 0,0 UV-I 0 W/m 1,8 C 2,7 C 0,0 km/h (0 Bft)
04.10.2022 05:51 2,7 C 1,7 C 94 % 1024,8 hPa 0,0 l/m 0,0 km/h (0 Bft) N 0 0 min 0,0 UV-I 0 W/m 1,8 C 2,7 C 0,0 km/h (0 Bft)
04.10.2022 05:52 2,8 C 1,7 C 94 % 1024,8 hPa 0,0 l/m 0,0 km/h (0 Bft) N 0 0 min 0,0 UV-I 0 W/m 1,9 C 2,8 C 0,0 km/h (0 Bft)
04.10.2022 05:53 2,8 C 1,7 C 94 % 1024,8 hPa 0,0 l/m 0,0 km/h (0 Bft) N 0 0 min 0,0 UV-I 0 W/m 1,9 C 2,8 C 0,0 km/h (0 Bft)
04.10.2022 05:54 2,9 C 1,7 C 94 % 1024,9 hPa 0,0 l/m 0,0 km/h (0 Bft) N 0 0 min 0,0 UV-I 0 W/m 2,0 C 2,9 C 0,0 km/h (0 Bft)
04.10.2022 05:55 2,9 C 1,7 C 94 % 1024,9 hPa 0,0 l/m 0,0 km/h (0 Bft) N 0 0 min 0,0 UV-I 0 W/m 2,0 C 2,9 C 0,0 km/h (0 Bft)
04.10.2022 05:56 2,8 C 1,7 C 94 % 1024,8 hPa 0,0 l/m 0,0 km/h (0 Bft) N 0 0 min 0,0 UV-I 0 W/m 1,9 C 2,8 C 0,0 km/h (0 Bft)
04.10.2022 05:57 2,7 C 1,7 C 94 % 1024,8 hPa 0,0 l/m 0,0 km/h (0 Bft) N 0 0 min 0,0 UV-I 0 W/m 1,8 C 2,7 C 0,0 km/h (0 Bft)
04.10.2022 05:58 2,8 C 1,1 C 94 % 1024,8 hPa 0,0 l/m 0,0 km/h (0 Bft) N 0 0 min 0,0 UV-I 0 W/m 1,9 C 2,8 C 0,0 km/h (0 Bft)
04.10.2022 05:59 2,8 C 1,1 C 94 % 1024,9 hPa 0,0 l/m 0,0 km/h (0 Bft) N 0 0 min 0,0 UV-I 0 W/m 1,9 C 2,8 C 0,0 km/h (0 Bft)
04.10.2022 06:00 2,8 C 1,1 C 94 % 1024,9 hPa 0,0 l/m 0,0 km/h (0 Bft) N 0 0 min 0,0 UV-I 0 W/m 1,9 C 2,8 C 0,0 km/h (0 Bft)
04.10.2022 06:01 2,8 C 1,1 C 94 % 1024,8 hPa 0,0 l/m 0,0 km/h (0 Bft) N 0 0 min 0,0 UV-I 0 W/m 1,9 C 2,8 C 0,0 km/h (0 Bft)
04.10.2022 06:02 2,7 C 1,1 C 94 % 1024,8 hPa 0,0 l/m 0,0 km/h (0 Bft) N 0 0 min 0,0 UV-I 0 W/m 1,8 C 2,7 C 0,0 km/h (0 Bft)
04.10.2022 06:03 2,7 C 1,1 C 94 % 1024,8 hPa 0,0 l/m 0,0 km/h (0 Bft) N 0 0 min 0,0 UV-I 0 W/m 1,8 C 2,7 C 0,0 km/h (0 Bft)
04.10.2022 06:04 2,8 C 1,1 C 94 % 1024,7 hPa 0,0 l/m 0,0 km/h (0 Bft) N 0 0 min 0,0 UV-I 0 W/m 1,9 C 2,8 C 0,0 km/h (0 Bft)
04.10.2022 06:05 2,8 C 1,1 C 94 % 1024,7 hPa 0,0 l/m 0,0 km/h (0 Bft) N 0 0 min 0,0 UV-I 0 W/m 1,9 C 2,8 C 0,0 km/h (0 Bft)
04.10.2022 06:06 2,7 C 1,1 C 94 % 1024,6 hPa 0,0 l/m 0,0 km/h (0 Bft) N 0 0 min 0,0 UV-I 0 W/m 1,8 C 2,7 C 0,0 km/h (0 Bft)
04.10.2022 06:07 2,7 C 1,1 C 94 % 1024,8 hPa 0,0 l/m 0,0 km/h (0 Bft) N 0 0 min 0,0 UV-I 0 W/m 1,8 C 2,7 C 0,0 km/h (0 Bft)
04.10.2022 06:08 2,8 C 1,1 C 94 % 1024,7 hPa 0,0 l/m 0,0 km/h (0 Bft) N 0 0 min 0,0 UV-I 0 W/m 1,9 C 2,8 C 0,0 km/h (0 Bft)
04.10.2022 06:09 2,8 C 1,1 C 94 % 1024,7 hPa 0,0 l/m 0,0 km/h (0 Bft) N 0 0 min 0,0 UV-I 0 W/m 1,9 C 2,8 C 0,0 km/h (0 Bft)
04.10.2022 06:10 2,8 C 1,1 C 94 % 1024,7 hPa 0,0 l/m 0,0 km/h (0 Bft) N 0 0 min 0,0 UV-I 0 W/m 1,9 C 2,8 C 0,0 km/h (0 Bft)
04.10.2022 06:11 2,8 C 1,1 C 94 % 1024,7 hPa 0,0 l/m 0,0 km/h (0 Bft) N 0 0 min 0,0 UV-I 0 W/m 1,9 C 2,8 C 0,0 km/h (0 Bft)
04.10.2022 06:12 2,8 C 1,1 C 94 % 1024,7 hPa 0,0 l/m 0,0 km/h (0 Bft) N 0 0 min 0,0 UV-I 0 W/m 1,9 C 2,8 C 0,0 km/h (0 Bft)
04.10.2022 06:13 2,8 C 1,1 C 94 % 1024,7 hPa 0,0 l/m 0,0 km/h (0 Bft) N 0 0 min 0,0 UV-I 0 W/m 1,9 C 2,8 C 0,0 km/h (0 Bft)
04.10.2022 06:14 2,8 C 1,1 C 94 % 1024,7 hPa 0,0 l/m 0,0 km/h (0 Bft) N 0 0 min 0,0 UV-I 0 W/m 1,9 C 2,8 C 0,0 km/h (0 Bft)
04.10.2022 06:15 2,8 C 1,1 C 94 % 1024,6 hPa 0,0 l/m 0,0 km/h (0 Bft) N 0 0 min 0,0 UV-I 0 W/m 1,9 C 2,8 C 0,0 km/h (0 Bft)
04.10.2022 06:16 2,8 C 1,1 C 94 % 1024,6 hPa 0,0 l/m 0,0 km/h (0 Bft) N 0 0 min 0,0 UV-I 0 W/m 1,9 C 2,8 C 0,0 km/h (0 Bft)
04.10.2022 06:17 2,7 C 1,1 C 94 % 1024,7 hPa 0,0 l/m 0,0 km/h (0 Bft) N 0 0 min 0,0 UV-I 0 W/m 1,8 C 2,7 C 0,0 km/h (0 Bft)
04.10.2022 06:18 2,7 C 1,1 C 94 % 1024,7 hPa 0,0 l/m 0,0 km/h (0 Bft) N 0 0 min 0,0 UV-I 0 W/m 1,8 C 2,7 C 0,0 km/h (0 Bft)
04.10.2022 06:19 2,8 C 1,1 C 94 % 1024,7 hPa 0,0 l/m 0,0 km/h (0 Bft) N 0 0 min 0,0 UV-I 0 W/m 1,9 C 2,8 C 0,0 km/h (0 Bft)
04.10.2022 06:20 2,8 C 1,1 C 94 % 1024,6 hPa 0,0 l/m 0,0 km/h (0 Bft) N 0 0 min 0,0 UV-I 0 W/m 1,9 C 2,8 C 0,0 km/h (0 Bft)
04.10.2022 06:21 2,7 C 1,1 C 94 % 1024,6 hPa 0,0 l/m 0,0 km/h (0 Bft) N 0 0 min 0,0 UV-I 0 W/m 1,8 C 2,7 C 0,0 km/h (0 Bft)
04.10.2022 06:22 2,7 C 1,1 C 94 % 1024,6 hPa 0,0 l/m 0,0 km/h (0 Bft) N 0 0 min 0,0 UV-I 0 W/m 1,8 C 2,7 C 0,0 km/h (0 Bft)
04.10.2022 06:23 2,7 C 1,1 C 94 % 1024,7 hPa 0,0 l/m 0,0 km/h (0 Bft) N 0 0 min 0,0 UV-I 0 W/m 1,8 C 2,7 C 0,0 km/h (0 Bft)
04.10.2022 06:24 2,6 C 1,1 C 94 % 1024,7 hPa 0,0 l/m 0,0 km/h (0 Bft) N 0 0 min 0,0 UV-I 0 W/m 1,7 C 2,6 C 0,0 km/h (0 Bft)
04.10.2022 06:25 2,4 C 1,1 C 94 % 1024,6 hPa 0,0 l/m 0,0 km/h (0 Bft) N 0 0 min 0,0 UV-I 0 W/m 1,5 C 2,4 C 0,0 km/h (0 Bft)
04.10.2022 06:26 2,4 C 1,1 C 94 % 1024,6 hPa 0,0 l/m 0,0 km/h (0 Bft) N 0 0 min 0,0 UV-I 0 W/m 1,5 C 2,4 C 0,0 km/h (0 Bft)
04.10.2022 06:27 2,4 C 1,1 C 94 % 1024,6 hPa 0,0 l/m 0,0 km/h (0 Bft) N 0 0 min 0,0 UV-I 0 W/m 1,5 C 2,4 C 0,0 km/h (0 Bft)
04.10.2022 06:28 2,3 C 1,1 C 94 % 1024,6 hPa 0,0 l/m 0,0 km/h (0 Bft) N 0 0 min 0,0 UV-I 0 W/m 1,4 C 2,3 C 0,0 km/h (0 Bft)
04.10.2022 06:29 2,3 C 1,1 C 94 % 1024,6 hPa 0,0 l/m 0,0 km/h (0 Bft) N 0 0 min 0,0 UV-I 0 W/m 1,4 C 2,3 C 0,0 km/h (0 Bft)
04.10.2022 06:30 2,3 C 1,1 C 94 % 1024,6 hPa 0,0 l/m 0,0 km/h (0 Bft) N 0 0 min 0,0 UV-I 0 W/m 1,4 C 2,3 C 0,0 km/h (0 Bft)
04.10.2022 06:31 2,4 C 1,1 C 94 % 1024,6 hPa 0,0 l/m 0,0 km/h (0 Bft) N 0 0 min 0,0 UV-I 0 W/m 1,5 C 2,4 C 0,0 km/h (0 Bft)
04.10.2022 06:32 2,4 C 1,1 C 94 % 1024,5 hPa 0,0 l/m 0,0 km/h (0 Bft) N 0 0 min 0,0 UV-I 0 W/m 1,5 C 2,4 C 0,0 km/h (0 Bft)
04.10.2022 06:33 2,4 C 1,1 C 94 % 1024,6 hPa 0,0 l/m 0,0 km/h (0 Bft) N 0 0 min 0,0 UV-I 0 W/m 1,5 C 2,4 C 0,0 km/h (0 Bft)
04.10.2022 06:34 2,4 C 1,1 C 94 % 1024,5 hPa 0,0 l/m 0,0 km/h (0 Bft) N 0 0 min 0,0 UV-I 0 W/m 1,5 C 2,4 C 0,0 km/h (0 Bft)
04.10.2022 06:35 2,4 C 1,1 C 94 % 1024,5 hPa 0,0 l/m 0,0 km/h (0 Bft) N 0 0 min 0,0 UV-I 0 W/m 1,5 C 2,4 C 0,0 km/h (0 Bft)
04.10.2022 06:36 2,6 C 1,1 C 94 % 1024,6 hPa 0,0 l/m 0,0 km/h (0 Bft) N 0 0 min 0,0 UV-I 0 W/m 1,7 C 2,6 C 0,0 km/h (0 Bft)
04.10.2022 06:37 2,6 C 1,1 C 94 % 1024,5 hPa 0,0 l/m 0,0 km/h (0 Bft) N 0 0 min 0,0 UV-I 0 W/m 1,7 C 2,6 C 0,0 km/h (0 Bft)
04.10.2022 06:38 2,4 C 1,1 C 94 % 1024,6 hPa 0,0 l/m 0,0 km/h (0 Bft) N 0 0 min 0,0 UV-I 0 W/m 1,5 C 2,4 C 0,0 km/h (0 Bft)
04.10.2022 06:39 2,4 C 1,1 C 94 % 1024,6 hPa 0,0 l/m 0,0 km/h (0 Bft) N 0 0 min 0,0 UV-I 0 W/m 1,5 C 2,4 C 0,0 km/h (0 Bft)
04.10.2022 06:40 2,3 C 1,1 C 94 % 1024,6 hPa 0,0 l/m 0,0 km/h (0 Bft) N 0 0 min 0,0 UV-I 0 W/m 1,4 C 2,3 C 0,0 km/h (0 Bft)
04.10.2022 06:41 2,3 C 1,1 C 94 % 1024,6 hPa 0,0 l/m 0,0 km/h (0 Bft) N 0 0 min 0,0 UV-I 0 W/m 1,4 C 2,3 C 0,0 km/h (0 Bft)
04.10.2022 06:42 2,4 C 1,1 C 94 % 1024,6 hPa 0,0 l/m 0,0 km/h (0 Bft) N 0 0 min 0,0 UV-I 0 W/m 1,5 C 2,4 C 0,0 km/h (0 Bft)
04.10.2022 06:43 2,4 C 1,1 C 94 % 1024,6 hPa 0,0 l/m 0,0 km/h (0 Bft) N 0 0 min 0,0 UV-I 0 W/m 1,5 C 2,4 C 0,0 km/h (0 Bft)
04.10.2022 06:44 2,4 C 1,1 C 94 % 1024,6 hPa 0,0 l/m 0,0 km/h (0 Bft) N 0 0 min 0,0 UV-I 0 W/m 1,5 C 2,4 C 0,0 km/h (0 Bft)
04.10.2022 06:45 2,4 C 1,1 C 94 % 1024,6 hPa 0,0 l/m 0,0 km/h (0 Bft) N 0 0 min 0,0 UV-I 0 W/m 1,5 C 2,4 C 0,0 km/h (0 Bft)
04.10.2022 06:46 2,5 C 1,1 C 94 % 1024,6 hPa 0,0 l/m 0,0 km/h (0 Bft) N 0 0 min 0,0 UV-I 0 W/m 1,6 C 2,5 C 0,0 km/h (0 Bft)
04.10.2022 06:47 2,4 C 1,1 C 94 % 1024,6 hPa 0,0 l/m 0,0 km/h (0 Bft) N 0 0 min 0,0 UV-I 0 W/m 1,5 C 2,4 C 0,0 km/h (0 Bft)
04.10.2022 06:48 2,5 C 1,1 C 94 % 1024,7 hPa 0,0 l/m 0,0 km/h (0 Bft) N 0 0 min 0,0 UV-I 0 W/m 1,6 C 2,5 C 0,0 km/h (0 Bft)
04.10.2022 06:49 2,5 C 1,1 C 94 % 1024,6 hPa 0,0 l/m 0,0 km/h (0 Bft) N 0 0 min 0,0 UV-I 0 W/m 1,6 C 2,5 C 0,0 km/h (0 Bft)
04.10.2022 06:50 2,4 C 1,1 C 94 % 1024,7 hPa 0,0 l/m 0,0 km/h (0 Bft) N 0 0 min 0,0 UV-I 0 W/m 1,5 C 2,4 C 0,0 km/h (0 Bft)
04.10.2022 06:51 2,3 C 1,1 C 94 % 1024,6 hPa 0,0 l/m 0,0 km/h (0 Bft) N 0 0 min 0,0 UV-I 0 W/m 1,4 C 2,3 C 0,0 km/h (0 Bft)
04.10.2022 06:52 2,2 C 1,1 C 94 % 1024,7 hPa 0,0 l/m 0,0 km/h (0 Bft) N 0 0 min 0,0 UV-I 0 W/m 1,3 C 2,2 C 0,0 km/h (0 Bft)
04.10.2022 06:53 2,1 C 1,1 C 94 % 1024,7 hPa 0,0 l/m 0,0 km/h (0 Bft) N 0 0 min 0,0 UV-I 0 W/m 1,2 C 2,1 C 0,0 km/h (0 Bft)
04.10.2022 06:54 2,0 C 0,6 C 94 % 1024,7 hPa 0,0 l/m 0,0 km/h (0 Bft) N 0 0 min 0,0 UV-I 0 W/m 1,1 C 2,0 C 0,0 km/h (0 Bft)
04.10.2022 06:55 2,0 C 0,6 C 94 % 1024,7 hPa 0,0 l/m 0,0 km/h (0 Bft) N 0 0 min 0,0 UV-I 0 W/m 1,1 C 2,0 C 0,0 km/h (0 Bft)
04.10.2022 06:56 2,1 C 0,6 C 94 % 1024,7 hPa 0,0 l/m 0,0 km/h (0 Bft) N 0 0 min 0,0 UV-I 0 W/m 1,2 C 2,1 C 0,0 km/h (0 Bft)
04.10.2022 06:57 2,1 C 0,6 C 94 % 1024,8 hPa 0,0 l/m 0,0 km/h (0 Bft) N 0 0 min 0,0 UV-I 0 W/m 1,2 C 2,1 C 0,0 km/h (0 Bft)
04.10.2022 06:58 2,1 C 1,1 C 94 % 1024,7 hPa 0,0 l/m 0,0 km/h (0 Bft) N 0 0 min 0,0 UV-I 0 W/m 1,2 C 2,1 C 0,0 km/h (0 Bft)
04.10.2022 06:59 2,2 C 1,1 C 94 % 1024,7 hPa 0,0 l/m 0,0 km/h (0 Bft) N 0 0 min 0,0 UV-I 0 W/m 1,3 C 2,2 C 0,0 km/h (0 Bft)
04.10.2022 07:00 2,2 C 1,1 C 94 % 1024,8 hPa 0,0 l/m 0,0 km/h (0 Bft) N 0 0 min 0,0 UV-I 0 W/m 1,3 C 2,2 C 0,0 km/h (0 Bft)
04.10.2022 07:01 2,3 C 1,1 C 94 % 1024,9 hPa 0,0 l/m 0,0 km/h (0 Bft) N 0 0 min 0,0 UV-I 0 W/m 1,4 C 2,3 C 0,0 km/h (0 Bft)
04.10.2022 07:02 2,3 C 1,1 C 94 % 1024,8 hPa 0,0 l/m 0,0 km/h (0 Bft) N 0 0 min 0,0 UV-I 0 W/m 1,4 C 2,3 C 0,0 km/h (0 Bft)
04.10.2022 07:03 2,3 C 1,1 C 94 % 1024,8 hPa 0,0 l/m 0,0 km/h (0 Bft) N 0 0 min 0,0 UV-I 0 W/m 1,4 C 2,3 C 0,0 km/h (0 Bft)
04.10.2022 07:04 2,3 C 1,1 C 94 % 1024,9 hPa 0,0 l/m 0,0 km/h (0 Bft) N 0 0 min 0,0 UV-I 0 W/m 1,4 C 2,3 C 0,0 km/h (0 Bft)
04.10.2022 07:05 2,3 C 1,1 C 94 % 1024,9 hPa 0,0 l/m 0,0 km/h (0 Bft) N 0 0 min 0,0 UV-I 0 W/m 1,4 C 2,3 C 0,0 km/h (0 Bft)
04.10.2022 07:06 2,3 C 1,1 C 94 % 1024,8 hPa 0,0 l/m 1,6 km/h (1 Bft) O-NO 67 0 min 0,0 UV-I 0 W/m 1,4 C 2,3 C 3,2 km/h (1 Bft)
04.10.2022 07:07 2,3 C 1,1 C 94 % 1024,9 hPa 0,0 l/m 3,2 km/h (1 Bft) O-NO 67 0 min 0,0 UV-I 0 W/m 1,4 C 2,3 C 3,2 km/h (1 Bft)
04.10.2022 07:08 2,3 C 1,1 C 94 % 1024,8 hPa 0,0 l/m 3,2 km/h (1 Bft) O-NO 67 0 min 0,0 UV-I 0 W/m 1,4 C 2,3 C 4,8 km/h (1 Bft)
04.10.2022 07:09 2,4 C 1,1 C 94 % 1024,9 hPa 0,0 l/m 3,2 km/h (1 Bft) O-NO 67 0 min 0,0 UV-I 0 W/m 1,5 C 2,4 C 4,8 km/h (1 Bft)
04.10.2022 07:10 2,4 C 1,1 C 94 % 1024,9 hPa 0,0 l/m 3,2 km/h (1 Bft) O-NO 67 0 min 0,0 UV-I 0 W/m 1,5 C 2,4 C 4,8 km/h (1 Bft)
04.10.2022 07:11 2,4 C 1,1 C 94 % 1024,9 hPa 0,0 l/m 3,2 km/h (1 Bft) O-NO 67 0 min 0,0 UV-I 0 W/m 1,5 C 2,4 C 4,8 km/h (1 Bft)
04.10.2022 07:12 2,5 C 1,1 C 94 % 1024,9 hPa 0,0 l/m 1,6 km/h (1 Bft) O-NO 67 0 min 0,0 UV-I 0 W/m 1,6 C 2,5 C 3,2 km/h (1 Bft)
04.10.2022 07:13 2,4 C 1,1 C 94 % 1024,9 hPa 0,0 l/m 1,6 km/h (1 Bft) O-NO 67 0 min 0,0 UV-I 0 W/m 1,5 C 2,4 C 3,2 km/h (1 Bft)
04.10.2022 07:14 2,3 C 1,1 C 94 % 1024,9 hPa 0,0 l/m 0,0 km/h (0 Bft) N 0 0 min 0,0 UV-I 0 W/m 1,4 C 2,3 C 0,0 km/h (0 Bft)
04.10.2022 07:15 2,2 C 1,1 C 94 % 1024,9 hPa 0,0 l/m 0,0 km/h (0 Bft) N 0 0 min 0,0 UV-I 0 W/m 1,3 C 2,2 C 0,0 km/h (0 Bft)
04.10.2022 07:16 2,1 C 1,1 C 94 % 1024,9 hPa 0,0 l/m 0,0 km/h (0 Bft) N 0 0 min 0,0 UV-I 0 W/m 1,2 C 2,1 C 0,0 km/h (0 Bft)
04.10.2022 07:17 1,9 C 1,1 C 94 % 1024,8 hPa 0,0 l/m 0,0 km/h (0 Bft) N 0 0 min 0,0 UV-I 0 W/m 1,0 C 1,9 C 0,0 km/h (0 Bft)
04.10.2022 07:18 1,8 C 1,1 C 94 % 1024,8 hPa 0,0 l/m 0,0 km/h (0 Bft) N 0 0 min 0,0 UV-I 0 W/m 0,9 C 1,8 C 0,0 km/h (0 Bft)
04.10.2022 07:19 1,8 C 1,1 C 94 % 1024,8 hPa 0,0 l/m 0,0 km/h (0 Bft) N 0 0 min 0,0 UV-I 0 W/m 0,9 C 1,8 C 0,0 km/h (0 Bft)
04.10.2022 07:20 1,8 C 1,1 C 94 % 1024,8 hPa 0,0 l/m 0,0 km/h (0 Bft) N 0 0 min 0,0 UV-I 0 W/m 0,9 C 1,8 C 0,0 km/h (0 Bft)
04.10.2022 07:21 1,8 C 1,1 C 94 % 1024,8 hPa 0,0 l/m 0,0 km/h (0 Bft) N 0 0 min 0,0 UV-I 0 W/m 0,9 C 1,8 C 0,0 km/h (0 Bft)
04.10.2022 07:22 1,8 C 1,1 C 94 % 1024,7 hPa 0,0 l/m 0,0 km/h (0 Bft) O-NO 67 0 min 0,0 UV-I 0 W/m 0,9 C 1,8 C 1,6 km/h (1 Bft)
04.10.2022 07:23 1,8 C 0,6 C 94 % 1024,8 hPa 0,0 l/m 1,6 km/h (1 Bft) O-NO 67 0 min 0,0 UV-I 0 W/m 0,9 C 1,8 C 1,6 km/h (1 Bft)
04.10.2022 07:24 1,9 C 0,6 C 94 % 1024,8 hPa 0,0 l/m 1,6 km/h (1 Bft) O-NO 67 0 min 0,0 UV-I 0 W/m 1,0 C 1,9 C 3,2 km/h (1 Bft)
04.10.2022 07:25 2,1 C 0,6 C 94 % 1024,7 hPa 0,0 l/m 3,2 km/h (1 Bft) O-NO 67 0 min 0,0 UV-I 0 W/m 1,2 C 2,1 C 3,2 km/h (1 Bft)
04.10.2022 07:26 2,1 C 0,6 C 94 % 1024,7 hPa 0,0 l/m 3,2 km/h (1 Bft) O-NO 67 0 min 0,0 UV-I 0 W/m 1,2 C 2,1 C 4,8 km/h (1 Bft)
04.10.2022 07:27 2,2 C 0,6 C 94 % 1024,7 hPa 0,0 l/m 3,2 km/h (1 Bft) O-NO 67 0 min 0,0 UV-I 0 W/m 1,3 C 2,2 C 3,2 km/h (1 Bft)
04.10.2022 07:28 2,3 C 1,1 C 94 % 1024,7 hPa 0,0 l/m 1,6 km/h (1 Bft) O-NO 67 0 min 0,0 UV-I 0 W/m 1,4 C 2,3 C 3,2 km/h (1 Bft)
04.10.2022 07:29 2,3 C 1,1 C 94 % 1024,7 hPa 0,0 l/m 1,6 km/h (1 Bft) O-NO 67 0 min 0,0 UV-I 0 W/m 1,4 C 2,3 C 3,2 km/h (1 Bft)
04.10.2022 07:30 2,2 C 1,1 C 94 % 1024,7 hPa 0,0 l/m 1,6 km/h (1 Bft) O-NO 67 0 min 0,0 UV-I 0 W/m 1,3 C 2,2 C 3,2 km/h (1 Bft)
04.10.2022 07:31 2,2 C 1,1 C 94 % 1024,6 hPa 0,0 l/m 1,6 km/h (1 Bft) O-NO 67 0 min 0,0 UV-I 0 W/m 1,3 C 2,2 C 3,2 km/h (1 Bft)
04.10.2022 07:32 2,1 C 1,1 C 94 % 1024,6 hPa 0,0 l/m 1,6 km/h (1 Bft) O-NO 67 0 min 0,0 UV-I 0 W/m 1,2 C 2,1 C 1,6 km/h (1 Bft)
04.10.2022 07:33 2,1 C 1,1 C 94 % 1024,7 hPa 0,0 l/m 1,6 km/h (1 Bft) O-NO 67 0 min 0,0 UV-I 0 W/m 1,2 C 2,1 C 1,6 km/h (1 Bft)
04.10.2022 07:34 2,2 C 1,1 C 94 % 1024,6 hPa 0,0 l/m 1,6 km/h (1 Bft) O-NO 67 0 min 0,0 UV-I 0 W/m 1,3 C 2,2 C 1,6 km/h (1 Bft)
04.10.2022 07:35 2,2 C 1,1 C 94 % 1024,7 hPa 0,0 l/m 0,0 km/h (0 Bft) O-NO 67 0 min 0,0 UV-I 0 W/m 1,3 C 2,2 C 1,6 km/h (1 Bft)
04.10.2022 07:36 2,2 C 1,1 C 94 % 1024,7 hPa 0,0 l/m 0,0 km/h (0 Bft) N 0 0 min 0,0 UV-I 0 W/m 1,3 C 2,2 C 0,0 km/h (0 Bft)
04.10.2022 07:37 2,3 C 1,1 C 94 % 1024,6 hPa 0,0 l/m 0,0 km/h (0 Bft) N 0 0 min 0,0 UV-I 0 W/m 1,4 C 2,3 C 0,0 km/h (0 Bft)
04.10.2022 07:38 2,3 C 1,1 C 94 % 1024,6 hPa 0,0 l/m 0,0 km/h (0 Bft) O-NO 67 0 min 0,0 UV-I 0 W/m 1,4 C 2,3 C 1,6 km/h (1 Bft)
04.10.2022 07:39 2,4 C 1,1 C 94 % 1024,6 hPa 0,0 l/m 0,0 km/h (0 Bft) N 0 0 min 0,0 UV-I 0 W/m 1,5 C 2,4 C 0,0 km/h (0 Bft)
04.10.2022 07:40 2,4 C 1,1 C 94 % 1024,5 hPa 0,0 l/m 0,0 km/h (0 Bft) N 0 0 min 0,0 UV-I 0 W/m 1,5 C 2,4 C 0,0 km/h (0 Bft)
04.10.2022 07:41 2,4 C 1,1 C 94 % 1024,6 hPa 0,0 l/m 0,0 km/h (0 Bft) N 0 0 min 0,0 UV-I 0 W/m 1,5 C 2,4 C 0,0 km/h (0 Bft)
04.10.2022 07:42 2,4 C 1,1 C 94 % 1024,6 hPa 0,0 l/m 0,0 km/h (0 Bft) N 0 0 min 0,0 UV-I 0 W/m 1,5 C 2,4 C 0,0 km/h (0 Bft)
04.10.2022 07:43 2,4 C 1,1 C 94 % 1024,5 hPa 0,0 l/m 0,0 km/h (0 Bft) N 0 0 min 0,0 UV-I 0 W/m 1,5 C 2,4 C 0,0 km/h (0 Bft)
04.10.2022 07:44 2,5 C 1,1 C 94 % 1024,5 hPa 0,0 l/m 0,0 km/h (0 Bft) N 0 0 min 0,0 UV-I 0 W/m 1,6 C 2,5 C 0,0 km/h (0 Bft)
04.10.2022 07:45 2,4 C 1,1 C 94 % 1024,5 hPa 0,0 l/m 0,0 km/h (0 Bft) N 0 0 min 0,0 UV-I 0 W/m 1,5 C 2,4 C 0,0 km/h (0 Bft)
04.10.2022 07:46 2,4 C 1,1 C 94 % 1024,4 hPa 0,0 l/m 0,0 km/h (0 Bft) N 0 0 min 0,0 UV-I 0 W/m 1,5 C 2,4 C 0,0 km/h (0 Bft)
04.10.2022 07:51 2,7 C 1,1 C 94 % 1024,4 hPa 0,0 l/m 0,0 km/h (0 Bft) O-NO 63 0 min 0,0 UV-I 6 W/m 1,8 C 2,7 C 0,0 km/h (0 Bft)
04.10.2022 07:54 2,8 C 1,1 C 95 % 1024,5 hPa 0,0 l/m 0,0 km/h (0 Bft) O-NO 63 0 min 0,0 UV-I 8 W/m 2,1 C 2,8 C 0,0 km/h (0 Bft)
04.10.2022 07:57 2,3 C 0,6 C 94 % 1024,4 hPa 0,0 l/m 0,0 km/h (0 Bft) O-NO 63 0 min 0,0 UV-I 11 W/m 1,4 C 2,3 C 0,0 km/h (0 Bft)
04.10.2022 08:00 1,7 C 0,6 C 94 % 1024,5 hPa 0,0 l/m 1,1 km/h (1 Bft) O-NO 63 0 min 0,0 UV-I 12 W/m 0,8 C 1,7 C 1,6 km/h (1 Bft)
04.10.2022 08:03 1,4 C 0,6 C 94 % 1024,5 hPa 0,0 l/m 0,2 km/h (0 Bft) O-NO 63 0 min 0,0 UV-I 14 W/m 0,5 C 1,4 C 1,6 km/h (1 Bft)
04.10.2022 08:06 1,6 C 0,6 C 94 % 1024,4 hPa 0,0 l/m 1,4 km/h (1 Bft) O-NO 63 0 min 0,0 UV-I 16 W/m 0,7 C 1,6 C 3,2 km/h (1 Bft)
04.10.2022 08:09 1,9 C 1,1 C 94 % 1024,4 hPa 0,0 l/m 1,3 km/h (1 Bft) O-NO 63 0 min 0,0 UV-I 18 W/m 1,0 C 1,9 C 1,6 km/h (1 Bft)
04.10.2022 08:12 1,9 C 1,1 C 94 % 1024,4 hPa 0,0 l/m 1,0 km/h (0 Bft) O-NO 63 0 min 0,0 UV-I 20 W/m 1,0 C 1,9 C 3,2 km/h (1 Bft)
04.10.2022 08:15 2,1 C 1,1 C 94 % 1024,4 hPa 0,0 l/m 2,1 km/h (1 Bft) O-NO 63 0 min 0,0 UV-I 22 W/m 1,2 C 2,1 C 3,2 km/h (1 Bft)
04.10.2022 08:18 2,1 C 1,7 C 94 % 1024,4 hPa 0,0 l/m 0,1 km/h (0 Bft) O-NO 63 0 min 0,0 UV-I 24 W/m 1,2 C 2,1 C 1,6 km/h (1 Bft)
04.10.2022 08:21 2,1 C 1,7 C 94 % 1024,5 hPa 0,0 l/m 1,7 km/h (1 Bft) O-NO 63 0 min 0,0 UV-I 25 W/m 1,2 C 2,1 C 3,2 km/h (1 Bft)
04.10.2022 08:24 2,3 C 1,7 C 94 % 1024,5 hPa 0,0 l/m 2,7 km/h (1 Bft) O-NO 63 0 min 0,0 UV-I 29 W/m 1,4 C 2,3 C 3,2 km/h (1 Bft)
04.10.2022 08:27 2,4 C 2,2 C 94 % 1024,4 hPa 0,0 l/m 2,8 km/h (1 Bft) O-NO 63 0 min 0,0 UV-I 33 W/m 1,5 C 2,4 C 4,8 km/h (1 Bft)
04.10.2022 08:30 2,5 C 2,2 C 94 % 1024,5 hPa 0,0 l/m 2,0 km/h (1 Bft) O-NO 63 0 min 0,0 UV-I 34 W/m 1,6 C 2,5 C 3,2 km/h (1 Bft)
04.10.2022 08:33 2,4 C 2,8 C 94 % 1024,5 hPa 0,0 l/m 0,4 km/h (0 Bft) O-NO 63 0 min 0,0 UV-I 35 W/m 1,5 C 2,4 C 1,6 km/h (1 Bft)
04.10.2022 08:36 2,3 C 2,8 C 94 % 1024,4 hPa 0,0 l/m 0,0 km/h (0 Bft) O-NO 63 0 min 0,0 UV-I 37 W/m 1,4 C 2,3 C 0,0 km/h (0 Bft)
04.10.2022 08:39 2,3 C 2,8 C 94 % 1024,4 hPa 0,0 l/m 0,0 km/h (0 Bft) O-NO 63 0 min 0,0 UV-I 38 W/m 1,4 C 2,3 C 0,0 km/h (0 Bft)
04.10.2022 08:42 2,4 C 2,2 C 94 % 1024,5 hPa 0,0 l/m 0,0 km/h (0 Bft) O-NO 63 0 min 0,0 UV-I 38 W/m 1,5 C 2,4 C 0,0 km/h (0 Bft)
04.10.2022 08:45 2,4 C 2,2 C 94 % 1024,6 hPa 0,0 l/m 0,0 km/h (0 Bft) O-NO 63 0 min 0,0 UV-I 36 W/m 1,5 C 2,4 C 0,0 km/h (0 Bft)
04.10.2022 08:48 2,4 C 2,2 C 94 % 1024,6 hPa 0,0 l/m 0,0 km/h (0 Bft) O-NO 63 0 min 0,0 UV-I 36 W/m 1,5 C 2,4 C 0,0 km/h (0 Bft)
04.10.2022 08:51 2,4 C 2,2 C 94 % 1024,6 hPa 0,0 l/m 0,0 km/h (0 Bft) O-NO 63 0 min 0,0 UV-I 37 W/m 1,5 C 2,4 C 0,0 km/h (0 Bft)
04.10.2022 08:54 2,4 C 2,2 C 94 % 1024,5 hPa 0,0 l/m 1,9 km/h (1 Bft) O-NO 63 0 min 0,0 UV-I 40 W/m 1,5 C 2,4 C 3,2 km/h (1 Bft)
04.10.2022 08:57 2,6 C 2,2 C 94 % 1024,5 hPa 0,0 l/m 3,0 km/h (1 Bft) O-NO 63 0 min 0,0 UV-I 43 W/m 1,7 C 2,6 C 4,8 km/h (1 Bft)
04.10.2022 09:00 2,8 C 2,8 C 94 % 1024,5 hPa 0,0 l/m 1,3 km/h (1 Bft) O-NO 63 0 min 0,0 UV-I 48 W/m 1,9 C 2,8 C 3,2 km/h (1 Bft)
04.10.2022 09:03 2,9 C 2,8 C 95 % 1024,4 hPa 0,0 l/m 1,6 km/h (1 Bft) O-NO 63 0 min 0,0 UV-I 54 W/m 2,2 C 2,9 C 3,2 km/h (1 Bft)
04.10.2022 09:06 3,4 C 3,3 C 95 % 1024,5 hPa 0,0 l/m 2,0 km/h (1 Bft) O-NO 63 0 min 0,0 UV-I 72 W/m 2,7 C 3,4 C 3,2 km/h (1 Bft)
04.10.2022 09:09 3,8 C 3,9 C 95 % 1024,4 hPa 0,0 l/m 1,3 km/h (1 Bft) O-NO 63 0 min 0,2 UV-I 67 W/m 3,1 C 3,8 C 3,2 km/h (1 Bft)
04.10.2022 09:12 3,9 C 4,4 C 95 % 1024,4 hPa 0,0 l/m 1,2 km/h (1 Bft) O-NO 63 0 min 0,5 UV-I 69 W/m 3,2 C 3,9 C 1,6 km/h (1 Bft)
04.10.2022 09:15 4,3 C 4,4 C 95 % 1024,4 hPa 0,0 l/m 0,1 km/h (0 Bft) O-NO 63 0 min 0,5 UV-I 85 W/m 3,6 C 4,3 C 1,6 km/h (1 Bft)
04.10.2022 09:18 4,7 C 5,0 C 95 % 1024,4 hPa 0,0 l/m 0,0 km/h (0 Bft) O-NO 63 0 min 0,5 UV-I 78 W/m 4,0 C 4,7 C 1,6 km/h (1 Bft)
04.10.2022 09:21 4,9 C 5,0 C 95 % 1024,4 hPa 0,0 l/m 0,0 km/h (0 Bft) O-NO 63 0 min 0,5 UV-I 78 W/m 4,2 C 4,9 C 0,0 km/h (0 Bft)
04.10.2022 09:24 5,3 C 5,6 C 95 % 1024,4 hPa 0,0 l/m 0,1 km/h (0 Bft) O-NO 63 0 min 0,5 UV-I 69 W/m 4,6 C 5,3 C 1,6 km/h (1 Bft)
04.10.2022 09:27 5,4 C 5,6 C 95 % 1024,4 hPa 0,0 l/m 0,0 km/h (0 Bft) O-NO 63 0 min 0,5 UV-I 70 W/m 4,7 C 5,4 C 1,6 km/h (1 Bft)
04.10.2022 09:30 5,6 C 5,6 C 95 % 1024,3 hPa 0,0 l/m 0,0 km/h (0 Bft) O-NO 63 0 min 0,6 UV-I 69 W/m 4,9 C 5,6 C 0,0 km/h (0 Bft)
04.10.2022 09:33 5,8 C 6,1 C 95 % 1024,5 hPa 0,0 l/m 0,0 km/h (0 Bft) O-NO 63 0 min 0,5 UV-I 70 W/m 5,1 C 5,8 C 0,0 km/h (0 Bft)
04.10.2022 09:36 6,1 C 6,1 C 95 % 1024,5 hPa 0,0 l/m 0,0 km/h (0 Bft) O-NO 63 0 min 0,6 UV-I 80 W/m 5,4 C 6,1 C 1,6 km/h (1 Bft)
04.10.2022 09:39 6,1 C 6,1 C 95 % 1024,5 hPa 0,0 l/m 0,0 km/h (0 Bft) O-NO 63 0 min 0,6 UV-I 96 W/m 5,4 C 6,1 C 0,0 km/h (0 Bft)
04.10.2022 09:42 6,3 C 6,1 C 95 % 1024,5 hPa 0,0 l/m 0,0 km/h (0 Bft) O-NO 63 0 min 0,7 UV-I 116 W/m 5,6 C 6,3 C 0,0 km/h (0 Bft)
04.10.2022 09:45 6,4 C 6,7 C 95 % 1024,4 hPa 0,0 l/m 0,0 km/h (0 Bft) O-NO 64 0 min 0,7 UV-I 110 W/m 5,7 C 6,4 C 0,0 km/h (0 Bft)
04.10.2022 09:48 6,8 C 6,7 C 95 % 1024,6 hPa 0,0 l/m 0,0 km/h (0 Bft) O-NO 64 0 min 0,8 UV-I 180 W/m 6,1 C 6,8 C 0,0 km/h (0 Bft)
04.10.2022 09:51 6,9 C 7,2 C 95 % 1024,5 hPa 0,0 l/m 0,0 km/h (0 Bft) O-NO 64 0 min 0,9 UV-I 200 W/m 6,2 C 6,9 C 0,0 km/h (0 Bft)
04.10.2022 09:54 7,1 C 7,2 C 95 % 1024,6 hPa 0,0 l/m 0,5 km/h (0 Bft) O-NO 64 0 min 0,8 UV-I 168 W/m 6,4 C 7,1 C 1,6 km/h (1 Bft)
04.10.2022 09:57 7,1 C 7,2 C 95 % 1024,5 hPa 0,0 l/m 0,0 km/h (0 Bft) O-NO 64 0 min 0,8 UV-I 115 W/m 6,4 C 7,1 C 1,6 km/h (1 Bft)
04.10.2022 10:00 7,2 C 7,2 C 95 % 1024,5 hPa 0,0 l/m 0,0 km/h (0 Bft) O-NO 64 0 min 0,8 UV-I 102 W/m 6,5 C 7,2 C 1,6 km/h (1 Bft)
04.10.2022 10:03 7,4 C 7,8 C 95 % 1024,5 hPa 0,0 l/m 0,0 km/h (0 Bft) O-NO 64 0 min 0,8 UV-I 104 W/m 6,7 C 7,4 C 0,0 km/h (0 Bft)
04.10.2022 10:06 7,8 C 7,8 C 95 % 1024,5 hPa 0,0 l/m 0,0 km/h (0 Bft) O-NO 64 0 min 0,8 UV-I 130 W/m 7,0 C 7,8 C 0,0 km/h (0 Bft)
04.10.2022 10:09 7,9 C 8,3 C 95 % 1024,4 hPa 0,0 l/m 0,0 km/h (0 Bft) O-NO 64 0 min 0,8 UV-I 93 W/m 7,1 C 7,9 C 0,0 km/h (0 Bft)
04.10.2022 10:12 8,1 C 8,3 C 95 % 1024,3 hPa 0,0 l/m 0,0 km/h (0 Bft) O-NO 64 0 min 0,9 UV-I 100 W/m 7,3 C 8,1 C 0,0 km/h (0 Bft)
04.10.2022 10:15 8,4 C 8,9 C 95 % 1024,4 hPa 0,0 l/m 0,1 km/h (0 Bft) O-NO 64 0 min 0,9 UV-I 114 W/m 7,6 C 8,4 C 1,6 km/h (1 Bft)
04.10.2022 10:18 8,7 C 9,4 C 95 % 1024,3 hPa 0,0 l/m 0,0 km/h (0 Bft) O-NO 64 0 min 1,0 UV-I 133 W/m 7,9 C 8,7 C 0,0 km/h (0 Bft)
04.10.2022 10:21 9,2 C 10,0 C 95 % 1024,4 hPa 0,0 l/m 1,4 km/h (1 Bft) O-NO 67 0 min 1,0 UV-I 142 W/m 8,4 C 9,2 C 4,8 km/h (1 Bft)
04.10.2022 10:24 9,8 C 11,1 C 95 % 1024,3 hPa 0,0 l/m 5,9 km/h (2 Bft) S-SO 165 0 min 1,0 UV-I 151 W/m 9,0 C 9,8 C 8,0 km/h (2 Bft)
04.10.2022 10:27 10,0 C 11,1 C 94 % 1024,3 hPa 0,0 l/m 5,6 km/h (1 Bft) S 175 0 min 1,0 UV-I 139 W/m 9,1 C 10,0 C 9,7 km/h (2 Bft)
04.10.2022 10:30 10,2 C 11,1 C 93 % 1024,2 hPa 0,0 l/m 6,1 km/h (2 Bft) S 185 0 min 1,0 UV-I 134 W/m 9,1 C 10,2 C 9,7 km/h (2 Bft)
04.10.2022 10:33 10,4 C 11,1 C 93 % 1024,2 hPa 0,0 l/m 5,4 km/h (1 Bft) S 191 0 min 1,0 UV-I 134 W/m 9,3 C 10,4 C 9,7 km/h (2 Bft)
04.10.2022 10:36 10,5 C 12,2 C 92 % 1024,2 hPa 0,0 l/m 7,1 km/h (2 Bft) S-SW 205 0 min 1,0 UV-I 133 W/m 9,3 C 10,0 C 11,3 km/h (2 Bft)
04.10.2022 10:39 10,7 C 11,7 C 91 % 1024,2 hPa 0,0 l/m 6,8 km/h (2 Bft) S-SW 209 0 min 1,1 UV-I 139 W/m 9,3 C 10,4 C 9,7 km/h (2 Bft)
04.10.2022 10:42 10,7 C 11,7 C 90 % 1024,1 hPa 0,0 l/m 7,1 km/h (2 Bft) S-SW 209 0 min 1,1 UV-I 137 W/m 9,1 C 10,2 C 11,3 km/h (2 Bft)
04.10.2022 10:45 10,9 C 11,7 C 89 % 1024,2 hPa 0,0 l/m 6,8 km/h (2 Bft) SW 215 0 min 1,1 UV-I 177 W/m 9,2 C 10,6 C 11,3 km/h (2 Bft)
04.10.2022 10:48 11,1 C 11,7 C 89 % 1024,2 hPa 0,0 l/m 6,4 km/h (2 Bft) SW 215 0 min 1,1 UV-I 210 W/m 9,4 C 11,1 C 9,7 km/h (2 Bft)
04.10.2022 10:51 11,0 C 11,1 C 87 % 1024,3 hPa 0,0 l/m 8,6 km/h (2 Bft) S-SW 202 0 min 1,1 UV-I 161 W/m 8,9 C 9,5 C 12,9 km/h (3 Bft)
04.10.2022 10:54 11,0 C 11,1 C 87 % 1024,4 hPa 0,0 l/m 8,9 km/h (2 Bft) S-SW 196 0 min 1,5 UV-I 285 W/m 8,9 C 9,3 C 12,9 km/h (3 Bft)
04.10.2022 10:57 11,1 C 11,7 C 87 % 1024,3 hPa 0,0 l/m 8,0 km/h (2 Bft) S-SW 202 0 min 1,7 UV-I 374 W/m 9,0 C 10,0 C 11,3 km/h (2 Bft)
04.10.2022 11:00 11,3 C 12,2 C 87 % 1024,3 hPa 0,0 l/m 5,8 km/h (2 Bft) S-SW 212 3 min 1,8 UV-I 404 W/m 9,2 C 11,3 C 8,0 km/h (2 Bft)
04.10.2022 11:03 11,5 C 12,8 C 86 % 1024,3 hPa 0,0 l/m 8,1 km/h (2 Bft) S-SW 202 3 min 1,9 UV-I 419 W/m 9,2 C 10,4 C 11,3 km/h (2 Bft)
04.10.2022 11:06 11,7 C 12,8 C 84 % 1024,3 hPa 0,0 l/m 8,3 km/h (2 Bft) SW 218 3 min 1,9 UV-I 428 W/m 9,1 C 10,5 C 11,3 km/h (2 Bft)
04.10.2022 11:09 11,9 C 13,3 C 83 % 1024,3 hPa 0,0 l/m 8,2 km/h (2 Bft) S-SO 162 3 min 2,0 UV-I 440 W/m 9,1 C 10,7 C 11,3 km/h (2 Bft)
04.10.2022 11:12 12,2 C 14,4 C 82 % 1024,3 hPa 0,0 l/m 8,0 km/h (2 Bft) S-SW 194 3 min 2,0 UV-I 444 W/m 9,2 C 11,2 C 11,3 km/h (2 Bft)
04.10.2022 11:15 12,4 C 15,0 C 80 % 1024,3 hPa 0,0 l/m 9,3 km/h (2 Bft) S 182 3 min 2,1 UV-I 447 W/m 9,0 C 10,6 C 17,7 km/h (3 Bft)
04.10.2022 11:18 12,3 C 16,1 C 79 % 1024,4 hPa 0,0 l/m 10,3 km/h (2 Bft) S-SO 159 3 min 2,1 UV-I 454 W/m 8,8 C 10,0 C 17,7 km/h (3 Bft)
04.10.2022 11:21 12,6 C 16,7 C 78 % 1024,3 hPa 0,0 l/m 11,8 km/h (2 Bft) S 169 3 min 2,2 UV-I 462 W/m 8,9 C 9,6 C 17,7 km/h (3 Bft)
04.10.2022 11:24 12,6 C 17,2 C 78 % 1024,4 hPa 0,0 l/m 11,5 km/h (2 Bft) S 175 3 min 2,2 UV-I 468 W/m 8,9 C 9,7 C 16,1 km/h (3 Bft)
04.10.2022 11:27 12,4 C 16,7 C 77 % 1024,3 hPa 0,0 l/m 12,2 km/h (2 Bft) S-SW 198 3 min 2,2 UV-I 472 W/m 8,5 C 9,2 C 16,1 km/h (3 Bft)
04.10.2022 11:30 12,4 C 16,7 C 77 % 1024,3 hPa 0,0 l/m 13,6 km/h (3 Bft) S-SW 194 3 min 2,2 UV-I 476 W/m 8,5 C 8,6 C 17,7 km/h (3 Bft)
04.10.2022 11:33 12,6 C 16,7 C 76 % 1024,3 hPa 0,0 l/m 14,2 km/h (3 Bft) S 182 3 min 2,3 UV-I 481 W/m 8,5 C 8,6 C 22,5 km/h (4 Bft)
04.10.2022 11:36 12,9 C 17,2 C 78 % 1024,2 hPa 0,0 l/m 7,6 km/h (2 Bft) S-SW 193 3 min 2,3 UV-I 484 W/m 9,2 C 12,1 C 14,5 km/h (3 Bft)
04.10.2022 11:39 13,1 C 17,8 C 77 % 1024,2 hPa 0,0 l/m 12,2 km/h (2 Bft) S 187 3 min 2,3 UV-I 488 W/m 9,2 C 10,0 C 19,3 km/h (3 Bft)
04.10.2022 11:42 13,1 C 17,2 C 74 % 1024,0 hPa 0,0 l/m 14,1 km/h (3 Bft) S-SO 163 3 min 2,4 UV-I 492 W/m 8,6 C 9,2 C 20,9 km/h (4 Bft)
04.10.2022 11:45 13,1 C 17,8 C 75 % 1024,1 hPa 0,0 l/m 9,9 km/h (2 Bft) S 190 3 min 2,4 UV-I 497 W/m 8,8 C 11,1 C 17,7 km/h (3 Bft)
04.10.2022 11:48 13,2 C 17,8 C 75 % 1024,0 hPa 0,0 l/m 12,7 km/h (3 Bft) S 186 3 min 2,5 UV-I 502 W/m 8,9 C 9,9 C 19,3 km/h (3 Bft)
04.10.2022 11:51 13,4 C 17,8 C 75 % 1024,1 hPa 0,0 l/m 12,2 km/h (2 Bft) S-SO 165 3 min 2,5 UV-I 504 W/m 9,1 C 10,3 C 19,3 km/h (3 Bft)
04.10.2022 11:54 13,7 C 18,3 C 74 % 1024,2 hPa 0,0 l/m 9,3 km/h (2 Bft) S-SW 196 3 min 2,5 UV-I 507 W/m 9,2 C 12,0 C 16,1 km/h (3 Bft)
04.10.2022 11:57 13,6 C 17,8 C 73 % 1024,3 hPa 0,0 l/m 13,1 km/h (3 Bft) S-SO 159 3 min 2,6 UV-I 512 W/m 8,9 C 10,2 C 20,9 km/h (4 Bft)
04.10.2022 12:00 13,7 C 18,3 C 73 % 1024,2 hPa 0,0 l/m 11,2 km/h (2 Bft) SW 229 3 min 2,6 UV-I 518 W/m 8,9 C 11,1 C 19,3 km/h (3 Bft)
04.10.2022 12:03 13,7 C 18,3 C 72 % 1024,3 hPa 0,0 l/m 12,3 km/h (3 Bft) S-SO 165 3 min 2,6 UV-I 522 W/m 8,7 C 10,6 C 17,7 km/h (3 Bft)
04.10.2022 12:06 13,8 C 18,3 C 72 % 1024,2 hPa 0,0 l/m 13,7 km/h (3 Bft) SW 227 3 min 2,7 UV-I 526 W/m 8,8 C 10,2 C 19,3 km/h (3 Bft)
04.10.2022 12:09 13,7 C 18,9 C 70 % 1024,3 hPa 0,0 l/m 15,4 km/h (3 Bft) S-SW 204 3 min 2,7 UV-I 529 W/m 8,3 C 9,5 C 20,9 km/h (4 Bft)
04.10.2022 12:12 13,9 C 19,4 C 71 % 1024,3 hPa 0,0 l/m 12,1 km/h (2 Bft) S-SW 210 3 min 2,7 UV-I 534 W/m 8,7 C 11,0 C 20,9 km/h (4 Bft)
04.10.2022 12:15 14,1 C 20,0 C 71 % 1024,2 hPa 0,0 l/m 10,3 km/h (2 Bft) S-SW 192 3 min 2,8 UV-I 536 W/m 8,9 C 12,0 C 19,3 km/h (3 Bft)
04.10.2022 12:18 14,3 C 21,1 C 71 % 1024,1 hPa 0,0 l/m 9,7 km/h (2 Bft) S 180 3 min 2,8 UV-I 540 W/m 9,1 C 12,5 C 17,7 km/h (3 Bft)
04.10.2022 12:21 14,5 C 21,7 C 72 % 1024,2 hPa 0,0 l/m 8,6 km/h (2 Bft) SO 146 3 min 2,8 UV-I 543 W/m 9,5 C 13,3 C 17,7 km/h (3 Bft)
04.10.2022 12:24 14,7 C 21,1 C 70 % 1024,2 hPa 0,0 l/m 10,5 km/h (2 Bft) SO 126 3 min 2,8 UV-I 547 W/m 9,3 C 12,6 C 19,3 km/h (3 Bft)
04.10.2022 12:27 14,6 C 21,1 C 69 % 1024,1 hPa 0,0 l/m 10,8 km/h (2 Bft) S-SW 202 3 min 2,9 UV-I 549 W/m 9,0 C 12,3 C 17,7 km/h (3 Bft)
04.10.2022 12:30 14,7 C 21,7 C 70 % 1024,1 hPa 0,0 l/m 11,6 km/h (2 Bft) S 173 3 min 2,9 UV-I 553 W/m 9,3 C 12,1 C 16,1 km/h (3 Bft)
04.10.2022 12:33 14,9 C 22,2 C 70 % 1024,1 hPa 0,0 l/m 7,3 km/h (2 Bft) SO 129 3 min 2,9 UV-I 555 W/m 9,5 C 14,4 C 12,9 km/h (3 Bft)
04.10.2022 12:36 14,8 C 21,7 C 69 % 1024,0 hPa 0,0 l/m 11,2 km/h (2 Bft) SO 142 3 min 3,0 UV-I 557 W/m 9,2 C 12,4 C 24,1 km/h (4 Bft)
04.10.2022 12:39 14,8 C 21,7 C 68 % 1024,2 hPa 0,0 l/m 11,7 km/h (2 Bft) S-SO 152 3 min 3,0 UV-I 560 W/m 9,0 C 12,2 C 19,3 km/h (3 Bft)
04.10.2022 12:42 14,7 C 21,1 C 69 % 1024,1 hPa 0,0 l/m 10,8 km/h (2 Bft) S-SW 198 3 min 3,0 UV-I 562 W/m 9,1 C 12,4 C 17,7 km/h (3 Bft)
04.10.2022 12:45 15,0 C 22,2 C 70 % 1024,1 hPa 0,0 l/m 10,3 km/h (2 Bft) S-SW 194 3 min 3,0 UV-I 564 W/m 9,6 C 13,0 C 16,1 km/h (3 Bft)
04.10.2022 12:48 15,0 C 21,7 C 68 % 1024,1 hPa 0,0 l/m 11,4 km/h (2 Bft) S-SO 164 3 min 3,1 UV-I 567 W/m 9,1 C 12,5 C 17,7 km/h (3 Bft)
04.10.2022 12:51 15,1 C 22,2 C 67 % 1024,1 hPa 0,0 l/m 9,6 km/h (2 Bft) S-SW 202 3 min 3,1 UV-I 569 W/m 9,0 C 13,4 C 17,7 km/h (3 Bft)
04.10.2022 12:54 15,1 C 22,2 C 68 % 1024,1 hPa 0,0 l/m 13,2 km/h (3 Bft) S-SW 198 3 min 3,1 UV-I 570 W/m 9,2 C 11,9 C 17,7 km/h (3 Bft)
04.10.2022 12:57 14,9 C 21,1 C 68 % 1024,1 hPa 0,0 l/m 12,9 km/h (3 Bft) S 183 3 min 3,1 UV-I 570 W/m 9,0 C 11,8 C 20,9 km/h (4 Bft)
04.10.2022 13:00 15,1 C 21,7 C 68 % 1023,9 hPa 0,0 l/m 12,2 km/h (2 Bft) S-SW 200 3 min 3,1 UV-I 572 W/m 9,2 C 12,3 C 20,9 km/h (4 Bft)
04.10.2022 13:03 15,1 C 22,2 C 68 % 1023,9 hPa 0,0 l/m 14,1 km/h (3 Bft) S-SW 204 3 min 3,1 UV-I 576 W/m 9,2 C 11,6 C 20,9 km/h (4 Bft)
04.10.2022 13:06 15,2 C 22,2 C 69 % 1024,0 hPa 0,0 l/m 10,7 km/h (2 Bft) SW 219 3 min 3,1 UV-I 579 W/m 9,6 C 13,0 C 17,7 km/h (3 Bft)
04.10.2022 13:09 15,7 C 22,8 C 68 % 1023,9 hPa 0,0 l/m 7,5 km/h (2 Bft) SO 144 3 min 3,1 UV-I 577 W/m 9,8 C 15,1 C 16,1 km/h (3 Bft)
04.10.2022 13:12 15,7 C 22,8 C 68 % 1023,9 hPa 0,0 l/m 8,8 km/h (2 Bft) SO 138 3 min 3,1 UV-I 567 W/m 9,8 C 14,4 C 14,5 km/h (3 Bft)
04.10.2022 13:15 15,7 C 22,8 C 65 % 1023,9 hPa 0,0 l/m 11,0 km/h (2 Bft) W-SW 249 3 min 3,1 UV-I 562 W/m 9,1 C 13,5 C 17,7 km/h (3 Bft)
04.10.2022 13:18 15,6 C 22,2 C 64 % 1023,9 hPa 0,0 l/m 11,6 km/h (2 Bft) S-SW 202 3 min 3,1 UV-I 559 W/m 8,8 C 13,1 C 20,9 km/h (4 Bft)
04.10.2022 13:21 15,8 C 23,3 C 63 % 1023,9 hPa 0,0 l/m 11,2 km/h (2 Bft) S-SO 166 3 min 3,1 UV-I 573 W/m 8,8 C 13,5 C 20,9 km/h (4 Bft)
04.10.2022 13:24 15,7 C 22,8 C 66 % 1024,0 hPa 0,0 l/m 12,4 km/h (3 Bft) SW 221 3 min 3,1 UV-I 567 W/m 9,4 C 12,9 C 20,9 km/h (4 Bft)
04.10.2022 13:27 15,8 C 22,8 C 65 % 1024,0 hPa 0,0 l/m 10,8 km/h (2 Bft) S-SW 211 3 min 3,1 UV-I 577 W/m 9,2 C 13,7 C 19,3 km/h (3 Bft)
04.10.2022 13:30 15,7 C 22,2 C 64 % 1024,1 hPa 0,0 l/m 15,9 km/h (3 Bft) S 174 3 min 3,1 UV-I 576 W/m 8,9 C 11,8 C 22,5 km/h (4 Bft)
04.10.2022 13:33 15,6 C 21,7 C 66 % 1024,0 hPa 0,0 l/m 14,0 km/h (3 Bft) S 188 3 min 3,1 UV-I 575 W/m 9,3 C 12,2 C 24,1 km/h (4 Bft)
04.10.2022 13:36 15,6 C 22,8 C 66 % 1024,0 hPa 0,0 l/m 13,3 km/h (3 Bft) SW 215 3 min 3,2 UV-I 576 W/m 9,3 C 12,5 C 19,3 km/h (3 Bft)
04.10.2022 13:39 15,6 C 22,2 C 66 % 1023,8 hPa 0,0 l/m 14,2 km/h (3 Bft) S-SW 200 3 min 3,2 UV-I 579 W/m 9,3 C 12,2 C 20,9 km/h (4 Bft)
04.10.2022 13:42 15,5 C 22,2 C 65 % 1024,1 hPa 0,0 l/m 15,1 km/h (3 Bft) S-SW 197 3 min 3,2 UV-I 580 W/m 8,9 C 11,8 C 19,3 km/h (3 Bft)
04.10.2022 13:45 15,4 C 22,2 C 67 % 1023,9 hPa 0,0 l/m 16,2 km/h (3 Bft) S-SW 207 3 min 3,2 UV-I 581 W/m 9,3 C 11,3 C 22,5 km/h (4 Bft)
04.10.2022 13:48 15,6 C 22,8 C 65 % 1023,9 hPa 0,0 l/m 11,8 km/h (2 Bft) S 169 3 min 3,2 UV-I 580 W/m 9,0 C 13,0 C 19,3 km/h (3 Bft)
04.10.2022 13:51 15,6 C 22,8 C 67 % 1024,0 hPa 0,0 l/m 13,3 km/h (3 Bft) SW 225 3 min 3,1 UV-I 579 W/m 9,5 C 12,5 C 17,7 km/h (3 Bft)
04.10.2022 13:54 15,6 C 22,2 C 67 % 1023,9 hPa 0,0 l/m 13,5 km/h (3 Bft) S-SW 209 3 min 3,1 UV-I 577 W/m 9,5 C 12,4 C 20,9 km/h (4 Bft)
04.10.2022 13:57 15,7 C 23,3 C 67 % 1023,8 hPa 0,0 l/m 12,4 km/h (3 Bft) S-SW 207 3 min 3,1 UV-I 576 W/m 9,6 C 12,9 C 19,3 km/h (3 Bft)
04.10.2022 14:00 15,7 C 22,8 C 67 % 1023,8 hPa 0,0 l/m 14,5 km/h (3 Bft) S-SW 196 3 min 3,1 UV-I 577 W/m 9,6 C 12,2 C 20,9 km/h (4 Bft)
04.10.2022 14:03 15,9 C 23,3 C 67 % 1023,8 hPa 0,0 l/m 10,4 km/h (2 Bft) S-SW 194 3 min 3,1 UV-I 576 W/m 9,8 C 13,9 C 16,1 km/h (3 Bft)
04.10.2022 14:06 16,1 C 23,9 C 67 % 1023,9 hPa 0,0 l/m 8,6 km/h (2 Bft) SO 144 3 min 3,1 UV-I 575 W/m 10,0 C 15,0 C 16,1 km/h (3 Bft)
04.10.2022 14:09 16,0 C 23,9 C 68 % 1023,7 hPa 0,0 l/m 8,6 km/h (2 Bft) S-SO 163 3 min 3,1 UV-I 564 W/m 10,1 C 14,9 C 14,5 km/h (3 Bft)
04.10.2022 14:12 16,3 C 23,3 C 68 % 1023,7 hPa 0,0 l/m 10,6 km/h (2 Bft) SO 136 3 min 3,1 UV-I 571 W/m 10,4 C 14,3 C 20,9 km/h (4 Bft)
04.10.2022 14:15 16,1 C 23,9 C 64 % 1023,6 hPa 0,0 l/m 7,8 km/h (2 Bft) S-SO 166 3 min 3,1 UV-I 569 W/m 9,3 C 15,4 C 14,5 km/h (3 Bft)
04.10.2022 14:18 16,2 C 23,9 C 67 % 1023,5 hPa 0,0 l/m 12,7 km/h (3 Bft) S-SW 196 3 min 3,1 UV-I 571 W/m 10,1 C 13,4 C 25,7 km/h (4 Bft)
04.10.2022 14:21 16,1 C 23,9 C 66 % 1023,5 hPa 0,0 l/m 11,4 km/h (2 Bft) SW 214 3 min 3,1 UV-I 565 W/m 9,7 C 13,8 C 17,7 km/h (3 Bft)
04.10.2022 14:24 16,1 C 23,9 C 67 % 1023,6 hPa 0,0 l/m 12,6 km/h (3 Bft) SO 140 3 min 3,1 UV-I 564 W/m 10,0 C 13,3 C 22,5 km/h (4 Bft)
04.10.2022 14:27 16,1 C 23,3 C 67 % 1023,5 hPa 0,0 l/m 12,4 km/h (3 Bft) S-SW 209 3 min 3,0 UV-I 563 W/m 10,0 C 13,4 C 17,7 km/h (3 Bft)
04.10.2022 14:30 16,1 C 23,3 C 65 % 1023,5 hPa 0,0 l/m 14,2 km/h (3 Bft) S 175 3 min 3,0 UV-I 560 W/m 9,5 C 12,8 C 20,9 km/h (4 Bft)
04.10.2022 14:33 16,0 C 23,9 C 66 % 1023,4 hPa 0,0 l/m 9,2 km/h (2 Bft) S 191 3 min 3,0 UV-I 560 W/m 9,7 C 14,6 C 14,5 km/h (3 Bft)
04.10.2022 14:36 16,6 C 24,4 C 66 % 1023,3 hPa 0,0 l/m 6,7 km/h (2 Bft) S-SW 205 3 min 3,0 UV-I 555 W/m 10,2 C 16,5 C 11,3 km/h (2 Bft)
04.10.2022 14:39 16,7 C 24,4 C 63 % 1023,4 hPa 0,0 l/m 6,9 km/h (2 Bft) SO 142 3 min 2,9 UV-I 555 W/m 9,6 C 16,4 C 11,3 km/h (2 Bft)
04.10.2022 14:42 16,7 C 24,4 C 63 % 1023,3 hPa 0,0 l/m 7,3 km/h (2 Bft) SO 142 3 min 2,9 UV-I 553 W/m 9,6 C 16,2 C 14,5 km/h (3 Bft)
04.10.2022 14:45 16,6 C 24,4 C 64 % 1023,4 hPa 0,0 l/m 9,0 km/h (2 Bft) S-SO 164 3 min 2,9 UV-I 541 W/m 9,8 C 15,3 C 16,1 km/h (3 Bft)
04.10.2022 14:48 16,6 C 23,9 C 62 % 1023,3 hPa 0,0 l/m 11,7 km/h (2 Bft) S-SO 157 3 min 2,9 UV-I 544 W/m 9,3 C 14,2 C 19,3 km/h (3 Bft)
04.10.2022 14:51 16,6 C 23,9 C 64 % 1023,4 hPa 0,0 l/m 10,1 km/h (2 Bft) S 188 3 min 2,9 UV-I 544 W/m 9,8 C 14,8 C 17,7 km/h (3 Bft)
04.10.2022 14:54 16,6 C 23,9 C 61 % 1023,4 hPa 0,0 l/m 9,7 km/h (2 Bft) O-SO 121 3 min 2,8 UV-I 542 W/m 9,0 C 15,0 C 17,7 km/h (3 Bft)
04.10.2022 14:57 16,8 C 25,0 C 63 % 1023,3 hPa 0,0 l/m 9,4 km/h (2 Bft) S 186 3 min 2,8 UV-I 539 W/m 9,7 C 15,4 C 16,1 km/h (3 Bft)
04.10.2022 15:00 16,8 C 24,4 C 60 % 1023,3 hPa 0,0 l/m 10,0 km/h (2 Bft) S-SW 199 3 min 2,8 UV-I 536 W/m 9,0 C 15,1 C 14,5 km/h (3 Bft)
04.10.2022 15:03 16,6 C 23,9 C 61 % 1023,2 hPa 0,0 l/m 14,0 km/h (3 Bft) S-SW 213 3 min 2,7 UV-I 528 W/m 9,0 C 13,4 C 19,3 km/h (3 Bft)
04.10.2022 15:06 16,6 C 23,9 C 61 % 1023,2 hPa 0,0 l/m 12,4 km/h (3 Bft) S 188 3 min 2,7 UV-I 517 W/m 9,0 C 14,0 C 17,7 km/h (3 Bft)
04.10.2022 15:09 16,8 C 23,9 C 61 % 1023,3 hPa 0,0 l/m 11,6 km/h (2 Bft) S-SW 197 3 min 2,7 UV-I 518 W/m 9,2 C 14,5 C 20,9 km/h (4 Bft)
04.10.2022 15:12 16,6 C 23,9 C 61 % 1023,2 hPa 0,0 l/m 12,0 km/h (2 Bft) S-SO 153 3 min 2,6 UV-I 510 W/m 9,0 C 14,1 C 17,7 km/h (3 Bft)
04.10.2022 15:15 16,8 C 24,4 C 61 % 1023,2 hPa 0,0 l/m 9,5 km/h (2 Bft) S 170 3 min 2,6 UV-I 503 W/m 9,2 C 15,3 C 16,1 km/h (3 Bft)
04.10.2022 15:18 16,8 C 23,9 C 61 % 1023,1 hPa 0,0 l/m 10,2 km/h (2 Bft) S-SO 165 3 min 2,6 UV-I 513 W/m 9,2 C 15,0 C 17,7 km/h (3 Bft)
04.10.2022 15:21 16,9 C 23,9 C 61 % 1023,1 hPa 0,0 l/m 10,3 km/h (2 Bft) S 190 3 min 2,5 UV-I 508 W/m 9,3 C 15,1 C 19,3 km/h (3 Bft)
04.10.2022 15:24 16,8 C 24,4 C 61 % 1023,2 hPa 0,0 l/m 12,0 km/h (2 Bft) S-SW 209 3 min 2,5 UV-I 502 W/m 9,2 C 14,3 C 17,7 km/h (3 Bft)
04.10.2022 15:27 16,7 C 24,4 C 60 % 1023,2 hPa 0,0 l/m 11,8 km/h (2 Bft) S 186 3 min 2,5 UV-I 498 W/m 8,9 C 14,3 C 16,1 km/h (3 Bft)
04.10.2022 15:30 16,7 C 23,3 C 59 % 1023,2 hPa 0,0 l/m 14,8 km/h (3 Bft) S-SW 200 3 min 2,4 UV-I 492 W/m 8,6 C 13,3 C 20,9 km/h (4 Bft)
04.10.2022 15:33 16,8 C 23,9 C 59 % 1023,2 hPa 0,0 l/m 10,4 km/h (2 Bft) S 186 3 min 2,4 UV-I 488 W/m 8,7 C 14,9 C 14,5 km/h (3 Bft)
04.10.2022 15:36 16,8 C 23,3 C 61 % 1023,1 hPa 0,0 l/m 13,4 km/h (3 Bft) SW 216 3 min 2,3 UV-I 480 W/m 9,2 C 13,9 C 20,9 km/h (4 Bft)
04.10.2022 15:39 16,8 C 23,3 C 61 % 1023,2 hPa 0,0 l/m 13,3 km/h (3 Bft) S-SO 167 3 min 2,3 UV-I 471 W/m 9,2 C 13,9 C 22,5 km/h (4 Bft)
04.10.2022 15:42 16,7 C 23,3 C 60 % 1023,1 hPa 0,0 l/m 11,6 km/h (2 Bft) S-SO 159 3 min 2,2 UV-I 462 W/m 8,9 C 14,4 C 19,3 km/h (3 Bft)
04.10.2022 15:45 16,8 C 23,9 C 63 % 1023,2 hPa 0,0 l/m 8,2 km/h (2 Bft) S 172 3 min 2,2 UV-I 461 W/m 9,7 C 15,9 C 16,1 km/h (3 Bft)
04.10.2022 15:48 16,9 C 23,9 C 60 % 1023,1 hPa 0,0 l/m 7,5 km/h (2 Bft) S-SO 161 3 min 2,2 UV-I 463 W/m 9,1 C 16,3 C 16,1 km/h (3 Bft)
04.10.2022 15:51 16,8 C 24,4 C 59 % 1023,3 hPa 0,0 l/m 8,9 km/h (2 Bft) S-SO 150 3 min 2,1 UV-I 453 W/m 8,7 C 15,6 C 12,9 km/h (3 Bft)
04.10.2022 15:54 16,9 C 24,4 C 61 % 1023,2 hPa 0,0 l/m 8,2 km/h (2 Bft) S 173 3 min 2,1 UV-I 451 W/m 9,3 C 16,0 C 14,5 km/h (3 Bft)
04.10.2022 15:57 17,0 C 25,6 C 59 % 1023,2 hPa 0,0 l/m 7,4 km/h (2 Bft) S 170 3 min 2,0 UV-I 439 W/m 8,9 C 16,5 C 14,5 km/h (3 Bft)
04.10.2022 16:00 16,9 C 25,0 C 59 % 1023,1 hPa 0,0 l/m 8,6 km/h (2 Bft) S 183 3 min 2,0 UV-I 434 W/m 8,8 C 15,8 C 16,1 km/h (3 Bft)
04.10.2022 16:03 16,8 C 23,9 C 58 % 1023,2 hPa 0,0 l/m 12,9 km/h (3 Bft) S 171 3 min 1,9 UV-I 422 W/m 8,5 C 14,0 C 19,3 km/h (3 Bft)
04.10.2022 16:06 16,9 C 23,9 C 58 % 1023,1 hPa 0,0 l/m 9,2 km/h (2 Bft) S 169 3 min 1,9 UV-I 411 W/m 8,6 C 15,6 C 14,5 km/h (3 Bft)
04.10.2022 16:09 16,8 C 23,9 C 59 % 1023,3 hPa 0,0 l/m 9,2 km/h (2 Bft) S-SO 158 3 min 1,8 UV-I 403 W/m 8,7 C 15,4 C 16,1 km/h (3 Bft)
04.10.2022 16:12 16,8 C 23,9 C 62 % 1023,1 hPa 0,0 l/m 9,5 km/h (2 Bft) S-SW 203 0 min 1,8 UV-I 388 W/m 9,5 C 15,3 C 17,7 km/h (3 Bft)
04.10.2022 16:15 16,7 C 23,9 C 59 % 1023,0 hPa 0,0 l/m 10,3 km/h (2 Bft) S-SO 165 0 min 1,7 UV-I 390 W/m 8,6 C 14,9 C 16,1 km/h (3 Bft)
04.10.2022 16:18 16,8 C 24,4 C 60 % 1023,1 hPa 0,0 l/m 9,5 km/h (2 Bft) S-SW 206 3 min 1,8 UV-I 405 W/m 9,0 C 15,3 C 20,9 km/h (4 Bft)
04.10.2022 16:21 16,6 C 23,3 C 59 % 1022,9 hPa 0,0 l/m 15,0 km/h (3 Bft) SW 227 3 min 1,7 UV-I 402 W/m 8,6 C 13,1 C 20,9 km/h (4 Bft)
04.10.2022 16:24 16,5 C 22,8 C 60 % 1022,9 hPa 0,0 l/m 13,4 km/h (3 Bft) S-SW 213 0 min 1,7 UV-I 395 W/m 8,7 C 13,5 C 19,3 km/h (3 Bft)
04.10.2022 16:27 16,6 C 22,8 C 60 % 1022,8 hPa 0,0 l/m 13,1 km/h (3 Bft) SW 227 0 min 1,6 UV-I 383 W/m 8,8 C 13,7 C 19,3 km/h (3 Bft)
04.10.2022 16:30 16,6 C 22,8 C 61 % 1022,8 hPa 0,0 l/m 11,9 km/h (2 Bft) SW 215 0 min 1,6 UV-I 379 W/m 9,0 C 14,2 C 16,1 km/h (3 Bft)
04.10.2022 16:33 16,4 C 21,7 C 61 % 1022,8 hPa 0,0 l/m 13,0 km/h (3 Bft) S-SO 162 0 min 1,5 UV-I 372 W/m 8,9 C 13,5 C 19,3 km/h (3 Bft)
04.10.2022 16:36 16,6 C 22,2 C 61 % 1022,7 hPa 0,0 l/m 8,1 km/h (2 Bft) S 188 0 min 1,5 UV-I 366 W/m 9,0 C 15,7 C 12,9 km/h (3 Bft)
04.10.2022 16:39 16,8 C 22,2 C 61 % 1022,6 hPa 0,0 l/m 8,6 km/h (2 Bft) S-SW 207 0 min 1,4 UV-I 359 W/m 9,2 C 15,7 C 16,1 km/h (3 Bft)
04.10.2022 16:42 16,7 C 21,7 C 61 % 1022,6 hPa 0,0 l/m 10,4 km/h (2 Bft) S-SW 207 0 min 1,4 UV-I 353 W/m 9,1 C 14,8 C 17,7 km/h (3 Bft)
04.10.2022 16:45 16,5 C 22,2 C 59 % 1022,6 hPa 0,0 l/m 10,8 km/h (2 Bft) S 169 0 min 1,4 UV-I 345 W/m 8,5 C 14,5 C 16,1 km/h (3 Bft)
04.10.2022 16:48 16,6 C 23,3 C 61 % 1022,5 hPa 0,0 l/m 10,1 km/h (2 Bft) S-SO 157 0 min 1,3 UV-I 338 W/m 9,0 C 14,8 C 17,7 km/h (3 Bft)
04.10.2022 16:51 16,6 C 22,8 C 61 % 1022,5 hPa 0,0 l/m 6,8 km/h (2 Bft) SO 146 0 min 1,3 UV-I 318 W/m 9,0 C 16,4 C 14,5 km/h (3 Bft)
04.10.2022 16:54 16,4 C 22,2 C 62 % 1022,6 hPa 0,0 l/m 8,2 km/h (2 Bft) SO 125 0 min 1,2 UV-I 296 W/m 9,1 C 15,5 C 16,1 km/h (3 Bft)
04.10.2022 16:57 16,2 C 21,1 C 61 % 1022,6 hPa 0,0 l/m 12,2 km/h (2 Bft) SO 140 0 min 1,2 UV-I 323 W/m 8,7 C 13,6 C 19,3 km/h (3 Bft)
04.10.2022 17:00 16,2 C 22,2 C 62 % 1022,5 hPa 0,0 l/m 6,4 km/h (2 Bft) S 169 0 min 1,1 UV-I 286 W/m 8,9 C 16,2 C 12,9 km/h (3 Bft)
04.10.2022 17:03 16,4 C 23,3 C 61 % 1022,6 hPa 0,0 l/m 8,5 km/h (2 Bft) S 182 0 min 1,1 UV-I 301 W/m 8,9 C 15,3 C 14,5 km/h (3 Bft)
04.10.2022 17:07 16,3 C 22,8 C 58 % 1022,6 hPa 0,0 l/m 10,3 km/h (2 Bft) S 169 0 min 1,0 UV-I 277 W/m 8,0 C 14,4 C 17,7 km/h (3 Bft)
04.10.2022 17:09 16,3 C 22,8 C 59 % 1022,6 hPa 0,0 l/m 8,7 km/h (2 Bft) SO 140 0 min 1,0 UV-I 285 W/m 8,3 C 15,1 C 16,1 km/h (3 Bft)
04.10.2022 17:12 16,3 C 22,2 C 58 % 1022,6 hPa 0,0 l/m 10,0 km/h (2 Bft) SO 146 0 min 0,9 UV-I 268 W/m 8,0 C 14,6 C 14,5 km/h (3 Bft)
04.10.2022 17:15 16,3 C 22,8 C 60 % 1022,6 hPa 0,0 l/m 8,3 km/h (2 Bft) S-SO 167 0 min 0,9 UV-I 260 W/m 8,5 C 15,3 C 16,1 km/h (3 Bft)
04.10.2022 17:18 16,2 C 21,7 C 59 % 1022,5 hPa 0,0 l/m 9,0 km/h (2 Bft) S-SO 148 0 min 0,8 UV-I 257 W/m 8,2 C 14,9 C 19,3 km/h (3 Bft)
04.10.2022 17:21 16,1 C 19,4 C 59 % 1022,4 hPa 0,0 l/m 10,7 km/h (2 Bft) S 180 0 min 0,8 UV-I 208 W/m 8,1 C 14,0 C 16,1 km/h (3 Bft)
04.10.2022 17:24 15,9 C 16,7 C 59 % 1022,4 hPa 0,0 l/m 10,3 km/h (2 Bft) S-SO 150 0 min 0,7 UV-I 140 W/m 7,9 C 14,0 C 17,7 km/h (3 Bft)
04.10.2022 17:27 15,7 C 16,1 C 59 % 1022,4 hPa 0,0 l/m 11,1 km/h (2 Bft) S 171 0 min 0,6 UV-I 145 W/m 7,7 C 13,4 C 16,1 km/h (3 Bft)
04.10.2022 17:30 15,6 C 15,6 C 59 % 1022,3 hPa 0,0 l/m 8,2 km/h (2 Bft) S-SO 152 0 min 0,6 UV-I 142 W/m 7,6 C 14,6 C 12,9 km/h (3 Bft)
04.10.2022 17:33 15,5 C 16,1 C 59 % 1022,4 hPa 0,0 l/m 9,7 km/h (2 Bft) S 188 0 min 0,6 UV-I 152 W/m 7,5 C 13,8 C 17,7 km/h (3 Bft)
04.10.2022 17:36 15,5 C 17,8 C 60 % 1022,2 hPa 0,0 l/m 8,1 km/h (2 Bft) S 175 0 min 0,6 UV-I 173 W/m 7,8 C 14,6 C 14,5 km/h (3 Bft)
04.10.2022 17:39 15,5 C 18,9 C 61 % 1022,3 hPa 0,0 l/m 8,9 km/h (2 Bft) S 186 0 min 0,6 UV-I 183 W/m 8,0 C 14,2 C 14,5 km/h (3 Bft)
04.10.2022 17:42 15,4 C 18,9 C 62 % 1022,1 hPa 0,0 l/m 7,4 km/h (2 Bft) S-SO 161 0 min 0,5 UV-I 151 W/m 8,2 C 14,8 C 11,3 km/h (2 Bft)
04.10.2022 17:45 15,4 C 18,9 C 62 % 1022,2 hPa 0,0 l/m 8,6 km/h (2 Bft) S-SO 167 0 min 0,5 UV-I 159 W/m 8,2 C 14,2 C 12,9 km/h (3 Bft)
04.10.2022 17:48 15,3 C 19,4 C 63 % 1022,2 hPa 0,0 l/m 6,4 km/h (2 Bft) S-SW 208 0 min 0,5 UV-I 163 W/m 8,3 C 15,3 C 11,3 km/h (2 Bft)
04.10.2022 17:51 15,3 C 19,4 C 64 % 1022,2 hPa 0,0 l/m 6,5 km/h (2 Bft) S-SO 168 0 min 0,5 UV-I 149 W/m 8,5 C 15,3 C 11,3 km/h (2 Bft)
04.10.2022 17:54 15,3 C 19,4 C 64 % 1022,2 hPa 0,0 l/m 6,2 km/h (2 Bft) S 177 0 min 0,5 UV-I 159 W/m 8,5 C 15,3 C 11,3 km/h (2 Bft)
04.10.2022 17:57 15,2 C 18,9 C 65 % 1022,3 hPa 0,0 l/m 7,7 km/h (2 Bft) S-SO 165 0 min 0,0 UV-I 142 W/m 8,7 C 14,5 C 12,9 km/h (3 Bft)
04.10.2022 18:00 15,1 C 17,8 C 65 % 1022,2 hPa 0,0 l/m 7,2 km/h (2 Bft) S 186 0 min 0,0 UV-I 85 W/m 8,6 C 14,6 C 14,5 km/h (3 Bft)
04.10.2022 18:03 14,9 C 16,1 C 66 % 1022,3 hPa 0,0 l/m 9,9 km/h (2 Bft) S-SW 208 0 min 0,0 UV-I 62 W/m 8,6 C 13,1 C 16,1 km/h (3 Bft)
04.10.2022 18:06 14,8 C 15,6 C 67 % 1022,3 hPa 0,0 l/m 8,8 km/h (2 Bft) W-SW 238 0 min 0,0 UV-I 60 W/m 8,7 C 13,5 C 14,5 km/h (3 Bft)
04.10.2022 18:09 14,7 C 15,0 C 67 % 1022,2 hPa 0,0 l/m 7,6 km/h (2 Bft) S-SO 159 0 min 0,0 UV-I 54 W/m 8,6 C 14,0 C 12,9 km/h (3 Bft)
04.10.2022 18:12 14,6 C 14,4 C 67 % 1022,4 hPa 0,0 l/m 5,4 km/h (1 Bft) S 181 0 min 0,0 UV-I 54 W/m 8,5 C 14,6 C 11,3 km/h (2 Bft)
04.10.2022 18:15 14,4 C 13,9 C 68 % 1022,5 hPa 0,0 l/m 4,6 km/h (1 Bft) S 178 0 min 0,0 UV-I 52 W/m 8,6 C 14,4 C 9,7 km/h (2 Bft)
04.10.2022 18:18 14,4 C 13,9 C 68 % 1022,4 hPa 0,0 l/m 5,5 km/h (1 Bft) S 176 0 min 0,0 UV-I 45 W/m 8,6 C 14,4 C 9,7 km/h (2 Bft)
04.10.2022 18:21 14,3 C 13,3 C 69 % 1022,5 hPa 0,0 l/m 6,2 km/h (2 Bft) S 186 0 min 0,0 UV-I 41 W/m 8,7 C 14,3 C 11,3 km/h (2 Bft)
04.10.2022 18:24 14,1 C 13,3 C 70 % 1022,5 hPa 0,0 l/m 5,4 km/h (1 Bft) S 190 0 min 0,0 UV-I 42 W/m 8,7 C 14,1 C 8,0 km/h (2 Bft)
04.10.2022 18:27 14,1 C 12,8 C 71 % 1022,5 hPa 0,0 l/m 5,2 km/h (1 Bft) S 179 0 min 0,0 UV-I 35 W/m 8,9 C 14,1 C 8,0 km/h (2 Bft)
04.10.2022 18:30 14,0 C 12,8 C 71 % 1022,5 hPa 0,0 l/m 6,0 km/h (2 Bft) S-SO 167 0 min 0,0 UV-I 30 W/m 8,8 C 14,0 C 9,7 km/h (2 Bft)
04.10.2022 18:33 13,8 C 12,8 C 71 % 1022,5 hPa 0,0 l/m 6,2 km/h (2 Bft) S-SO 161 0 min 0,0 UV-I 27 W/m 8,6 C 13,8 C 9,7 km/h (2 Bft)
04.10.2022 18:36 13,8 C 12,8 C 72 % 1022,5 hPa 0,0 l/m 6,8 km/h (2 Bft) S-SO 160 0 min 0,0 UV-I 25 W/m 8,8 C 13,6 C 9,7 km/h (2 Bft)
04.10.2022 18:39 13,7 C 12,8 C 72 % 1022,5 hPa 0,0 l/m 6,9 km/h (2 Bft) S-SO 163 0 min 0,0 UV-I 22 W/m 8,7 C 13,4 C 11,3 km/h (2 Bft)
04.10.2022 18:42 13,6 C 12,2 C 72 % 1022,4 hPa 0,0 l/m 6,1 km/h (2 Bft) S 182 0 min 0,0 UV-I 19 W/m 8,6 C 13,6 C 9,7 km/h (2 Bft)
04.10.2022 18:45 13,5 C 12,2 C 73 % 1022,6 hPa 0,0 l/m 6,0 km/h (2 Bft) S 180 0 min 0,0 UV-I 16 W/m 8,8 C 13,5 C 9,7 km/h (2 Bft)
04.10.2022 18:48 13,4 C 11,7 C 73 % 1022,6 hPa 0,0 l/m 5,7 km/h (1 Bft) S 176 0 min 0,0 UV-I 12 W/m 8,7 C 13,4 C 8,0 km/h (2 Bft)
04.10.2022 18:51 13,3 C 11,7 C 73 % 1022,7 hPa 0,0 l/m 8,2 km/h (2 Bft) S 171 0 min 0,0 UV-I 10 W/m 8,6 C 12,2 C 11,3 km/h (2 Bft)
04.10.2022 18:54 13,2 C 11,1 C 74 % 1022,7 hPa 0,0 l/m 7,1 km/h (2 Bft) S-SO 165 0 min 0,0 UV-I 8 W/m 8,7 C 12,8 C 14,5 km/h (3 Bft)
04.10.2022 18:57 12,9 C 11,1 C 75 % 1022,7 hPa 0,0 l/m 8,2 km/h (2 Bft) S 174 0 min 0,0 UV-I 5 W/m 8,6 C 11,8 C 14,5 km/h (3 Bft)
04.10.2022 19:00 12,7 C 10,6 C 75 % 1022,7 hPa 0,0 l/m 8,0 km/h (2 Bft) S 175 0 min 0,0 UV-I 1 W/m 8,4 C 11,7 C 12,9 km/h (3 Bft)
04.10.2022 19:03 12,7 C 11,1 C 76 % 1022,7 hPa 0,0 l/m 9,2 km/h (2 Bft) S 171 0 min 0,0 UV-I 0 W/m 8,6 C 11,0 C 12,9 km/h (3 Bft)
04.10.2022 19:06 12,7 C 10,6 C 77 % 1022,6 hPa 0,0 l/m 8,8 km/h (2 Bft) S 173 0 min 0,0 UV-I 0 W/m 8,8 C 11,2 C 12,9 km/h (3 Bft)
04.10.2022 19:09 12,7 C 10,6 C 77 % 1022,7 hPa 0,0 l/m 7,1 km/h (2 Bft) S 175 0 min 0,0 UV-I 0 W/m 8,8 C 12,3 C 11,3 km/h (2 Bft)
04.10.2022 19:12 12,7 C 10,6 C 77 % 1022,6 hPa 0,0 l/m 7,9 km/h (2 Bft) S-SO 158 0 min 0,0 UV-I 0 W/m 8,8 C 11,7 C 12,9 km/h (3 Bft)
04.10.2022 19:15 12,6 C 10,6 C 77 % 1022,5 hPa 0,0 l/m 8,4 km/h (2 Bft) S-SO 154 0 min 0,0 UV-I 0 W/m 8,7 C 11,3 C 11,3 km/h (2 Bft)
04.10.2022 19:18 12,6 C 10,6 C 77 % 1022,5 hPa 0,0 l/m 6,6 km/h (2 Bft) S 180 0 min 0,0 UV-I 0 W/m 8,7 C 12,5 C 9,7 km/h (2 Bft)
04.10.2022 19:21 12,4 C 10,6 C 77 % 1022,4 hPa 0,0 l/m 5,1 km/h (1 Bft) S 172 0 min 0,0 UV-I 0 W/m 8,5 C 12,4 C 8,0 km/h (2 Bft)
04.10.2022 19:24 12,3 C 10,0 C 78 % 1022,4 hPa 0,0 l/m 4,1 km/h (1 Bft) S 170 0 min 0,0 UV-I 0 W/m 8,6 C 12,3 C 6,4 km/h (2 Bft)
04.10.2022 19:27 12,0 C 9,4 C 79 % 1022,5 hPa 0,0 l/m 5,3 km/h (1 Bft) S 170 0 min 0,0 UV-I 0 W/m 8,5 C 12,0 C 8,0 km/h (2 Bft)
04.10.2022 19:30 11,9 C 9,4 C 79 % 1022,7 hPa 0,0 l/m 5,7 km/h (1 Bft) S 179 0 min 0,0 UV-I 0 W/m 8,4 C 11,9 C 8,0 km/h (2 Bft)
04.10.2022 19:33 11,9 C 9,4 C 79 % 1022,7 hPa 0,0 l/m 4,3 km/h (1 Bft) S 175 0 min 0,0 UV-I 0 W/m 8,4 C 11,9 C 9,7 km/h (2 Bft)
04.10.2022 19:36 11,8 C 8,9 C 80 % 1022,7 hPa 0,0 l/m 2,0 km/h (1 Bft) S 175 0 min 0,0 UV-I 0 W/m 8,5 C 11,8 C 4,8 km/h (1 Bft)
04.10.2022 19:39 11,3 C 8,9 C 80 % 1022,8 hPa 0,0 l/m 1,0 km/h (0 Bft) S 175 0 min 0,0 UV-I 0 W/m 8,0 C 11,3 C 3,2 km/h (1 Bft)
04.10.2022 19:42 10,9 C 8,3 C 82 % 1022,9 hPa 0,0 l/m 1,9 km/h (1 Bft) S 175 0 min 0,0 UV-I 0 W/m 7,9 C 10,9 C 3,2 km/h (1 Bft)
04.10.2022 19:45 10,8 C 8,3 C 82 % 1022,9 hPa 0,0 l/m 0,9 km/h (0 Bft) S 175 0 min 0,0 UV-I 0 W/m 7,9 C 10,8 C 1,6 km/h (1 Bft)
04.10.2022 19:48 10,7 C 7,8 C 83 % 1022,8 hPa 0,0 l/m 0,0 km/h (0 Bft) S 175 0 min 0,0 UV-I 0 W/m 7,9 C 10,7 C 0,0 km/h (0 Bft)
04.10.2022 19:51 10,6 C 7,8 C 83 % 1022,8 hPa 0,0 l/m 0,0 km/h (0 Bft) S 175 0 min 0,0 UV-I 0 W/m 7,8 C 10,6 C 0,0 km/h (0 Bft)
04.10.2022 19:54 10,6 C 7,2 C 84 % 1022,8 hPa 0,0 l/m 0,0 km/h (0 Bft) S 175 0 min 0,0 UV-I 0 W/m 8,0 C 10,6 C 1,6 km/h (1 Bft)
04.10.2022 19:57 10,3 C 7,2 C 84 % 1022,9 hPa 0,0 l/m 0,4 km/h (0 Bft) S 175 0 min 0,0 UV-I 0 W/m 7,7 C 10,3 C 3,2 km/h (1 Bft)
04.10.2022 20:00 10,2 C 7,2 C 84 % 1022,9 hPa 0,0 l/m 0,2 km/h (0 Bft) S 175 0 min 0,0 UV-I 0 W/m 7,6 C 10,2 C 1,6 km/h (1 Bft)
04.10.2022 20:03 10,1 C 7,2 C 85 % 1022,8 hPa 0,0 l/m 1,0 km/h (0 Bft) S 175 0 min 0,0 UV-I 0 W/m 7,7 C 10,1 C 3,2 km/h (1 Bft)
04.10.2022 20:06 9,9 C 7,2 C 85 % 1022,9 hPa 0,0 l/m 0,2 km/h (0 Bft) S 175 0 min 0,0 UV-I 0 W/m 7,5 C 9,9 C 1,6 km/h (1 Bft)
04.10.2022 20:09 9,9 C 7,2 C 85 % 1022,9 hPa 0,0 l/m 0,0 km/h (0 Bft) S 175 0 min 0,0 UV-I 0 W/m 7,5 C 9,9 C 0,0 km/h (0 Bft)
04.10.2022 20:12 10,0 C 7,2 C 86 % 1023,0 hPa 0,0 l/m 0,0 km/h (0 Bft) S 175 0 min 0,0 UV-I 0 W/m 7,8 C 10,0 C 0,0 km/h (0 Bft)
04.10.2022 20:15 10,1 C 7,8 C 86 % 1023,1 hPa 0,0 l/m 0,7 km/h (0 Bft) S 175 0 min 0,0 UV-I 0 W/m 7,9 C 10,1 C 3,2 km/h (1 Bft)
04.10.2022 20:18 10,2 C 7,2 C 86 % 1023,1 hPa 0,0 l/m 0,9 km/h (0 Bft) S 175 0 min 0,0 UV-I 0 W/m 8,0 C 10,2 C 1,6 km/h (1 Bft)
04.10.2022 20:21 10,0 C 7,2 C 86 % 1023,1 hPa 0,0 l/m 1,3 km/h (1 Bft) S 175 0 min 0,0 UV-I 0 W/m 7,8 C 10,0 C 3,2 km/h (1 Bft)
04.10.2022 20:24 9,7 C 7,2 C 86 % 1023,0 hPa 0,0 l/m 1,0 km/h (0 Bft) S 175 0 min 0,0 UV-I 0 W/m 7,5 C 9,7 C 3,2 km/h (1 Bft)
04.10.2022 20:27 9,4 C 6,7 C 86 % 1023,0 hPa 0,0 l/m 1,2 km/h (1 Bft) S 175 0 min 0,0 UV-I 0 W/m 7,2 C 9,4 C 3,2 km/h (1 Bft)
04.10.2022 20:30 9,4 C 7,2 C 87 % 1023,1 hPa 0,0 l/m 0,8 km/h (0 Bft) S 175 0 min 0,0 UV-I 0 W/m 7,3 C 9,4 C 3,2 km/h (1 Bft)
04.10.2022 20:33 9,5 C 6,7 C 87 % 1023,1 hPa 0,0 l/m 0,1 km/h (0 Bft) S 175 0 min 0,0 UV-I 0 W/m 7,4 C 9,5 C 1,6 km/h (1 Bft)
04.10.2022 20:36 9,4 C 6,7 C 87 % 1022,9 hPa 0,0 l/m 0,6 km/h (0 Bft) S 175 0 min 0,0 UV-I 0 W/m 7,3 C 9,4 C 3,2 km/h (1 Bft)
04.10.2022 20:39 9,4 C 6,7 C 88 % 1022,9 hPa 0,0 l/m 2,1 km/h (1 Bft) S 175 0 min 0,0 UV-I 0 W/m 7,5 C 9,4 C 3,2 km/h (1 Bft)
04.10.2022 20:42 9,3 C 6,7 C 88 % 1023,0 hPa 0,0 l/m 1,8 km/h (1 Bft) S 175 0 min 0,0 UV-I 0 W/m 7,4 C 9,3 C 4,8 km/h (1 Bft)
04.10.2022 20:45 9,2 C 6,7 C 88 % 1023,0 hPa 0,0 l/m 0,0 km/h (0 Bft) S 175 0 min 0,0 UV-I 0 W/m 7,3 C 9,2 C 1,6 km/h (1 Bft)
04.10.2022 20:48 9,2 C 6,7 C 88 % 1022,9 hPa 0,0 l/m 0,5 km/h (0 Bft) S 175 0 min 0,0 UV-I 0 W/m 7,3 C 9,2 C 1,6 km/h (1 Bft)
04.10.2022 20:51 9,2 C 6,7 C 88 % 1023,1 hPa 0,0 l/m 0,0 km/h (0 Bft) S 175 0 min 0,0 UV-I 0 W/m 7,3 C 9,2 C 0,0 km/h (0 Bft)
04.10.2022 20:54 9,0 C 6,7 C 88 % 1023,0 hPa 0,0 l/m 0,4 km/h (0 Bft) S 175 0 min 0,0 UV-I 0 W/m 7,1 C 9,0 C 1,6 km/h (1 Bft)
04.10.2022 20:57 9,0 C 6,1 C 89 % 1023,2 hPa 0,0 l/m 1,1 km/h (1 Bft) S 175 0 min 0,0 UV-I 0 W/m 7,3 C 9,0 C 3,2 km/h (1 Bft)
04.10.2022 21:00 9,1 C 6,1 C 89 % 1023,1 hPa 0,0 l/m 3,2 km/h (1 Bft) S 175 0 min 0,0 UV-I 0 W/m 7,4 C 9,1 C 4,8 km/h (1 Bft)
04.10.2022 21:03 8,9 C 6,1 C 88 % 1023,1 hPa 0,0 l/m 2,0 km/h (1 Bft) S 175 0 min 0,0 UV-I 0 W/m 7,0 C 8,9 C 3,2 km/h (1 Bft)
04.10.2022 21:06 8,8 C 6,1 C 89 % 1023,1 hPa 0,0 l/m 1,3 km/h (1 Bft) S 174 0 min 0,0 UV-I 0 W/m 7,1 C 8,8 C 1,6 km/h (1 Bft)
04.10.2022 21:09 8,7 C 6,1 C 89 % 1023,1 hPa 0,0 l/m 1,0 km/h (0 Bft) S 174 0 min 0,0 UV-I 0 W/m 7,0 C 8,7 C 3,2 km/h (1 Bft)
04.10.2022 21:12 8,7 C 6,7 C 89 % 1023,2 hPa 0,0 l/m 0,2 km/h (0 Bft) S 175 0 min 0,0 UV-I 0 W/m 7,0 C 8,7 C 1,6 km/h (1 Bft)
04.10.2022 21:15 8,8 C 6,7 C 90 % 1023,2 hPa 0,0 l/m 0,7 km/h (0 Bft) S 175 0 min 0,0 UV-I 0 W/m 7,3 C 8,8 C 1,6 km/h (1 Bft)
04.10.2022 21:18 8,9 C 6,7 C 90 % 1023,3 hPa 0,0 l/m 0,7 km/h (0 Bft) S 175 0 min 0,0 UV-I 0 W/m 7,4 C 8,9 C 1,6 km/h (1 Bft)
04.10.2022 21:21 8,8 C 6,1 C 90 % 1023,3 hPa 0,0 l/m 0,9 km/h (0 Bft) S 175 0 min 0,0 UV-I 0 W/m 7,3 C 8,8 C 1,6 km/h (1 Bft)
04.10.2022 21:24 8,8 C 6,1 C 90 % 1023,2 hPa 0,0 l/m 0,2 km/h (0 Bft) S 175 0 min 0,0 UV-I 0 W/m 7,3 C 8,8 C 1,6 km/h (1 Bft)
04.10.2022 21:27 8,6 C 6,1 C 90 % 1023,3 hPa 0,0 l/m 0,3 km/h (0 Bft) S 175 0 min 0,0 UV-I 0 W/m 7,1 C 8,6 C 1,6 km/h (1 Bft)
04.10.2022 21:30 8,3 C 6,1 C 90 % 1023,4 hPa 0,0 l/m 1,2 km/h (1 Bft) S 175 0 min 0,0 UV-I 0 W/m 6,8 C 8,3 C 1,6 km/h (1 Bft)
04.10.2022 21:33 8,4 C 6,1 C 90 % 1023,3 hPa 0,0 l/m 0,1 km/h (0 Bft) S 175 0 min 0,0 UV-I 0 W/m 6,9 C 8,4 C 1,6 km/h (1 Bft)
04.10.2022 21:36 8,7 C 6,1 C 91 % 1023,4 hPa 0,0 l/m 0,0 km/h (0 Bft) S 175 0 min 0,0 UV-I 0 W/m 7,3 C 8,7 C 0,0 km/h (0 Bft)
04.10.2022 21:39 8,7 C 6,1 C 90 % 1023,3 hPa 0,0 l/m 0,3 km/h (0 Bft) S 174 0 min 0,0 UV-I 0 W/m 7,2 C 8,7 C 1,6 km/h (1 Bft)
04.10.2022 21:42 8,6 C 6,1 C 90 % 1023,3 hPa 0,0 l/m 0,3 km/h (0 Bft) S 175 0 min 0,0 UV-I 0 W/m 7,1 C 8,6 C 1,6 km/h (1 Bft)
04.10.2022 21:45 8,3 C 5,6 C 90 % 1023,3 hPa 0,0 l/m 0,1 km/h (0 Bft) S 175 0 min 0,0 UV-I 0 W/m 6,8 C 8,3 C 1,6 km/h (1 Bft)
04.10.2022 21:48 8,3 C 5,6 C 90 % 1023,3 hPa 0,0 l/m 0,1 km/h (0 Bft) S 174 0 min 0,0 UV-I 0 W/m 6,8 C 8,3 C 1,6 km/h (1 Bft)
04.10.2022 21:51 8,5 C 6,1 C 91 % 1023,1 hPa 0,0 l/m 0,8 km/h (0 Bft) S 175 0 min 0,0 UV-I 0 W/m 7,1 C 8,5 C 3,2 km/h (1 Bft)
04.10.2022 21:54 8,4 C 6,1 C 91 % 1023,1 hPa 0,0 l/m 1,3 km/h (1 Bft) S 175 0 min 0,0 UV-I 0 W/m 7,0 C 8,4 C 3,2 km/h (1 Bft)
04.10.2022 21:57 8,7 C 6,7 C 92 % 1023,1 hPa 0,0 l/m 1,9 km/h (1 Bft) S 175 0 min 0,0 UV-I 0 W/m 7,5 C 8,7 C 3,2 km/h (1 Bft)
04.10.2022 22:00 8,8 C 6,1 C 91 % 1023,0 hPa 0,0 l/m 1,2 km/h (1 Bft) S 175 0 min 0,0 UV-I 0 W/m 7,4 C 8,8 C 3,2 km/h (1 Bft)
04.10.2022 22:03 8,8 C 6,7 C 91 % 1023,0 hPa 0,0 l/m 0,0 km/h (0 Bft) S 175 0 min 0,0 UV-I 0 W/m 7,4 C 8,8 C 0,0 km/h (0 Bft)
04.10.2022 22:06 8,9 C 6,7 C 91 % 1022,9 hPa 0,0 l/m 0,1 km/h (0 Bft) S 175 0 min 0,0 UV-I 0 W/m 7,5 C 8,9 C 1,6 km/h (1 Bft)
04.10.2022 22:09 9,0 C 6,7 C 91 % 1022,9 hPa 0,0 l/m 0,1 km/h (0 Bft) S 175 0 min 0,0 UV-I 0 W/m 7,6 C 9,0 C 1,6 km/h (1 Bft)
04.10.2022 22:12 9,0 C 6,7 C 91 % 1022,8 hPa 0,0 l/m 0,0 km/h (0 Bft) S 175 0 min 0,0 UV-I 0 W/m 7,6 C 9,0 C 0,0 km/h (0 Bft)
04.10.2022 22:15 8,9 C 6,7 C 91 % 1022,9 hPa 0,0 l/m 0,0 km/h (0 Bft) S 175 0 min 0,0 UV-I 0 W/m 7,5 C 8,9 C 0,0 km/h (0 Bft)
04.10.2022 22:18 8,9 C 6,7 C 91 % 1023,0 hPa 0,0 l/m 0,0 km/h (0 Bft) S 175 0 min 0,0 UV-I 0 W/m 7,5 C 8,9 C 0,0 km/h (0 Bft)
04.10.2022 22:21 8,8 C 6,1 C 91 % 1022,9 hPa 0,0 l/m 0,0 km/h (0 Bft) S 175 0 min 0,0 UV-I 0 W/m 7,4 C 8,8 C 0,0 km/h (0 Bft)
04.10.2022 22:24 8,4 C 6,1 C 91 % 1022,8 hPa 0,0 l/m 0,0 km/h (0 Bft) S 175 0 min 0,0 UV-I 0 W/m 7,0 C 8,4 C 0,0 km/h (0 Bft)
04.10.2022 22:27 8,4 C 6,1 C 91 % 1022,7 hPa 0,0 l/m 0,0 km/h (0 Bft) S 175 0 min 0,0 UV-I 0 W/m 7,0 C 8,4 C 0,0 km/h (0 Bft)
04.10.2022 22:30 8,4 C 6,1 C 91 % 1022,7 hPa 0,0 l/m 0,2 km/h (0 Bft) S 175 0 min 0,0 UV-I 0 W/m 7,0 C 8,4 C 1,6 km/h (1 Bft)
04.10.2022 22:33 8,4 C 6,1 C 92 % 1022,8 hPa 0,0 l/m 0,7 km/h (0 Bft) S 175 0 min 0,0 UV-I 0 W/m 7,2 C 8,4 C 3,2 km/h (1 Bft)
04.10.2022 22:36 8,3 C 5,6 C 92 % 1022,7 hPa 0,0 l/m 0,1 km/h (0 Bft) S 175 0 min 0,0 UV-I 0 W/m 7,1 C 8,3 C 1,6 km/h (1 Bft)
04.10.2022 22:39 7,8 C 5,6 C 91 % 1022,7 hPa 0,0 l/m 0,2 km/h (0 Bft) S 174 0 min 0,0 UV-I 0 W/m 6,4 C 7,8 C 1,6 km/h (1 Bft)
04.10.2022 22:42 7,6 C 5,6 C 91 % 1022,6 hPa 0,0 l/m 0,1 km/h (0 Bft) S 175 0 min 0,0 UV-I 0 W/m 6,2 C 7,6 C 1,6 km/h (1 Bft)
04.10.2022 22:45 7,4 C 5,0 C 91 % 1022,6 hPa 0,0 l/m 0,0 km/h (0 Bft) S 174 0 min 0,0 UV-I 0 W/m 6,0 C 7,4 C 0,0 km/h (0 Bft)
04.10.2022 22:48 7,8 C 5,6 C 92 % 1022,6 hPa 0,0 l/m 0,0 km/h (0 Bft) S 174 0 min 0,0 UV-I 0 W/m 6,6 C 7,8 C 0,0 km/h (0 Bft)
04.10.2022 22:51 8,3 C 5,6 C 93 % 1022,6 hPa 0,0 l/m 0,3 km/h (0 Bft) S 174 0 min 0,0 UV-I 0 W/m 7,2 C 8,3 C 1,6 km/h (1 Bft)
04.10.2022 22:54 8,6 C 5,6 C 93 % 1022,8 hPa 0,0 l/m 1,2 km/h (1 Bft) S 174 0 min 0,0 UV-I 0 W/m 7,5 C 8,6 C 3,2 km/h (1 Bft)
04.10.2022 22:57 8,6 C 6,1 C 92 % 1022,8 hPa 0,0 l/m 1,0 km/h (0 Bft) S 174 0 min 0,0 UV-I 0 W/m 7,4 C 8,6 C 1,6 km/h (1 Bft)
04.10.2022 23:00 8,3 C 5,6 C 91 % 1022,9 hPa 0,0 l/m 0,2 km/h (0 Bft) S 175 0 min 0,0 UV-I 0 W/m 6,9 C 8,3 C 3,2 km/h (1 Bft)
04.10.2022 23:03 7,6 C 5,0 C 91 % 1022,9 hPa 0,0 l/m 0,0 km/h (0 Bft) S 174 0 min 0,0 UV-I 0 W/m 6,2 C 7,6 C 1,6 km/h (1 Bft)
04.10.2022 23:06 7,2 C 5,0 C 91 % 1022,9 hPa 0,0 l/m 0,0 km/h (0 Bft) S 175 0 min 0,0 UV-I 0 W/m 5,8 C 7,2 C 0,0 km/h (0 Bft)
04.10.2022 23:09 7,0 C 5,0 C 91 % 1022,9 hPa 0,0 l/m 0,0 km/h (0 Bft) S 175 0 min 0,0 UV-I 0 W/m 5,6 C 7,0 C 0,0 km/h (0 Bft)
04.10.2022 23:12 7,2 C 5,0 C 92 % 1022,8 hPa 0,0 l/m 0,1 km/h (0 Bft) S 175 0 min 0,0 UV-I 0 W/m 6,0 C 7,2 C 1,6 km/h (1 Bft)
04.10.2022 23:15 7,8 C 5,0 C 93 % 1022,8 hPa 0,0 l/m 1,1 km/h (1 Bft) S 174 0 min 0,0 UV-I 0 W/m 6,7 C 7,8 C 3,2 km/h (1 Bft)
04.10.2022 23:18 8,3 C 5,6 C 93 % 1022,9 hPa 0,0 l/m 0,4 km/h (0 Bft) S 175 0 min 0,0 UV-I 0 W/m 7,2 C 8,3 C 1,6 km/h (1 Bft)
04.10.2022 23:21 8,4 C 5,6 C 92 % 1022,8 hPa 0,0 l/m 0,4 km/h (0 Bft) S 175 0 min 0,0 UV-I 0 W/m 7,2 C 8,4 C 1,6 km/h (1 Bft)
04.10.2022 23:24 8,2 C 5,6 C 92 % 1022,7 hPa 0,0 l/m 0,7 km/h (0 Bft) S 175 0 min 0,0 UV-I 0 W/m 7,0 C 8,2 C 1,6 km/h (1 Bft)
04.10.2022 23:27 7,6 C 5,0 C 91 % 1022,7 hPa 0,0 l/m 0,4 km/h (0 Bft) S 175 0 min 0,0 UV-I 0 W/m 6,2 C 7,6 C 1,6 km/h (1 Bft)
04.10.2022 23:30 7,7 C 5,0 C 92 % 1022,8 hPa 0,0 l/m 0,2 km/h (0 Bft) S 175 0 min 0,0 UV-I 0 W/m 6,5 C 7,7 C 1,6 km/h (1 Bft)
04.10.2022 23:33 8,0 C 5,0 C 93 % 1022,8 hPa 0,0 l/m 0,2 km/h (0 Bft) S 175 0 min 0,0 UV-I 0 W/m 6,9 C 8,0 C 1,6 km/h (1 Bft)
04.10.2022 23:36 7,9 C 5,0 C 92 % 1022,9 hPa 0,0 l/m 0,4 km/h (0 Bft) S 175 0 min 0,0 UV-I 0 W/m 6,7 C 7,9 C 3,2 km/h (1 Bft)
04.10.2022 23:39 7,9 C 5,0 C 92 % 1022,9 hPa 0,0 l/m 0,2 km/h (0 Bft) S 174 0 min 0,0 UV-I 0 W/m 6,7 C 7,9 C 1,6 km/h (1 Bft)
04.10.2022 23:42 7,7 C 5,0 C 91 % 1022,8 hPa 0,0 l/m 0,0 km/h (0 Bft) S 175 0 min 0,0 UV-I 0 W/m 6,3 C 7,7 C 0,0 km/h (0 Bft)
04.10.2022 23:45 7,3 C 4,4 C 92 % 1022,9 hPa 0,0 l/m 0,0 km/h (0 Bft) S 175 0 min 0,0 UV-I 0 W/m 6,1 C 7,3 C 1,6 km/h (1 Bft)
04.10.2022 23:48 7,1 C 4,4 C 92 % 1022,8 hPa 0,0 l/m 0,7 km/h (0 Bft) S 175 0 min 0,0 UV-I 0 W/m 5,9 C 7,1 C 1,6 km/h (1 Bft)
04.10.2022 23:51 7,2 C 4,4 C 93 % 1022,9 hPa 0,0 l/m 0,6 km/h (0 Bft) S 174 0 min 0,0 UV-I 0 W/m 6,1 C 7,2 C 1,6 km/h (1 Bft)
04.10.2022 23:54 7,4 C 4,4 C 93 % 1022,9 hPa 0,0 l/m 0,4 km/h (0 Bft) S 174 0 min 0,0 UV-I 0 W/m 6,3 C 7,4 C 3,2 km/h (1 Bft)
04.10.2022 23:57 7,9 C 5,0 C 93 % 1022,9 hPa 0,0 l/m 1,3 km/h (1 Bft) S 174 0 min 0,0 UV-I 0 W/m 6,8 C 7,9 C 3,2 km/h (1 Bft)
04.10.2022 23:58 7,9 C 5,0 C 93 % 1022,9 hPa 0,0 l/m 1,6 km/h (1 Bft) S 180 0 min 0,0 UV-I 0 W/m 6,8 C 7,9 C 3,2 km/h (1 Bft)
04.10.2022 23:59 7,9 C 5,0 C 93 % 1022,9 hPa 0,0 l/m 1,6 km/h (1 Bft) S 180 0 min 0,0 UV-I 0 W/m 6,8 C 7,9 C 3,2 km/h (1 Bft)
_ Min-Zeit 08:03 06:54 16:03 17:42 - 00:00 - - - - - 08:03 08:03 00:00
Minimum _ 1,4 C 0,6 C 58 % 1022,1 hPa - 0,0 km/h (0 Bft) - - - - - 0,5 C 1,4 C 0,0 km/h (0 Bft)
_ Max-Zeit 15:24 15:57 07:54 00:45 00:00 13:45 - - 11:00 13:36 13:45 14:12 15:57 14:18
Maximum _ 17,0 C 25,6 C 95 % 1027,2 hPa 0,0 l/m 16,2 km/h
S-SW (3 Bft)
- - 3 min 3,2 UV-I 581 W/m 10,4 C 16,5 C 25,7 km/h
S (4 Bft)
Durchschnitt _ 8,6 C 9,5 C 83 % 1024,2 hPa #0,0 l/m 4,0 km/h (1 Bft) O-NO - #5:18 h 2,0 UV-I 314 W/m 5,7 C 7,9 C 6,7 km/h (2 Bft)